[[{"header":{"parameterUnit":"m.s-1","parameterCategory":1,"la1":30.6,"la2":29.2853,"lo1":-89.7004,"lo2":-87.6739,"dy":0.0162,"dx":0.0183,"nx":112,"ny":82,"refTime":"2025-03-21T18:00:00:Z","depth":0,"parameterNumber":2,"parameterNumberName":"U-component_of_WINDS"},"data":[0.0,0.0,0.0,0.0,0.0,0.0,0.0,0.0,0.0,0.0,0.0,0.0,0.0,0.0,0.0,0.0,0.0,0.0,0.0,0.0,0.0,0.0,0.0,0.0,0.0,0.0,0.0,0.0,0.0,0.0,0.0,0.0,0.0,0.0,0.0,0.0,0.0,0.0,0.0,0.0,0.0,0.0,0.0,0.0,0.0,0.0,0.0,0.0,0.0,0.0,0.0,0.0,0.0,0.0,0.0,0.0,0.0,0.0,0.0,0.0,0.0,0.0,0.0,0.0,0.0,0.0,0.0,0.0,0.0,0.0,0.0,0.0,0.0,0.0,0.0,0.0,0.0,0.0,0.0,0.0,0.0,0.0,0.0,0.0,0.0,0.0,0.0,0.0,0.0,0.0,-4.8056,-5.2384,-5.7618,-6.0127,-5.8434,-5.8047,-5.4829,-4.7649,0.0,0.0,0.0,0.0,0.0,0.0,0.0,0.0,0.0,0.0,0.0,0.0,0.0,0.0,0.0,0.0,0.0,0.0,0.0,0.0,0.0,0.0,0.0,0.0,0.0,0.0,0.0,0.0,0.0,0.0,0.0,0.0,0.0,0.0,0.0,0.0,0.0,0.0,0.0,0.0,0.0,0.0,0.0,0.0,0.0,0.0,0.0,0.0,0.0,0.0,0.0,0.0,0.0,0.0,0.0,0.0,0.0,0.0,0.0,0.0,0.0,0.0,0.0,0.0,0.0,0.0,0.0,0.0,0.0,0.0,0.0,0.0,0.0,0.0,0.0,0.0,0.0,0.0,0.0,0.0,0.0,0.0,0.0,0.0,0.0,0.0,0.0,0.0,0.0,0.0,0.0,0.0,0.0,0.0,0.0,0.0,0.0,0.0,0.0,0.0,0.0,0.0,0.0,0.0,-4.6919,-5.5351,-5.8976,-6.0127,-5.8434,-5.6342,-5.3108,-4.8392,0.0,0.0,0.0,0.0,0.0,0.0,0.0,0.0,0.0,0.0,0.0,0.0,0.0,0.0,0.0,0.0,0.0,0.0,0.0,0.0,0.0,0.0,0.0,0.0,0.0,0.0,0.0,0.0,0.0,0.0,0.0,0.0,0.0,0.0,0.0,0.0,0.0,0.0,0.0,0.0,0.0,0.0,0.0,0.0,0.0,0.0,0.0,0.0,0.0,0.0,0.0,0.0,0.0,0.0,0.0,0.0,0.0,0.0,0.0,0.0,0.0,0.0,0.0,0.0,0.0,0.0,0.0,0.0,0.0,0.0,0.0,0.0,0.0,0.0,0.0,0.0,0.0,0.0,0.0,0.0,0.0,0.0,0.0,0.0,0.0,0.0,0.0,0.0,0.0,0.0,0.0,0.0,0.0,0.0,0.0,0.0,0.0,0.0,0.0,0.0,0.0,0.0,0.0,-4.5975,-4.9913,-5.6953,-5.9146,-5.9608,-5.8396,-5.5953,-5.2704,-4.8461,-4.4626,0.0,0.0,0.0,0.0,0.0,0.0,0.0,0.0,0.0,0.0,0.0,0.0,0.0,0.0,0.0,0.0,0.0,0.0,0.0,0.0,0.0,0.0,0.0,0.0,0.0,0.0,0.0,0.0,0.0,0.0,0.0,0.0,0.0,0.0,0.0,0.0,0.0,0.0,0.0,0.0,0.0,0.0,0.0,0.0,0.0,0.0,0.0,0.0,0.0,0.0,0.0,0.0,0.0,0.0,0.0,0.0,0.0,0.0,0.0,0.0,0.0,0.0,0.0,0.0,0.0,0.0,0.0,0.0,0.0,0.0,0.0,0.0,0.0,0.0,0.0,0.0,0.0,0.0,0.0,0.0,0.0,0.0,0.0,0.0,0.0,0.0,0.0,0.0,0.0,0.0,0.0,0.0,0.0,0.0,0.0,0.0,0.0,0.0,0.0,0.0,0.0,0.0,-5.0471,-5.353,-5.7838,-5.9031,-5.9165,-5.8377,-5.5415,-5.1952,-4.8067,-4.2707,0.0,0.0,0.0,0.0,0.0,0.0,0.0,0.0,0.0,0.0,0.0,0.0,0.0,0.0,0.0,0.0,0.0,0.0,0.0,0.0,0.0,0.0,0.0,0.0,0.0,0.0,0.0,0.0,0.0,0.0,0.0,0.0,0.0,0.0,0.0,0.0,0.0,0.0,0.0,0.0,0.0,0.0,0.0,0.0,0.0,0.0,0.0,0.0,0.0,0.0,0.0,0.0,0.0,0.0,0.0,0.0,0.0,0.0,0.0,0.0,0.0,0.0,0.0,0.0,0.0,0.0,0.0,0.0,0.0,0.0,0.0,0.0,0.0,0.0,0.0,0.0,0.0,0.0,0.0,0.0,0.0,0.0,0.0,0.0,0.0,0.0,0.0,0.0,0.0,0.0,0.0,0.0,0.0,0.0,0.0,0.0,0.0,0.0,0.0,0.0,0.0,0.0,-5.1424,-5.6107,-5.8088,-5.9031,-5.9165,-5.8377,-5.378,-4.9817,-4.7154,-4.0689,0.0,0.0,0.0,0.0,0.0,0.0,0.0,0.0,0.0,0.0,0.0,0.0,0.0,0.0,0.0,0.0,0.0,0.0,0.0,0.0,0.0,0.0,0.0,0.0,0.0,0.0,0.0,0.0,0.0,0.0,0.0,0.0,0.0,0.0,0.0,0.0,0.0,0.0,0.0,0.0,0.0,0.0,0.0,0.0,0.0,0.0,0.0,0.0,0.0,0.0,0.0,0.0,0.0,0.0,0.0,0.0,0.0,0.0,0.0,0.0,0.0,0.0,0.0,0.0,0.0,0.0,0.0,0.0,0.0,0.0,0.0,0.0,0.0,0.0,0.0,0.0,0.0,0.0,0.0,0.0,0.0,0.0,0.0,0.0,0.0,0.0,0.0,0.0,0.0,0.0,0.0,0.0,0.0,0.0,0.0,0.0,0.0,0.0,0.0,0.0,0.0,0.0,-4.9692,-5.3848,-5.7126,-5.7761,-5.7588,-5.6742,-5.3453,-4.9913,-4.6317,0.0,0.0,0.0,0.0,0.0,0.0,0.0,0.0,0.0,0.0,0.0,0.0,0.0,0.0,0.0,0.0,0.0,0.0,0.0,0.0,0.0,0.0,0.0,0.0,0.0,0.0,0.0,0.0,0.0,0.0,0.0,0.0,0.0,0.0,0.0,0.0,0.0,0.0,0.0,0.0,0.0,0.0,0.0,0.0,0.0,0.0,0.0,0.0,0.0,0.0,0.0,0.0,0.0,0.0,0.0,0.0,0.0,0.0,0.0,0.0,0.0,0.0,0.0,0.0,0.0,0.0,0.0,0.0,0.0,0.0,0.0,0.0,0.0,0.0,0.0,0.0,0.0,0.0,0.0,0.0,0.0,0.0,0.0,0.0,0.0,0.0,0.0,0.0,0.0,0.0,0.0,0.0,0.0,0.0,0.0,0.0,0.0,0.0,0.0,0.0,0.0,0.0,-4.4825,-4.9288,-5.3213,-5.6637,-5.7003,-5.6656,-5.5761,-5.2626,-4.9009,-4.5047,0.0,0.0,0.0,0.0,0.0,0.0,0.0,0.0,0.0,0.0,0.0,0.0,0.0,0.0,0.0,0.0,0.0,0.0,0.0,0.0,0.0,0.0,0.0,0.0,0.0,0.0,0.0,0.0,0.0,0.0,0.0,0.0,0.0,0.0,0.0,0.0,0.0,0.0,0.0,0.0,0.0,0.0,0.0,0.0,0.0,0.0,0.0,0.0,0.0,0.0,0.0,0.0,0.0,0.0,0.0,0.0,0.0,0.0,0.0,0.0,0.0,0.0,0.0,0.0,0.0,0.0,0.0,0.0,0.0,0.0,0.0,0.0,0.0,0.0,0.0,0.0,0.0,0.0,0.0,0.0,0.0,0.0,0.0,0.0,0.0,0.0,0.0,0.0,0.0,0.0,0.0,0.0,0.0,0.0,0.0,0.0,0.0,0.0,0.0,0.0,0.0,0.0,-4.5056,-5.0779,-5.5126,-5.681,-5.6983,-5.6618,-5.5742,-5.1029,-4.6682,0.0,0.0,0.0,0.0,0.0,0.0,0.0,0.0,0.0,0.0,0.0,0.0,0.0,0.0,0.0,0.0,0.0,0.0,0.0,0.0,0.0,0.0,0.0,0.0,0.0,0.0,0.0,0.0,0.0,0.0,0.0,0.0,0.0,0.0,0.0,0.0,0.0,0.0,0.0,0.0,0.0,0.0,0.0,0.0,0.0,0.0,0.0,0.0,0.0,0.0,0.0,0.0,0.0,0.0,0.0,0.0,0.0,0.0,0.0,0.0,0.0,0.0,0.0,0.0,0.0,0.0,0.0,0.0,0.0,0.0,0.0,0.0,0.0,0.0,0.0,0.0,0.0,0.0,0.0,0.0,0.0,0.0,0.0,0.0,0.0,0.0,0.0,0.0,0.0,0.0,0.0,0.0,0.0,0.0,0.0,0.0,0.0,0.0,0.0,0.0,0.0,0.0,0.0,-4.4902,-4.974,-5.3549,-5.5838,-5.5568,-5.4876,-5.401,-5.0914,-4.7067,-4.247,0.0,0.0,0.0,0.0,0.0,0.0,0.0,0.0,0.0,0.0,0.0,0.0,0.0,0.0,0.0,0.0,0.0,0.0,0.0,0.0,0.0,0.0,0.0,0.0,0.0,0.0,0.0,0.0,0.0,0.0,0.0,0.0,0.0,0.0,0.0,0.0,0.0,0.0,0.0,0.0,0.0,0.0,0.0,0.0,0.0,0.0,0.0,0.0,0.0,0.0,0.0,0.0,0.0,0.0,0.0,0.0,0.0,0.0,0.0,0.0,0.0,0.0,0.0,0.0,0.0,0.0,0.0,0.0,0.0,0.0,0.0,0.0,0.0,0.0,0.0,0.0,0.0,0.0,0.0,0.0,0.0,0.0,0.0,0.0,0.0,0.0,0.0,0.0,0.0,0.0,0.0,0.0,0.0,0.0,0.0,0.0,0.0,0.0,0.0,0.0,0.0,0.0,-4.4825,-4.9298,-5.2865,-5.5434,-5.4972,-5.4145,-5.328,-5.0856,-4.7221,-4.2115,0.0,0.0,0.0,0.0,0.0,0.0,0.0,0.0,0.0,0.0,0.0,0.0,0.0,0.0,0.0,0.0,0.0,0.0,0.0,0.0,0.0,0.0,0.0,0.0,0.0,0.0,0.0,0.0,0.0,0.0,0.0,0.0,0.0,0.0,0.0,0.0,0.0,0.0,0.0,0.0,0.0,0.0,0.0,0.0,0.0,0.0,0.0,0.0,0.0,0.0,0.0,0.0,0.0,0.0,0.0,0.0,0.0,0.0,0.0,0.0,0.0,0.0,0.0,0.0,0.0,0.0,0.0,0.0,0.0,0.0,0.0,0.0,0.0,0.0,0.0,0.0,0.0,0.0,0.0,0.0,0.0,0.0,0.0,0.0,0.0,0.0,0.0,0.0,0.0,0.0,0.0,0.0,0.0,0.0,0.0,0.0,0.0,0.0,0.0,0.0,0.0,0.0,-4.471,-4.9106,-5.2645,-5.5203,-5.4741,-5.3933,-5.3145,-5.0741,-4.7163,-4.2231,0.0,0.0,0.0,0.0,0.0,0.0,0.0,0.0,0.0,0.0,0.0,0.0,0.0,0.0,0.0,0.0,0.0,0.0,0.0,0.0,0.0,0.0,0.0,0.0,0.0,0.0,0.0,0.0,0.0,0.0,0.0,0.0,0.0,0.0,0.0,0.0,0.0,0.0,0.0,0.0,0.0,0.0,0.0,0.0,0.0,0.0,0.0,0.0,0.0,0.0,0.0,0.0,0.0,0.0,0.0,0.0,0.0,0.0,0.0,0.0,-4.2038,-4.1019,0.0,0.0,0.0,0.0,0.0,0.0,0.0,0.0,0.0,0.0,0.0,0.0,0.0,0.0,0.0,0.0,0.0,0.0,0.0,0.0,0.0,0.0,0.0,0.0,0.0,0.0,0.0,0.0,0.0,0.0,0.0,0.0,0.0,0.0,0.0,0.0,0.0,0.0,0.0,0.0,-4.3816,-4.7702,-5.0914,-5.3453,-5.2972,-5.2385,-5.2192,-4.9837,-4.6797,-4.3066,-3.8815,0.0,0.0,0.0,0.0,0.0,0.0,0.0,0.0,0.0,0.0,0.0,0.0,0.0,0.0,0.0,0.0,0.0,0.0,0.0,0.0,0.0,0.0,0.0,0.0,0.0,0.0,0.0,0.0,0.0,0.0,0.0,0.0,0.0,0.0,0.0,0.0,0.0,0.0,0.0,0.0,0.0,0.0,0.0,0.0,0.0,0.0,0.0,0.0,0.0,0.0,0.0,0.0,0.0,0.0,0.0,0.0,0.0,0.0,0.0,-4.5451,-4.4085,0.0,0.0,0.0,0.0,0.0,0.0,0.0,0.0,0.0,0.0,0.0,0.0,0.0,0.0,0.0,0.0,0.0,0.0,0.0,0.0,0.0,0.0,0.0,0.0,0.0,0.0,0.0,0.0,0.0,0.0,0.0,0.0,0.0,0.0,0.0,0.0,0.0,0.0,0.0,0.0,-4.3547,-4.7278,-5.0375,-5.2933,-5.2423,-5.1904,-5.1904,-4.9558,-4.7009,-4.4451,-4.0296,0.0,0.0,0.0,0.0,0.0,0.0,0.0,0.0,0.0,0.0,0.0,0.0,0.0,0.0,0.0,0.0,0.0,0.0,0.0,0.0,0.0,0.0,0.0,0.0,0.0,0.0,0.0,0.0,0.0,0.0,0.0,0.0,0.0,0.0,0.0,0.0,0.0,0.0,0.0,0.0,0.0,0.0,0.0,0.0,0.0,0.0,0.0,0.0,0.0,0.0,0.0,0.0,0.0,-5.1314,-5.2276,-5.3425,-5.3635,-5.3785,-5.3626,-4.9413,-4.8029,-4.8509,-4.5297,0.0,0.0,0.0,0.0,0.0,0.0,0.0,0.0,0.0,0.0,0.0,0.0,0.0,0.0,0.0,0.0,0.0,0.0,0.0,0.0,0.0,0.0,-4.2712,-4.2865,-4.397,-4.3585,-3.8577,0.0,0.0,0.0,0.0,0.0,0.0,0.0,0.0,0.0,0.0,0.0,-4.3566,-4.7144,-5.0106,-5.251,-5.2125,-5.1692,-5.1692,-4.949,-4.7451,-4.5922,-4.1989,-3.8719,0.0,0.0,0.0,0.0,0.0,0.0,0.0,0.0,0.0,0.0,0.0,0.0,0.0,0.0,0.0,0.0,0.0,0.0,0.0,0.0,0.0,0.0,0.0,0.0,0.0,0.0,0.0,0.0,0.0,0.0,0.0,0.0,-4.5608,-4.6507,0.0,0.0,0.0,0.0,0.0,0.0,0.0,0.0,0.0,0.0,0.0,0.0,0.0,-4.9139,-5.0503,-5.2134,-5.2692,-5.2227,-5.4426,-5.5064,-5.4372,-5.5412,-5.6109,-5.6464,-5.5791,0.0,-5.1192,-4.8548,0.0,0.0,0.0,0.0,0.0,0.0,0.0,0.0,0.0,0.0,0.0,0.0,0.0,0.0,0.0,0.0,0.0,0.0,0.0,0.0,0.0,0.0,-4.6404,-4.7105,-4.7451,-4.7201,-4.5712,-4.1412,-3.7238,-3.5212,-3.3615,-3.2237,0.0,0.0,0.0,0.0,0.0,0.0,-4.3624,-4.6624,-4.8971,-5.0827,-5.0943,-5.0856,-5.0856,-4.9163,-4.7721,-4.6797,-4.3431,-4.0989,-3.99,-3.5898,0.0,0.0,0.0,0.0,0.0,0.0,0.0,0.0,0.0,0.0,0.0,0.0,0.0,0.0,0.0,0.0,0.0,0.0,0.0,0.0,0.0,0.0,0.0,0.0,0.0,0.0,0.0,0.0,0.0,-4.4837,-4.6709,-4.7058,-4.7205,-4.6397,0.0,0.0,0.0,0.0,0.0,0.0,0.0,0.0,0.0,-5.0325,-5.1465,-5.259,-5.3755,-5.5431,-5.6339,-5.6449,-5.7532,-5.8053,-5.8064,-5.8592,-5.894,-5.9138,-5.9138,-5.8011,-5.5895,-5.2414,-5.026,-4.8798,0.0,0.0,0.0,0.0,-4.4624,-4.5547,-4.6981,-4.6932,-4.5979,-4.4432,0.0,0.0,0.0,0.0,0.0,0.0,0.0,-4.2354,-4.4047,-4.6394,-4.8394,-4.8759,-4.9548,-4.9885,-4.8586,-4.6259,-4.3335,-3.9731,-3.8027,-3.6142,-3.2929,-3.2545,0.0,0.0,0.0,-4.0893,-4.4547,-4.724,-4.9317,-5.0577,-5.0712,-5.05,-5.001,-4.8817,-4.7759,-4.6942,-4.4586,-4.2835,-4.1989,-3.9246,-3.668,0.0,0.0,0.0,0.0,0.0,0.0,0.0,0.0,0.0,0.0,0.0,0.0,0.0,0.0,0.0,0.0,0.0,0.0,0.0,0.0,0.0,0.0,0.0,0.0,0.0,0.0,0.0,0.0,-4.6085,-4.781,-4.8012,-4.8929,-4.8453,0.0,0.0,0.0,0.0,0.0,0.0,-5.0362,-5.1261,-5.2179,-5.3188,-5.4447,-5.5465,-5.629,-5.7567,-5.8511,-5.9121,-5.9121,-5.9578,-6.0437,-6.0437,-6.0565,-6.08,-6.08,-6.0435,-5.9531,-5.5742,-5.3664,-5.251,-4.8682,-4.7605,-4.8154,-4.7952,-4.8375,-4.9327,-5.1231,-5.151,-5.0625,-4.8298,-4.6509,-4.4605,-4.1027,0.0,0.0,0.0,0.0,-4.4778,-4.6479,-4.8452,-5.0106,-5.0317,-5.1144,-5.1558,-5.0317,-4.9702,-4.8144,-4.3923,-4.222,-4.0208,-3.6199,-3.6045,0.0,-3.618,-3.9565,-4.3047,-4.5605,-4.7952,-4.9721,-5.0616,-5.05,-5.0087,-4.9452,-4.8413,-4.7548,-4.6942,-4.547,-4.4355,-4.3758,-4.2085,-3.9777,-3.6834,0.0,0.0,0.0,0.0,0.0,0.0,0.0,0.0,0.0,0.0,0.0,0.0,0.0,0.0,0.0,0.0,0.0,0.0,0.0,0.0,0.0,0.0,0.0,0.0,0.0,0.0,0.0,0.0,0.0,-5.0527,-5.2013,0.0,0.0,0.0,0.0,-5.049,-5.1279,-5.2123,-5.2986,-5.3794,-5.495,-5.651,-5.6628,-5.7077,-5.7886,-5.7972,-5.805,-5.8086,-5.8086,-5.8574,-5.9458,-5.9458,-5.9965,-6.08,-6.08,-6.0781,-6.0531,-5.7888,-5.631,-5.5241,-5.2606,-5.1615,-5.1558,-5.0779,-5.1029,-5.1731,-5.1865,-5.1865,-5.1942,-5.2606,-5.0587,-4.7567,-4.5768,-4.4671,0.0,0.0,-4.6547,-4.8259,-5.0,-5.1106,-5.1981,-5.2818,-5.2442,-5.1885,-5.1788,-5.0529,-4.8856,-4.7009,-4.5278,-4.3778,-4.2758,0.0,-3.9623,-4.1181,-4.2335,-4.3951,-4.6509,-4.8336,-4.9721,-5.0616,-4.9952,-4.9452,-4.9394,-4.7894,-4.6942,-4.6904,-4.6028,-4.5518,-4.5479,-4.3855,-4.2104,-4.0285,-3.6187,0.0,0.0,0.0,0.0,0.0,0.0,0.0,0.0,0.0,0.0,0.0,0.0,0.0,0.0,0.0,0.0,0.0,0.0,0.0,0.0,0.0,0.0,0.0,0.0,0.0,0.0,0.0,0.0,-5.372,-5.4858,0.0,-5.2564,-5.2344,-5.2564,-5.3078,-5.3849,-5.5115,-5.6946,-5.684,-5.7226,-5.8304,-5.8421,-5.8614,-5.8913,-5.9492,-5.9789,-5.9789,-5.9789,-5.9981,-6.0311,-6.0311,-6.0482,-6.08,-6.08,-6.08,-6.0723,-5.9819,-5.8934,-5.7953,-5.5953,-5.5184,-5.5145,-5.4867,-5.4944,-5.5184,-5.5184,-5.4818,-5.4126,-5.2788,-5.1183,-4.9663,-4.9057,-4.8673,-4.8586,-4.9413,-5.0087,-5.0808,-5.201,-5.2933,-5.351,-5.326,-5.2972,-5.2577,-5.2019,-5.1029,-5.0048,-4.9452,-4.7932,-4.6124,-4.4201,-4.447,-4.4605,-4.3566,-4.5547,-4.7471,-4.8394,-4.951,-5.0144,-4.9894,-4.9586,-4.8952,-4.7875,-4.724,-4.6663,-4.6105,-4.5768,-4.5594,-4.5594,-4.4489,-4.3066,-4.1373,-3.8257,-3.443,0.0,0.0,0.0,0.0,0.0,0.0,0.0,0.0,0.0,0.0,0.0,0.0,0.0,0.0,0.0,0.0,0.0,0.0,0.0,0.0,0.0,0.0,0.0,0.0,0.0,-5.1775,-5.4418,-5.5464,-5.7024,-5.7171,-5.5042,-5.5317,-5.5849,-5.6381,-5.6914,-5.7923,-5.9538,-5.9098,-5.8933,-5.9184,-5.9297,-5.9213,-5.8932,-5.9543,-5.9855,-5.9855,-6.0025,-6.0175,-6.0338,-6.0495,-6.0647,-6.08,-6.08,-6.08,-6.08,-6.08,-6.0454,-5.98,-5.8377,-5.7838,-5.7811,-5.753,-5.7434,-5.7396,-5.7099,-5.6618,-5.5761,-5.351,-5.2414,-5.1933,-5.1625,-5.1529,-5.1645,-5.2202,-5.2538,-5.2914,-5.3491,-5.426,-5.4761,-5.4184,-5.3837,-5.3395,-5.2519,-5.1683,-5.101,-5.075,-4.9529,-4.8009,-4.6317,-4.7182,-4.7528,-4.5836,-4.7759,-4.9298,-4.899,-4.9721,-4.9933,-4.9048,-4.8721,-4.8105,-4.6981,-4.6624,-4.6201,-4.5633,-4.5325,-4.5037,-4.4767,-4.3912,-4.2662,-4.0989,-3.8161,-3.4776,-3.0827,0.0,0.0,0.0,0.0,0.0,0.0,0.0,0.0,0.0,0.0,0.0,0.0,0.0,0.0,0.0,0.0,0.0,0.0,0.0,0.0,0.0,0.0,0.0,-4.9665,-5.3191,-5.5684,-5.5776,-5.8529,-5.9832,-5.8253,-5.9501,-6.0419,-6.0438,-6.0419,-6.0419,-6.0474,-6.0438,-6.0052,-5.9258,-5.9226,-5.8846,-5.802,-5.8024,-5.8047,-5.8047,-5.8505,-5.8971,-5.9424,-5.9885,-6.0351,-6.08,-6.08,-6.08,-6.08,-6.08,-6.08,-6.0723,-5.9877,-5.955,-5.9454,-5.8665,-5.8357,-5.8204,-5.7338,-5.7022,-5.6733,-5.5068,-5.453,-5.4376,-5.353,-5.328,-5.328,-5.328,-5.3895,-5.453,-5.453,-5.5126,-5.5703,-5.5703,-5.5088,-5.426,-5.3395,-5.2519,-5.1654,-5.0866,-5.001,-4.9433,-4.9433,-4.874,-4.8182,-4.8182,-4.8894,0.0,-4.8259,-4.8875,-4.9067,-4.8163,-4.7375,-4.6885,-4.6846,-4.6086,-4.5594,-4.5556,-4.4759,-4.3951,-4.3162,-4.2277,-4.1008,-3.9342,-3.5995,-3.3468,-3.1814,0.0,0.0,0.0,0.0,0.0,0.0,0.0,0.0,0.0,0.0,0.0,0.0,0.0,0.0,0.0,0.0,0.0,0.0,0.0,0.0,0.0,-5.0123,-5.3004,-5.3812,-5.5904,-5.7978,-5.974,-6.0731,-6.1098,-6.0639,-6.0474,-6.0639,-6.1227,-6.0731,-6.0915,-6.2089,-6.1043,-6.0309,-6.0089,-5.9841,-5.9319,-5.8524,-5.8835,-5.9009,-5.9009,-5.9158,-5.9441,-5.9916,-6.004,-6.0351,-6.08,-6.08,-6.08,-6.08,-6.08,-6.08,-6.0781,-6.0531,-6.0435,-6.0416,-6.0185,-5.9704,-5.905,-5.8223,-5.753,-5.683,-5.5722,-5.5376,-5.5318,-5.5088,-5.5011,-5.5011,-5.5011,-5.5184,-5.5376,-5.5376,-5.553,-5.5703,-5.5703,-5.5088,-5.426,-5.3395,-5.2519,-5.1654,-5.0866,-5.0519,-5.0346,-5.0346,-5.0144,-4.999,-4.999,-5.0192,-5.0029,-4.9144,-4.924,-4.8836,-4.7394,-4.7019,-4.6644,-4.6009,-4.5748,-4.5325,-4.4701,-4.4432,-4.4201,-4.397,-4.2566,-4.1008,-3.9342,-3.7142,-3.5507,0.0,0.0,0.0,0.0,0.0,0.0,0.0,0.0,0.0,0.0,0.0,0.0,0.0,0.0,0.0,0.0,0.0,0.0,0.0,0.0,0.0,0.0,-5.3115,-5.5923,-5.7391,-5.8712,-6.0015,-6.1429,-6.1906,-6.2108,-6.2108,-6.1686,-6.1612,-6.2071,-6.1686,-6.1814,-6.2743,-6.1594,-6.075,-6.0419,-5.9881,-5.9208,-5.8397,-5.8674,-5.8913,-5.9103,-5.9103,-5.946,-6.0103,-6.0103,-6.0351,-6.08,-6.08,-6.08,-6.08,-6.08,-6.08,-6.08,0.0,0.0,0.0,0.0,-6.0473,-5.9877,-5.8704,-5.7973,-5.7338,-5.6088,-5.5703,-5.5703,-5.5703,-5.5703,-5.5703,-5.5703,-5.5703,-5.5703,-5.5703,-5.5703,-5.5703,-5.5703,-5.5338,-5.4664,-5.3472,-5.2799,-5.2106,-5.0943,-5.0712,0.0,-5.0712,-5.0712,-5.0712,-5.0712,-5.0712,-5.0385,-4.951,-4.9086,-4.8355,-4.7038,-4.6567,-4.6144,-4.5633,-4.5594,0.0,0.0,0.0,-4.3816,-4.2739,-4.145,0.0,0.0,0.0,0.0,0.0,0.0,0.0,0.0,-3.3987,-3.3487,0.0,0.0,0.0,0.0,0.0,0.0,0.0,0.0,0.0,0.0,0.0,0.0,0.0,0.0,0.0,0.0,-5.5959,-5.7886,-6.0217,-6.1227,-6.1741,-6.1741,-6.2383,-6.278,-6.278,-6.278,-6.278,-6.278,-6.278,-6.278,-6.278,-6.2034,0.0,0.0,0.0,-5.8897,-5.8092,-5.8142,-5.8372,-5.8795,-5.8795,-5.923,-6.0103,-6.0103,-6.0351,-6.08,-6.08,-6.08,-6.08,-6.08,-6.08,-6.08,-6.08,-6.08,-6.08,-6.08,-6.08,-6.055,-5.8877,0.0,0.0,-5.6261,-5.5703,-5.5703,-5.5703,-5.5703,-5.5703,-5.5703,-5.5703,-5.5703,-5.5703,-5.5703,-5.5703,-5.5703,-5.5703,-5.5261,-5.3683,-5.328,-5.2741,-5.1144,-5.077,-5.0712,-5.0712,-5.0712,-5.0712,-5.0712,-5.0712,-5.0385,-4.951,-4.8721,-4.7952,-4.7115,-4.6259,0.0,-4.5748,-4.5671,-4.5556,-4.546,-4.472,-4.3239,-4.09,-4.0189,-3.9765,-3.9592,-3.9688,-4.0412,-4.1788,-4.1904,-4.1981,-4.197,-3.7257,-3.6276,0.0,0.0,0.0,0.0,0.0,0.0,0.0,0.0,0.0,0.0,0.0,0.0,0.0,0.0,0.0,-5.4966,-5.7262,-5.9331,-6.1117,-6.2071,-6.2585,-6.2585,-6.2713,-6.278,-6.278,-6.278,-6.278,-6.278,-6.278,-6.278,-6.278,-6.2034,-6.1227,-6.0438,-5.9997,-5.9364,-5.8568,-5.8951,-5.9158,-5.9248,-5.9248,0.0,-6.0103,-6.0103,-6.0351,-6.08,-6.08,-6.08,-6.08,-6.08,-6.08,-6.08,-6.08,-6.08,-6.08,-6.08,-6.08,-6.055,-5.8877,-5.83,-5.8011,-5.6261,-5.5703,-5.5703,-5.5703,-5.5703,0.0,-5.5703,-5.5703,-5.5703,-5.5703,-5.5703,-5.5703,-5.5703,-5.5703,-5.5434,-5.4453,-5.3703,-5.2895,-5.1865,-5.1144,-5.0712,-5.0712,-5.0712,-5.0712,-5.0712,-5.0712,-5.0385,-4.951,-4.924,-4.8817,-4.7971,-4.7144,-4.6644,-4.6644,-4.599,-4.5306,-4.4605,-4.4393,-4.3797,-4.2643,-4.3066,-4.2701,-4.1335,-4.2008,-4.2181,-4.1788,-4.2508,-4.3181,-4.3758,-4.1431,-4.0585,0.0,0.0,0.0,0.0,0.0,0.0,0.0,0.0,0.0,0.0,0.0,-5.1334,-5.2237,0.0,-5.5398,-5.7418,-5.9228,-6.0676,-6.1484,-6.2291,-6.278,-6.278,-6.278,-6.278,-6.278,-6.278,-6.278,-6.278,-6.278,-6.278,-6.278,-6.1667,-6.093,-6.0769,-5.9812,-5.9225,-5.9047,-5.9266,-5.9528,-5.9741,-5.9509,-5.9757,-6.0437,-6.0222,-6.0351,-6.08,-6.08,-6.08,-6.08,-6.08,-6.08,-6.08,-6.08,-6.08,-6.08,-6.08,-6.08,-6.055,-5.8877,-5.83,-5.8011,-5.6261,-5.5703,-5.5703,-5.5703,-5.5703,-5.5703,-5.5703,-5.5703,-5.5703,-5.5703,-5.5703,-5.5703,-5.5703,-5.5703,-5.5472,-5.4664,-5.4164,-5.3472,-5.2154,-5.1587,-5.1164,-5.077,-5.0712,-5.0712,-5.0712,-5.0712,-5.0539,-5.0106,-4.9663,-4.9221,-4.8798,-4.8009,-4.7509,-4.7509,-4.674,-4.5874,-4.5017,-4.496,-4.4566,-4.3739,-4.4085,-4.3912,-4.3066,-4.3489,-4.3701,-4.3701,-4.4143,-4.4547,-4.494,-4.4085,-4.3701,0.0,0.0,0.0,0.0,0.0,0.0,0.0,-4.926,-5.0826,-5.1549,-5.316,-5.4825,-5.6137,-5.7026,-5.8125,-5.9853,-6.0964,-6.1649,-6.1814,-6.2401,-6.2725,-6.2603,-6.2688,-6.278,-6.278,-6.278,-6.278,-6.278,-6.278,-6.278,-6.278,-6.1282,-6.0628,-6.109,-5.9531,-5.8971,-5.9545,-5.9545,-5.9773,-6.0236,-5.9855,-6.0069,-6.08,-6.0411,-6.0437,-6.08,-6.08,-6.08,-6.08,-6.08,-6.08,-6.08,-6.08,-6.08,-6.08,-6.08,-6.08,-6.055,-5.8877,-5.83,-5.8011,-5.6261,-5.5703,-5.5703,-5.5703,-5.5703,-5.5703,-5.5703,-5.5703,-5.5703,-5.5703,-5.5703,-5.5703,-5.5703,-5.5703,-5.5511,-5.4876,-5.4607,-5.4087,-5.2673,-5.2135,-5.1692,-5.1029,-5.0808,-5.0712,-5.0712,-5.0712,-5.0712,-5.0712,-5.0087,-4.9644,-4.9644,-4.8875,-4.8279,-4.8105,-4.7509,-4.6836,-4.6133,-4.6095,-4.5701,-4.4836,-4.4816,-4.472,-4.4566,-4.4547,-4.4893,-4.5594,-4.5594,-4.5594,-4.5594,-4.5594,-4.5594,-4.9163,-4.7317,-4.6249,-4.8317,-4.8971,-5.0279,0.0,-5.5348,-5.5453,-5.7055,-5.8143,-5.8734,-5.8515,-5.9398,-6.0341,-6.0878,-6.1334,-6.1851,-6.2585,-6.2725,-6.2548,-6.1814,-6.2383,-6.278,-6.278,-6.278,-6.278,-6.278,-6.278,-6.278,-6.278,-6.1282,-6.0628,-6.109,-5.9531,-5.914,-6.001,-6.0025,-6.025,-6.0714,-6.0678,-6.069,-6.08,-6.0746,-6.0757,-6.08,-6.08,-6.08,-6.08,-6.08,-6.08,-6.08,-6.08,-6.08,-6.08,-6.08,-6.08,-6.055,-5.8877,-5.83,-5.8011,-5.6261,-5.5703,-5.5703,-5.5703,-5.5703,-5.5703,-5.5703,-5.5703,-5.5703,-5.5703,-5.5703,-5.5703,-5.5703,-5.5703,-5.5684,-5.5588,-5.4991,-5.4434,-5.4241,-5.2972,-5.1865,-5.1769,-5.1164,-5.0712,-5.0712,-5.0712,-5.0712,-5.0712,-5.0616,-5.0558,-5.0558,-4.976,-4.8933,-4.8163,-4.8029,-4.7932,-4.7836,-4.7817,-4.7471,-4.6644,-4.6605,-4.6259,-4.5479,-4.546,-4.5498,-4.5594,-4.5594,-4.5594,-4.5594,-4.5594,-4.5594,-5.1856,-5.0452,-4.9529,-5.0587,-5.1972,-5.3626,-5.5761,-5.6742,-5.755,-5.8742,-5.9665,-6.0207,-6.0003,-6.0942,-6.1694,-6.1544,-6.2468,-6.3133,-6.2849,-6.2662,-6.2336,-6.1679,-6.1484,-6.1594,-6.2053,-6.2108,-6.231,-6.2743,-6.278,-6.278,-6.278,-6.1282,-6.0628,-6.109,-5.9531,-5.9158,-6.0084,-6.0103,-6.0338,-6.08,-6.08,-6.08,-6.08,-6.08,-6.08,-6.08,-6.08,-6.08,-6.08,-6.08,-6.08,-6.08,-6.08,-6.08,-6.08,-6.08,-6.08,-6.055,-5.8877,-5.83,-5.8011,-5.6261,-5.5703,-5.5703,-5.5703,-5.5703,-5.5703,-5.5703,-5.5703,-5.5703,-5.5703,-5.5703,-5.5703,-5.5703,-5.5703,-5.5703,-5.5703,-5.5434,-5.5049,-5.4587,-5.3914,-5.326,-5.2731,-5.1972,-5.1395,-5.1395,-5.0991,-5.0712,-5.0712,-5.0712,-5.0712,-5.0712,-5.0366,-4.9798,-4.8933,-4.8856,-4.8644,-4.8125,-4.8105,-4.7952,-4.7605,-4.7154,-4.674,-4.6355,-4.5864,-4.5594,-4.5594,-4.5594,-4.5594,-4.5614,-4.6124,-4.6355,-5.2741,-5.2222,-5.2077,-5.2769,-5.4703,-5.6472,-5.6703,-5.7915,-5.9146,-5.9742,-6.0358,-6.08,-6.08,-6.1584,-6.2145,-6.1841,-6.3068,-6.3721,-6.2793,-6.2509,-6.2063,-6.1223,-6.0496,-6.0309,-6.0878,-6.1135,-6.1594,-6.242,-6.2475,-6.2585,-6.278,-6.1282,-6.0628,-6.109,-5.9404,-5.8971,-5.9901,-5.9901,-6.0146,-6.061,-6.0746,-6.08,-6.08,-6.08,-6.08,-6.08,-6.08,-6.08,-6.08,-6.08,-6.08,-6.08,-6.08,-6.08,-6.08,-6.08,-6.08,-6.0589,-5.9146,-5.8492,-5.805,-5.6549,-5.5895,-5.5703,-5.5703,-5.5857,-5.6011,-5.5761,-5.5857,-5.5992,-5.5761,-5.5703,-5.5703,-5.5703,-5.5703,-5.5703,-5.5703,-5.5703,-5.553,-5.4934,-5.4645,-5.4299,-5.3664,-5.2635,-5.1904,-5.1904,-5.1221,-5.0712,-5.0712,-5.0712,-5.0712,-5.0712,-5.0712,-5.0442,-4.9798,-4.976,-4.949,-4.8856,-4.8817,-4.8702,-4.8471,-4.7894,-4.749,-4.724,-4.6605,-4.6278,-4.6278,-4.6278,-4.6278,-4.6297,-4.6932,-4.7231,-5.0991,-5.1337,-5.2481,-5.4972,-5.6915,-5.8434,-5.9204,-6.0089,-6.0723,-6.0762,-6.0781,-6.08,-6.08,-6.1092,-6.1444,-6.1747,-6.256,-6.2955,-6.2404,-6.2361,-6.1787,-6.0162,-5.9534,-5.9239,-5.9258,-5.9997,-6.0768,-6.1575,-6.163,-6.1979,-6.2768,-6.1282,-6.0628,-6.109,-5.9109,-5.8463,-5.9407,-5.9407,-5.9661,-6.0132,-6.0578,-6.08,-6.08,-6.08,-6.08,-6.08,-6.08,-6.08,-6.08,-6.08,-6.08,-6.08,-6.08,-6.08,-6.08,-6.08,-6.08,-6.0666,-5.9762,-5.8954,-5.8146,-5.7253,-5.6387,-5.5703,-5.5703,-5.6291,-5.6791,-5.5934,-5.631,-5.6772,-5.5915,-5.5703,-5.5703,-5.5703,-5.5703,-5.5703,-5.5703,-5.5703,-5.5684,-5.5665,-5.503,-5.4491,-5.4472,-5.3049,-5.1904,-5.1904,-5.1221,-5.0712,-5.0712,-5.0712,-5.0712,-5.0712,-5.0712,-5.0693,-5.0654,-5.0654,-5.0654,-5.0616,-5.0616,-5.025,-4.9394,-4.9336,-4.8933,-4.8086,-4.8048,-4.8029,-4.8029,-4.8029,-4.8029,-4.8029,-4.8048,-4.8067,-5.2279,-5.3376,-5.4895,-5.6915,-5.8261,-5.9319,-6.0165,-6.0589,-6.08,-6.08,-6.0339,-6.0108,-6.0685,-6.0896,-6.1073,-6.1406,-6.2944,-6.3794,-6.2937,-6.286,-6.2329,-6.0936,-5.9833,-5.8982,-5.8455,-5.9134,-5.9942,-6.075,-6.13,-6.1484,-6.1227,-6.0694,-6.0239,-5.9835,-5.8621,-5.8286,-5.8932,-5.923,-5.9644,-6.0118,-6.0578,-6.08,-6.08,-6.08,-6.08,-6.08,-6.08,-6.08,-6.08,-6.08,-6.08,-6.08,-6.08,-6.08,-6.08,-6.08,-6.08,-6.0685,-5.98,-5.9319,-5.8954,-5.8127,-5.7261,-5.6676,-5.7242,-5.7223,-5.706,-5.7338,-5.7646,-5.7665,-5.6791,-5.656,-5.6426,-5.5838,-5.5703,-5.5703,-5.5703,-5.5703,-5.5703,-5.5703,-5.5472,-5.5299,-5.5299,-5.4376,-5.3433,-5.2856,-5.1587,-5.0712,-5.0712,-5.0712,-5.0712,-5.0712,-5.0712,-5.0712,-5.0712,-5.0712,-5.0712,-5.0712,-5.0712,-5.0577,-5.0269,-4.9702,-4.926,-4.8971,-4.8394,-4.8105,-4.8105,-4.8105,-4.8105,-4.8105,-4.8682,-4.8952,-5.4068,-5.5338,-5.6646,-5.8684,-5.9588,-6.0108,-6.0666,-6.08,-6.0704,-6.0396,-5.9665,-5.9146,-5.9396,-5.9184,-5.9278,-6.0251,-6.2002,-6.3173,-6.295,-6.2921,-6.2459,-6.1165,-5.9847,-5.8739,-5.8075,-5.8602,-5.9292,-5.9905,-6.0456,-6.0639,-6.0419,-6.0144,-5.9716,-5.9221,-5.8419,-5.8123,-5.8461,-5.9084,-5.9725,-6.0351,-6.0666,-6.08,-6.08,-6.08,-6.08,-6.08,-6.08,-6.08,-6.08,-6.08,-6.08,-6.08,-6.08,-6.08,-6.08,-6.08,-6.08,-6.0723,-6.0165,-5.9762,-5.9415,-5.8896,-5.8165,-5.7569,-5.8127,-5.8107,-5.7953,-5.8223,-5.8511,-5.8454,-5.7311,-5.7003,-5.6791,-5.5915,-5.5703,-5.5703,-5.5703,-5.5703,-5.5703,-5.5703,-5.5703,-5.5703,-5.5703,-5.503,-5.4203,-5.3337,-5.2279,-5.1471,-5.1164,-5.0875,-5.0712,-5.0712,-5.0712,-5.0712,-5.0712,-5.0712,-5.0712,-5.0712,-5.0712,-5.0712,-5.0712,-5.0164,-4.9856,-4.9856,-4.9317,-4.9029,-4.9029,-4.9029,-4.9029,-4.9048,-4.9606,-4.9856,-5.6145,-5.7137,-5.7772,-6.0204,-6.08,-6.08,-6.08,-6.0762,-6.0492,-5.9627,-5.8723,-5.7857,-5.7022,-5.6233,-5.6372,-5.8391,-5.9965,-6.1326,-6.247,-6.2692,-6.2249,-6.0968,-5.9684,-5.8675,-5.812,-5.8452,-5.8855,-5.9149,-5.9213,-5.9543,-6.0236,-5.9588,-5.9166,-5.9129,-5.84,-5.7997,-5.7997,-5.8914,-5.987,-6.08,-6.08,-6.08,-6.08,-6.08,-6.08,-6.08,-6.08,-6.08,-6.08,-6.08,-6.08,-6.08,-6.08,-6.08,-6.08,-6.08,-6.08,-6.08,-6.08,-6.0262,-5.9569,-5.9569,-5.9031,-5.8377,-5.8415,-5.8934,-5.9358,-5.8627,-5.8973,-5.9184,-5.7503,-5.708,-5.6849,-5.5915,-5.5703,-5.5703,-5.5703,-5.5703,-5.5703,-5.5703,-5.5703,-5.5703,-5.5703,-5.5068,-5.428,-5.3453,-5.3299,-5.2953,-5.2077,-5.1298,-5.0827,-5.0827,-5.0789,-5.077,-5.077,-5.0731,-5.0712,-5.0712,-5.0712,-5.0712,-5.0712,-5.0712,-5.0712,-5.0712,-5.0712,-5.0712,-5.0712,-5.0712,-5.0712,-5.0712,-5.0712,-5.0712,-5.7376,-5.8877,-5.9992,-6.0627,-6.08,-6.08,-6.08,-6.03,-5.9608,-5.8781,-5.6934,-5.5395,-5.5184,-5.5453,-5.6085,-5.7263,-6.0395,-6.2764,-6.3079,-6.3886,-6.3965,-6.2649,-6.1875,-6.0772,-5.9053,-5.9016,-5.8999,-5.8837,-5.9377,-5.9405,-5.8644,-5.9006,-5.8927,-5.8327,-5.8107,-5.7997,-5.7997,-5.8914,-5.987,-6.08,-6.08,-6.08,-6.08,-6.08,-6.08,-6.08,-6.08,-6.08,-6.08,-6.08,-6.08,-6.08,-6.08,-6.08,-6.08,-6.08,-6.08,-6.08,-6.08,-6.0646,-6.0473,-6.0473,-5.9896,-5.9319,-5.9973,-5.9858,-5.9588,-6.0031,-6.03,-6.0069,-5.8396,-5.7973,-5.7588,-5.6049,-5.5703,-5.5703,-5.5703,-5.5703,-5.5703,-5.5703,-5.5703,-5.5703,-5.5703,-5.553,-5.5318,-5.5107,-5.4549,-5.3857,-5.2991,-5.2683,-5.2568,-5.2568,-5.1991,-5.1587,-5.1587,-5.1029,-5.0712,-5.0712,-5.0712,-5.0712,-5.0712,-5.0712,-5.0712,-5.0712,-5.0712,-5.0712,-5.0712,-5.0712,-5.0712,-5.0712,-5.0712,-5.0712,-5.8934,-6.0089,-6.08,-6.08,-6.08,-6.0512,-5.9377,-5.905,-5.8319,-5.5972,-5.4357,-5.3126,-5.2395,-5.2933,-5.403,-5.5637,-5.8838,-6.1615,-6.3077,-6.3871,-6.4095,-6.3512,-6.2711,-6.1616,-6.0222,-5.9727,-5.9434,-5.9231,-5.9115,-5.8853,-5.8344,-5.8538,-5.8474,-5.8015,-5.7997,-5.8097,-5.8326,-5.9028,-5.9757,-6.0495,-6.0702,-6.08,-6.08,-6.08,-6.08,-6.08,-6.08,-6.08,-6.08,-6.08,-6.08,-6.08,-6.08,-6.08,-6.08,-6.08,-6.08,-6.08,-6.08,-6.08,-6.08,-6.08,-6.0473,-6.0165,-6.0646,-6.0454,-6.0165,-6.0666,-6.08,-6.0492,-5.9165,-5.8569,-5.7953,-5.6588,-5.5972,-5.5703,-5.5703,-5.5703,-5.5703,-5.5703,-5.5703,-5.5703,-5.5703,-5.5703,-5.5703,-5.5703,-5.5318,-5.4857,-5.4357,-5.3664,-5.3203,-5.3203,-5.275,-5.2462,-5.2462,-5.2068,-5.1798,-5.1798,-5.1798,-5.1798,-5.1798,-5.1798,-5.1798,-5.1798,-5.1414,-5.1221,-5.1221,-5.0856,-5.0712,-5.0712,-5.0712,-5.0894,-6.0358,-6.08,-6.08,-6.08,-6.0704,-6.0012,-5.7715,-5.7492,-5.6684,-5.2712,-5.1635,-5.0923,-4.9356,-4.9952,-5.1501,-5.3933,-5.6646,-5.9569,-6.2704,-6.3339,-6.3578,-6.3859,-6.2947,-6.209,-6.1508,-6.0711,-6.0189,-6.0106,-5.8949,-5.8371,-5.8674,-5.8307,-5.807,-5.7997,-5.7997,-5.826,-5.8795,-5.9213,-5.9677,-6.0208,-6.061,-6.08,-6.08,-6.08,-6.08,-6.08,-6.08,-6.08,-6.08,-6.08,-6.08,-6.08,-6.08,-6.08,-6.08,-6.08,-6.08,-6.08,-6.08,-6.08,-6.08,-6.08,-6.08,-6.08,-6.08,-6.08,-6.08,-6.08,-6.08,-6.0589,-5.9723,-5.8973,-5.8242,-5.7376,-5.6588,-5.6049,-5.6049,-5.5953,-5.5857,-5.5857,-5.578,-5.5703,-5.5703,-5.5703,-5.5703,-5.5703,-5.5703,-5.5703,-5.5703,-5.4434,-5.353,-5.353,-5.3433,-5.3376,-5.3376,-5.328,-5.3203,-5.3203,-5.3203,-5.3203,-5.3203,-5.3203,-5.3203,-5.3203,-5.2462,-5.2077,-5.2077,-5.1375,-5.1039,-5.1039,-5.1039,-5.1414,-6.0531,-6.08,-6.08,-6.08,-6.0262,-5.9435,-5.8338,-5.6569,0.0,-5.2346,-5.0212,-4.8471,-4.7509,-4.9183,-5.1298,-5.3126,-5.6722,-5.9992,-6.2012,-6.3493,-6.425,-6.3867,-6.4254,-6.4097,-6.288,-6.2283,-6.1746,-6.1191,-6.0172,-5.9316,-5.8732,-5.8632,-5.8397,-5.802,-5.7997,-5.8418,-5.9266,-5.9354,-5.9839,-6.0678,-6.0757,-6.08,-6.08,-6.08,-6.08,-6.08,-6.08,-6.08,-6.08,-6.08,-6.08,-6.08,-6.08,-6.08,-6.08,-6.08,-6.08,-6.08,-6.08,-6.08,-6.08,-6.08,-6.08,-6.08,-6.08,-6.08,-6.08,-6.08,-6.08,-6.0589,-5.9723,-5.9396,-5.9088,-5.8261,-5.7953,-5.7857,-5.7857,-5.728,-5.6772,-5.6772,-5.6195,-5.5703,-5.5703,-5.5703,-5.5703,-5.5703,-5.5703,-5.5703,-5.5703,-5.5453,-5.5261,-5.5261,-5.4664,-5.426,-5.426,-5.3606,-5.3203,-5.3203,-5.3203,-5.3203,-5.3203,-5.3203,-5.3203,-5.3203,-5.3049,-5.2972,-5.2972,-5.2837,-5.2779,-5.2779,-5.2779,-5.2837,-6.1243,-6.1146,-6.0916,-6.1358,-6.0473,-5.8819,-5.6242,0.0,0.0,-4.9336,-4.8009,-4.7221,-4.6374,-4.7932,-4.9913,-5.1625,-5.3953,-5.6761,-6.0262,-6.1435,-6.2509,-6.4047,-6.4741,-6.4864,-6.4194,-6.2918,-6.2108,-6.2041,-6.0776,-5.9841,-5.9462,-5.8971,-5.8484,-5.8001,-5.7997,-5.8329,-5.9028,-5.9266,-5.9741,-6.0437,-6.069,-6.08,-6.08,-6.08,-6.08,-6.08,-6.08,-6.08,-6.08,-6.08,-6.08,-6.08,-6.08,-6.08,-6.08,-6.08,-6.08,-6.08,-6.08,-6.08,-6.08,-6.08,-6.08,-6.08,-6.08,-6.08,-6.08,-6.08,-6.08,-6.0704,-6.0281,-5.9838,-5.9396,-5.9031,-5.8607,-5.83,-5.83,-5.7973,-5.7684,-5.7684,-5.7338,-5.7049,-5.7049,-5.7049,-5.7049,-5.7049,-5.6665,-5.6387,-5.6387,-5.5972,-5.5703,-5.5703,-5.5338,-5.5126,-5.5126,-5.4741,-5.4491,-5.4491,-5.4491,-5.4491,-5.4491,-5.4491,-5.4491,-5.4491,-5.4087,-5.3876,-5.3876,-5.3414,-5.3203,-5.3203,-5.3203,-5.3433,-6.1639,-6.132,-6.0954,-6.1658,-6.0512,-5.8223,-5.4357,-5.3068,0.0,-4.6817,-4.6278,-4.6413,-4.5729,-4.6836,-4.8413,-5.0144,-5.1414,-5.3769,-5.8319,-5.9435,-6.0839,-6.3724,-6.4454,-6.4722,-6.4722,-6.309,-6.2172,-6.2466,-6.1096,-6.0208,-6.0118,-5.9213,-5.8526,-5.8146,-5.8047,-5.8282,-5.8835,-5.9231,-5.9693,-6.025,-6.0622,-6.08,-6.08,-6.08,-6.08,-6.08,-6.08,-6.08,-6.08,-6.08,-6.08,-6.08,-6.08,-6.08,-6.08,-6.08,-6.08,-6.08,-6.08,-6.08,-6.08,-6.08,-6.08,-6.08,-6.08,-6.08,-6.08,-6.08,-6.08,-6.08,-6.08,-6.0281,-5.9781,-5.9781,-5.93,-5.8838,-5.8838,-5.8684,-5.8569,-5.8569,-5.8415,-5.83,-5.83,-5.83,-5.83,-5.83,-5.7723,-5.7291,-5.7291,-5.6684,-5.6184,-5.5992,-5.5799,-5.5703,-5.5703,-5.5703,-5.5703,-5.5703,-5.5703,-5.5703,-5.5703,-5.5703,-5.5703,-5.5703,-5.5068,-5.4761,-5.4761,-5.4068,-5.3741,-5.3741,-5.3741,-5.4107,-6.0896,-6.0858,-6.0819,-6.0896,-5.9646,-5.7703,-5.4991,0.0,-5.0144,-4.7355,-4.6201,-4.571,-4.5614,-4.6374,-4.7567,-4.924,0.0,-5.4049,-5.6849,-5.9223,-6.1089,-6.2197,-6.3007,-6.3463,-6.3463,-6.2897,-6.2423,-6.2182,-6.1265,-6.0553,-6.0132,-5.9213,-5.8674,-5.8652,-5.8216,-5.8439,-5.9319,-5.9372,-5.9855,-6.0746,-6.0788,-6.08,-6.08,-6.08,-6.08,-6.08,-6.08,-6.08,-6.08,-6.08,-6.08,-6.08,-6.08,-6.08,-6.08,-6.08,-6.08,-6.08,-6.08,-6.08,-6.08,-6.08,-6.08,-6.08,-6.08,-6.08,-6.08,-6.08,-6.08,-6.08,-6.08,-6.0742,-6.0685,-6.0685,-6.0608,-6.0569,-6.0569,-5.9954,-5.9396,-5.9396,-5.88,-5.83,-5.83,-5.83,-5.83,-5.83,-5.8223,-5.8184,-5.8184,-5.8107,-5.7761,-5.6964,-5.6165,-5.5703,-5.5703,-5.5703,-5.5703,-5.5703,-5.5703,-5.5703,-5.5703,-5.5703,-5.5703,-5.5703,-5.5626,-5.5588,-5.5588,-5.5511,-5.5472,-5.5472,-5.5472,-5.5511,-6.1177,-6.1204,-6.0935,-6.1447,-5.9935,-5.7511,-5.4414,-5.2145,-4.9827,-4.674,-4.5845,-4.5594,-4.5594,-4.5874,-4.6509,-4.7702,-4.8317,-4.9702,-5.279,-5.4491,-5.653,-5.9454,-6.0993,-6.2185,-6.3192,-6.2695,-6.2036,-6.1377,-6.0993,-6.0714,-6.054,-5.9644,-5.899,-5.8715,-5.8238,-5.8461,-5.9389,-5.9389,-5.987,-6.08,-6.08,-6.08,-6.08,-6.08,-6.08,-6.08,-6.08,-6.08,-6.08,-6.08,-6.08,-6.08,-6.08,-6.08,-6.08,-6.08,-6.08,-6.08,-6.08,-6.08,-6.08,-6.08,-6.08,-6.08,-6.08,-6.08,-6.08,-6.08,-6.08,-6.08,-6.08,-6.08,-6.08,-6.08,-6.08,-6.08,-6.08,-6.0531,-6.0281,-6.0281,-6.0012,-5.98,-5.98,-5.98,-5.98,-5.98,-5.9358,-5.9031,-5.9031,-5.8607,-5.8165,-5.7819,-5.7473,-5.6838,-5.578,-5.6665,-5.6819,-5.5761,-5.6195,-5.6252,-5.5722,-5.5703,-5.5703,-5.5703,-5.5703,-5.5703,-5.5703,-5.5703,-5.5703,-5.5703,-5.5703,-5.5703,-6.0704,-6.1069,-6.0954,-6.1562,-5.98,-5.7088,-5.3914,-5.1702,-4.9423,-4.6249,-4.5594,-4.5594,-4.5594,-4.5594,-4.5806,0.0,-4.6413,-4.7364,-5.0289,-5.1606,-5.3577,-5.7107,-5.88,-6.0242,-6.1685,-6.1762,-6.1466,-6.0839,-6.08,-6.08,-6.08,-5.9901,-5.9248,-5.8932,-5.8442,-5.8591,-5.9389,-5.9389,-5.987,-6.08,-6.08,-6.08,-6.08,-6.08,-6.08,-6.08,-6.08,-6.08,-6.08,-6.08,-6.08,-6.08,-6.08,-6.08,-6.08,-6.08,-6.08,-6.08,-6.08,-6.08,-6.08,-6.08,-6.08,-6.08,-6.08,-6.08,-6.08,-6.08,-6.08,-6.08,-6.08,-6.08,-6.08,-6.08,-6.08,-6.08,-6.08,-6.08,-6.08,-6.08,-6.08,-6.08,-6.08,-6.08,-6.08,-6.08,-6.0281,-5.9877,-5.9877,-5.9396,-5.8934,-5.8684,-5.8896,-5.8338,-5.6626,-5.7588,-5.778,-5.6549,-5.7049,-5.7107,-5.6492,-5.6222,-5.6069,-5.6069,-5.5818,-5.5703,-5.5703,-5.5703,-5.5703,-5.5703,-5.5703,-5.5703,-5.9069,-6.0146,-6.08,-6.08,-5.8907,-5.6349,-5.378,-5.1241,-4.8682,-4.6133,-4.5594,-4.5594,-4.5594,-4.5594,-4.5594,-4.5614,-4.699,-4.8682,-5.0462,-5.2145,-5.3818,-5.5511,-5.6503,-5.7376,-5.828,-5.9838,-6.08,-6.08,-6.08,-6.08,-6.08,-5.9901,-5.9389,-5.9389,-5.8951,-5.8932,-5.9408,-5.9389,-5.987,-6.08,-6.08,-6.08,-6.08,-6.08,-6.08,-6.08,-6.08,-6.08,-6.08,-6.08,-6.08,-6.08,-6.08,-6.08,-6.08,-6.08,-6.08,-6.08,-6.08,-6.08,-6.08,-6.08,-6.08,-6.08,-6.08,-6.08,-6.08,-6.08,-6.08,-6.08,-6.08,-6.08,-6.08,-6.08,-6.08,-6.08,-6.08,-6.08,-6.08,-6.08,-6.08,-6.08,-6.08,-6.08,-6.08,-6.08,-6.0781,-6.0781,-6.0781,-6.0781,-6.0435,-5.9588,-6.0262,-6.0108,-5.8415,-5.83,-5.83,-5.828,-5.828,-5.828,-5.828,-5.7434,-5.6983,-5.6983,-5.6126,-5.5703,-5.5703,-5.5703,-5.5703,-5.5703,-5.5703,-5.5703,-5.4895,-5.5838,-5.6357,-5.5742,-5.4549,-5.301,-5.1048,-4.9529,-4.7952,-4.5998,-4.5594,-4.5594,-4.5594,-4.5594,-4.5979,-4.7124,0.0,0.0,-4.9644,-5.1779,-5.3626,-5.4741,-5.7665,-5.9704,-5.9973,-6.0492,-6.08,-6.08,-6.08,-6.08,-6.08,-6.0508,-6.0222,-5.9885,-5.8796,-5.8591,-5.9389,-5.9084,-5.9389,-6.0324,-6.0324,-6.0495,-6.08,-6.08,-6.08,-6.08,-6.08,-6.08,-6.08,-6.08,-6.08,-6.08,-6.08,-6.08,-6.08,-6.08,-6.08,-6.08,-6.08,-6.08,-6.08,-6.08,-6.08,-6.08,-6.08,-6.08,-6.08,-6.08,-6.08,-6.08,-6.08,-6.08,-6.08,-6.08,-6.08,-6.08,-6.08,-6.08,-6.08,-6.08,-6.08,-6.08,-6.08,-6.08,-6.08,-6.08,-6.08,-6.08,-6.08,-6.08,-6.0685,-6.0416,-6.0627,-6.0127,-5.8434,-5.9358,-5.9511,-5.8377,-5.8819,-5.8877,-5.8319,-5.805,-5.7896,-5.7896,-5.7627,-5.7473,-5.7473,-5.7473,-5.7473,-5.7473,-5.7473,-5.7473,0.0,-5.3356,-5.3876,-5.3337,-5.2318,-5.1087,-4.9702,-4.849,-4.7259,-4.5883,-4.5594,-4.5498,-4.5171,-4.5114,-4.5451,-4.6509,-4.6663,-4.7317,-4.9144,-5.1048,-5.3049,-5.5184,-5.805,-5.9973,-6.0281,-6.0608,-6.08,-6.08,-6.08,-6.08,-6.08,-6.0634,-6.0411,-6.0118,-5.9084,-5.8715,-5.914,-5.8835,-5.9176,-6.0103,-6.0103,-6.0338,-6.08,-6.08,-6.08,-6.08,-6.08,-6.08,0.0,-6.08,-6.08,-6.08,-6.08,-6.08,-6.08,-6.08,-6.08,-6.08,-6.08,-6.08,-6.08,-6.08,-6.08,-6.08,-6.08,-6.08,-6.08,-6.08,-6.08,-6.08,-6.08,-6.08,-6.08,-6.08,-6.08,-6.08,-6.08,-6.08,-6.08,-6.08,-6.08,-6.08,-6.08,-6.08,-6.08,-6.08,-6.08,-6.08,-6.08,-6.08,-6.08,-6.08,-6.08,-6.0377,-5.9338,-6.0204,-6.0339,-5.9319,-5.9704,-5.9762,-5.9261,-5.8934,-5.8761,-5.8761,-5.8454,-5.83,-5.83,-5.83,-5.83,-5.83,-5.83,-5.83,0.0,-5.2,-5.2741,-5.2664,-5.1491,-5.0135,-4.9298,-4.7875,0.0,-4.5671,-4.546,-4.521,-4.4509,-4.4335,-4.4374,-4.4624,-4.4662,-4.5797,-4.9029,-5.0394,-5.2597,-5.6791,-5.7992,-5.8781,-5.9511,-6.0319,-6.08,-6.08,-6.08,-6.08,-6.08,-6.0397,-6.0118,-6.0055,-5.9628,-5.9158,-5.8694,-5.8694,-5.9139,-6.0055,-6.0069,-6.0338,-6.08,-6.08,-6.08,-6.08,-6.08,-6.08,-6.08,-6.08,-6.08,-6.08,-6.08,-6.08,-6.08,-6.08,-6.08,-6.08,-6.08,-6.08,-6.08,-6.08,-6.08,-6.08,-6.08,-6.08,-6.08,-6.08,-6.08,-6.08,-6.08,-6.08,-6.08,-6.08,-6.08,-6.08,-6.08,-6.08,-6.08,-6.08,-6.08,-6.08,-6.08,-6.08,-6.08,-6.08,-6.08,-6.08,-6.08,-6.08,-6.08,-6.08,-6.08,-6.08,-6.08,-6.08,-6.08,-6.08,-6.08,-6.08,-6.08,-6.0012,-5.9588,-5.9588,-5.8858,-5.8492,-5.8492,-5.8492,-5.8492,-5.8492,-5.8492,-5.8492,-4.5124,0.0,-4.8221,-4.7548,-4.7095,-4.6749,0.0,-4.5663,-4.4855,-4.4643,-4.4124,-4.4008,-4.5094,-4.4739,-4.5163,-4.7778,-4.8202,-4.8702,-5.0192,-5.2779,-5.5857,-5.9473,-6.0089,-6.0281,-6.0473,-6.0685,-6.08,-6.08,-6.08,-6.08,-6.08,-6.069,-6.0311,-5.9595,-5.946,-5.9158,-5.8694,-5.8694,-5.899,-5.9578,-5.9916,-6.0338,-6.08,-6.08,-6.08,-6.08,-6.08,-6.08,-6.08,-6.08,-6.08,-6.08,-6.08,-6.08,-6.08,-6.08,-6.08,-6.08,-6.08,-6.08,-6.08,-6.08,-6.08,-6.08,-6.08,-6.08,-6.08,-6.08,-6.08,-6.08,-6.08,-6.08,-6.08,-6.08,-6.08,-6.08,-6.08,-6.08,-6.08,-6.08,-6.08,-6.08,-6.08,-6.08,-6.08,-6.08,-6.08,-6.08,-6.08,-6.08,-6.08,-6.08,-6.08,-6.08,-6.08,-6.08,-6.08,-6.08,-6.08,-6.08,-6.08,-6.0589,-6.0492,-6.0492,-6.03,-6.0204,-6.0204,-6.0204,-6.0204,-6.0204,-6.0204,-6.0204,-4.3316,-4.4662,-4.6086,-4.522,-4.5306,-4.5498,-4.5094,0.0,0.0,0.0,-4.3393,-4.3374,-4.4278,-4.4066,-4.4605,-4.7221,-4.7663,-4.8779,-5.1991,-5.5011,-5.7857,-6.0492,-6.08,-6.08,-6.08,-6.08,-6.08,-6.08,-6.08,-6.08,-6.08,-6.08,-6.0469,-5.9741,-5.9509,-5.9065,-5.8394,-5.8591,-5.8951,-5.9425,-5.9885,-6.0338,-6.08,-6.08,-6.08,-6.08,-6.08,-6.08,-6.08,-6.08,-6.08,-6.08,-6.08,-6.08,-6.08,-6.08,-6.08,-6.08,-6.08,-6.08,-6.08,-6.08,-6.08,-6.08,-6.08,-6.08,-6.08,-6.08,-6.08,-6.08,-6.08,-6.08,-6.08,-6.08,-6.08,-6.08,-6.08,-6.08,-6.08,-6.08,-6.08,-6.08,-6.08,-6.08,-6.08,-6.08,-6.08,-6.08,-6.08,-6.08,-6.08,-6.08,-6.08,-6.08,-6.08,-6.08,-6.08,-6.08,-6.08,-6.08,-6.08,-6.08,-6.08,-6.08,-6.08,-6.08,-6.08,-6.08,-6.08,-6.08,-6.08,-6.08,-4.3258,-4.4316,-4.5402,-4.4509,-4.496,-4.5421,-4.4662,0.0,0.0,0.0,0.0,-4.3181,-4.3431,-4.3585,-4.422,-4.5922,-4.6518,-4.8702,-5.4299,-5.6934,-5.8915,-6.0589,-6.08,-6.08,-6.08,-6.08,-6.08,-6.08,-6.08,-6.08,-6.08,-6.08,-6.0578,-6.0099,-5.9644,-5.8971,-5.8119,-5.8505,-5.8951,-5.9425,-5.9885,-6.0338,-6.08,-6.08,-6.08,-6.08,-6.08,-6.08,-6.08,-6.08,-6.08,-6.08,-6.08,-6.08,-6.08,-6.08,-6.08,-6.08,-6.08,-6.08,-6.08,-6.08,-6.08,-6.08,-6.08,-6.08,-6.08,-6.08,-6.08,-6.08,-6.08,-6.08,-6.08,-6.08,-6.08,-6.08,-6.08,-6.08,-6.08,-6.08,-6.08,-6.08,-6.08,-6.08,-6.08,-6.08,-6.08,-6.08,-6.08,-6.08,-6.08,-6.08,-6.08,-6.08,-6.08,-6.08,-6.08,-6.08,-6.08,-6.08,-6.08,-6.08,-6.08,-6.08,-6.08,-6.08,-6.08,-6.08,-6.08,-6.08,-6.08,-6.08,-4.2931,-4.4316,-4.5402,-4.4509,-4.496,-4.5556,-4.5441,0.0,0.0,0.0,0.0,0.0,-4.496,-4.5817,-4.6874,-4.8529,-5.0625,-5.3356,-5.7184,-5.805,-5.8915,-6.0589,-6.08,-6.08,-6.08,-6.08,-6.08,-6.08,-6.08,-6.08,-6.08,-6.08,-6.0578,-6.0099,-5.9644,-5.914,-5.8591,-5.8654,-5.8951,-5.9425,-5.9885,-6.0338,-6.08,-6.08,-6.08,-6.08,-6.08,-6.08,-6.08,-6.08,-6.08,-6.08,-6.08,-6.08,-6.08,-6.08,-6.08,-6.08,-6.08,-6.08,-6.08,-6.08,-6.08,-6.08,-6.08,-6.08,-6.08,-6.08,-6.08,-6.08,-6.08,-6.08,-6.08,-6.08,-6.08,-6.08,-6.08,-6.08,-6.08,-6.08,-6.08,-6.08,-6.08,-6.08,-6.08,-6.08,-6.08,-6.08,-6.08,-6.08,-6.08,-6.08,-6.08,-6.08,-6.08,-6.08,-6.08,-6.08,-6.08,-6.08,-6.08,-6.08,-6.08,-6.08,-6.08,-6.08,-6.08,-6.08,-6.08,-6.08,-6.08,-6.08,-4.1835,-4.2951,-4.4259,-4.4297,-4.5643,-4.6701,-4.5806,-4.494,0.0,0.0,0.0,0.0,-4.5287,-4.6317,-4.7913,-5.0952,-5.3587,-5.5972,-5.8011,-5.8665,-5.9415,-6.0646,-6.08,-6.08,-6.08,-6.08,-6.08,-6.08,-6.08,-6.08,-6.08,-6.08,-6.0578,-6.0099,-5.9644,-5.9158,-5.8694,-5.8461,-5.8674,-5.9425,-5.9885,-6.0338,-6.08,-6.08,-6.08,-6.08,-6.08,-6.08,-6.08,-6.08,-6.08,-6.08,-6.08,-6.08,-6.08,-6.08,-6.08,-6.08,-6.08,-6.08,-6.08,-6.08,-6.08,-6.08,-6.08,-6.08,-6.08,-6.08,-6.08,-6.08,-6.08,-6.08,-6.08,-6.08,-6.08,-6.08,-6.08,-6.08,-6.08,-6.08,-6.08,-6.08,-6.08,-6.08,-6.08,-6.08,-6.08,-6.08,-6.08,-6.08,-6.08,-6.08,-6.08,-6.08,-6.08,-6.08,-6.08,-6.08,-6.08,-6.08,-6.08,-6.08,-6.08,-6.08,-6.08,-6.08,-6.08,-6.08,-6.08,-6.08,-6.08,-6.08,-4.1651,-4.2354,-4.3585,-4.4393,-4.6067,-4.7336,-4.6653,-4.5817,-4.5316,-4.5701,-4.5316,-4.5201,-4.6287,-4.7528,-4.9702,-5.3741,-5.6184,-5.7877,-5.8761,-5.9415,-6.005,-6.0723,-6.08,-6.08,-6.08,-6.08,-6.08,-6.08,-6.08,-6.08,-6.08,-6.08,-6.0578,-6.0099,-5.9644,-5.9082,-5.8415,-5.794,-5.8278,-5.9407,-5.9757,-6.0236,-6.08,-6.08,-6.08,-6.08,-6.08,-6.08,-6.08,-6.08,-6.08,-6.08,-6.08,-6.08,-6.08,-6.08,-6.08,-6.08,-6.08,-6.08,-6.08,-6.08,-6.08,-6.08,-6.08,-6.08,-6.08,-6.08,-6.08,-6.08,-6.08,-6.08,-6.08,-6.08,-6.08,-6.08,-6.08,-6.08,-6.08,-6.08,-6.08,-6.08,-6.08,-6.08,-6.08,-6.08,-6.08,-6.08,-6.08,-6.08,-6.08,-6.08,-6.08,-6.08,-6.08,-6.08,-6.08,-6.08,-6.08,-6.08,-6.08,-6.08,-6.08,-6.08,-6.08,-6.08,-6.08,-6.08,-6.08,-6.08,-6.08,-6.08,-4.3643,-4.4124,-4.4412,-4.5287,-4.5633,-4.6364,-4.8606,-4.8452,-4.8298,-4.9923,-5.0192,-4.9942,-4.924,-5.1106,-5.3876,-5.7376,-5.8704,-5.9627,-6.0492,-6.0666,-6.0723,-6.0781,-6.08,-6.08,-6.08,-6.08,-6.08,-6.08,-6.08,-6.08,-6.08,-6.08,-6.0578,-6.0099,-5.9644,-5.8819,-5.7597,-5.7109,-5.7722,-5.9389,-5.9424,-5.9916,-6.08,-6.08,-6.08,-6.08,-6.08,-6.08,-6.08,-6.08,-6.08,-6.08,-6.08,-6.08,-6.08,-6.08,-6.08,-6.08,-6.08,-6.08,-6.08,-6.08,-6.08,-6.08,-6.08,-6.08,-6.08,-6.08,-6.08,-6.08,-6.08,-6.08,-6.08,-6.08,-6.08,-6.08,-6.08,-6.08,-6.08,-6.08,-6.08,-6.08,-6.08,-6.08,-6.08,-6.08,-6.08,-6.08,-6.08,-6.08,-6.08,-6.08,-6.08,-6.08,-6.08,-6.08,-6.08,-6.08,-6.08,-6.08,-6.08,-6.08,-6.08,-6.08,-6.08,-6.08,-6.08,-6.08,-6.08,-6.08,-6.08,-6.08,-4.2566,-4.3143,-4.3739,-4.4586,-4.597,0.0,0.0,-4.9952,-5.0356,-5.2587,-5.2626,-5.2145,-5.1818,-5.3395,-5.5357,-5.7184,-5.8627,-5.98,-6.0685,-6.08,-6.08,-6.08,-6.08,-6.08,-6.08,-6.08,-6.0569,-6.0031,-5.9992,-5.9762,-5.9281,-5.9242,-5.8904,-5.8123,-5.7945,-5.7341,-5.6325,-5.6125,-5.6665,-5.7861,-5.8406,-5.9406,-6.08,-6.08,-6.08,-6.08,-6.08,-6.08,-6.08,-6.08,-6.08,-6.08,-6.08,-6.08,-6.08,-6.08,-6.08,-6.08,-6.08,-6.08,-6.08,-6.08,-6.08,-6.08,-6.08,-6.08,-6.08,-6.08,-6.08,-6.08,-6.08,-6.08,-6.08,-6.08,-6.08,-6.08,-6.08,-6.08,-6.08,-6.08,-6.08,-6.08,-6.08,-6.08,-6.08,-6.08,-6.08,-6.08,-6.08,-6.08,-6.08,-6.08,-6.08,-6.08,-6.08,-6.08,-6.08,-6.08,-6.08,-6.08,-6.08,-6.08,-6.08,-6.08,-6.08,-6.08,-6.08,-6.08,-6.08,-6.08,-6.08,-6.08,-4.1942,-4.2624,-4.3682,-4.4489,0.0,0.0,-5.1318,-5.1683,-5.2202,-5.4761,-5.4395,-5.378,-5.4299,-5.5107,-5.6069,-5.7223,-5.8819,-6.0127,-6.0723,-6.08,-6.08,-6.08,-6.08,-6.08,-6.08,-6.055,-6.0146,-5.955,-5.9261,-5.8877,-5.8338,-5.83,-5.7864,-5.6934,-5.6901,-5.6369,-5.5229,-5.5207,-5.5582,-5.6337,-5.7075,-5.8471,-6.0396,-6.0396,-6.0531,-6.08,-6.08,-6.08,-6.08,-6.08,-6.08,-6.08,-6.08,-6.08,-6.08,-6.08,-6.08,-6.08,-6.08,-6.08,-6.08,-6.08,-6.08,-6.08,-6.08,-6.08,-6.08,-6.08,-6.08,-6.08,-6.08,-6.08,-6.08,-6.08,-6.08,-6.08,-6.08,-6.08,-6.08,-6.08,-6.08,-6.08,-6.08,-6.08,-6.08,-6.08,-6.08,-6.08,-6.08,-6.08,-6.08,-6.08,-6.08,-6.08,-6.08,-6.08,-6.08,-6.08,-6.08,-6.08,-6.08,-6.08,-6.08,-6.08,-6.08,-6.08,-6.08,-6.08,-6.08,-6.08,-6.08,-6.08,-4.2239,-4.3008,-4.4489,-4.5383,0.0,-4.924,-5.353,-5.3837,-5.3953,-5.6522,-5.5703,-5.5049,-5.6714,-5.631,-5.628,-5.803,-5.9704,-6.0781,-6.08,-6.08,-6.08,-6.08,-6.0781,-6.0781,-6.0781,-5.9992,-5.9492,-5.9473,-5.8731,-5.8269,-5.828,-5.8269,-5.7845,-5.6916,-5.6882,-5.6069,-5.4399,-5.4399,-5.4621,-5.51,-5.549,-5.7025,-5.9492,-5.9492,-5.9954,-6.0781,-6.0781,-6.0781,-6.0781,-6.08,-6.08,-6.08,-6.08,-6.08,-6.08,-6.08,-6.08,-6.08,-6.08,-6.08,-6.08,-6.08,-6.08,-6.08,-6.08,-6.08,-6.08,-6.08,-6.08,-6.08,-6.08,-6.08,-6.08,-6.08,-6.08,-6.08,-6.08,-6.08,-6.08,-6.08,-6.08,-6.08,-6.08,-6.08,-6.08,-6.08,-6.08,-6.08,-6.08,-6.08,-6.08,-6.08,-6.08,-6.08,-6.08,-6.08,-6.08,-6.08,-6.08,-6.08,-6.08,-6.08,-6.08,-6.08,-6.08,-6.08,-6.08,-6.08,-6.08,-6.08,-6.08,-6.08,-4.1181,-4.2143,-4.3797,-4.5248,-4.7788,-5.0721,-5.3799,-5.4741,-5.5857,-5.9011,-5.8781,-5.7992,-5.7934,-5.7703,-5.7703,-5.8223,-5.9184,-6.0108,-6.0704,-6.08,-6.08,-6.08,-6.0262,-5.9896,-5.9896,-5.9146,-5.8396,-5.778,-5.7268,-5.6829,-5.6481,-5.6189,-5.5796,-5.5236,-5.522,-5.4685,-5.3573,-5.3573,-5.3771,-5.4187,-5.4646,-5.6023,-5.8163,-5.8503,-5.88,-5.905,-5.905,-5.9358,-5.9935,-6.055,-6.08,-6.08,-6.08,-6.08,-6.08,-6.08,-6.08,-6.08,-6.08,-6.08,-6.08,-6.08,-6.08,-6.08,-6.08,-6.08,-6.08,-6.08,-6.08,-6.08,-6.08,-6.08,-6.08,-6.08,-6.08,-6.08,-6.08,-6.08,-6.08,-6.08,-6.08,-6.08,-6.08,-6.08,-6.08,-6.08,-6.08,-6.08,-6.08,-6.08,-6.08,-6.08,-6.08,-6.08,-6.08,-6.08,-6.08,-6.08,-6.08,-6.08,-6.08,-6.08,-6.08,-6.08,-6.08,-6.08,-6.08,-6.08,-6.08,-6.08,-6.08,-6.08,-4.1681,-4.3047,-4.5009,-4.6682,-4.9163,-5.2029,-5.5261,-5.6626,-5.7896,-6.03,-5.9858,-5.8973,-5.8819,-5.8531,-5.8396,-5.8723,-5.9473,-6.0089,-6.0262,-6.0281,-6.0165,-5.9838,-5.9338,-5.9031,-5.9031,-5.8261,-5.7569,-5.7041,-5.6307,-5.583,-5.5712,-5.5173,-5.4745,-5.4519,-5.4322,-5.3888,-5.3206,-5.3185,-5.3336,-5.3565,-5.4206,-5.5154,-5.6396,-5.7364,-5.7973,-5.8319,-5.8646,-5.905,-5.9569,-6.0435,-6.08,-6.08,-6.08,-6.08,-6.08,-6.08,-6.08,-6.08,-6.08,-6.08,-6.08,-6.08,-6.08,-6.08,-6.08,-6.08,-6.08,-6.08,-6.08,-6.08,-6.08,-6.08,-6.08,-6.08,-6.08,-6.08,-6.08,-6.08,-6.08,-6.08,-6.08,-6.08,-6.08,-6.08,-6.08,-6.08,-6.08,-6.08,-6.08,-6.08,-6.08,-6.08,-6.08,-6.08,-6.08,-6.08,-6.08,-6.08,-6.08,-6.08,-6.08,-6.08,-6.08,-6.08,-6.08,-6.08,-6.08,-6.08,-6.08,-6.08,-6.08,-6.08,-4.2874,-4.4836,-4.7317,-4.9086,-5.0952,-5.3385,-5.73,-5.8819,-5.9665,-6.0608,-5.9531,-5.8627,-5.9377,-5.8838,-5.855,-5.9281,-6.005,-6.03,-5.9492,-5.9396,-5.9127,-5.8396,-5.8223,-5.8184,-5.8184,-5.7396,-5.6887,-5.6887,-5.5734,-5.5244,-5.5673,-5.489,-5.4471,-5.4503,-5.4048,-5.3624,-5.3206,-5.3185,-5.3185,-5.3206,-5.4086,-5.4503,-5.4554,-5.6147,-5.73,-5.8107,-5.9011,-5.9396,-5.9454,-6.0416,-6.08,-6.08,-6.08,-6.08,-6.08,-6.08,-6.08,-6.08,-6.08,-6.08,-6.08,-6.08,-6.08,-6.08,-6.08,-6.08,-6.08,-6.08,-6.08,-6.08,-6.08,-6.08,-6.08,-6.08,-6.08,-6.08,-6.08,-6.08,-6.08,-6.08,-6.08,-6.08,-6.08,-6.08,-6.08,-6.08,-6.08,-6.08,-6.08,-6.08,-6.08,-6.08,-6.08,-6.08,-6.08,-6.08,-6.08,-6.08,-6.08,-6.08,-6.08,-6.08,-6.08,-6.08,-6.08,-6.08,-6.08,-6.08,-6.08,-6.08,-6.08,-6.08,-4.1247,-4.3912,-4.7471,-4.9817,-5.3194,-5.6126,-5.708,-5.7934,-5.8973,-6.0492,-5.9973,-5.93,-5.9473,-5.8838,-5.8357,-5.8531,-5.8723,-5.8781,-5.8588,-5.8569,-5.8492,-5.8319,-5.7703,-5.7291,-5.7291,-5.6492,-5.5972,-5.5972,-5.5149,-5.4952,-5.5662,-5.4587,-5.4118,-5.4487,-5.4048,-5.3624,-5.3206,-5.3185,-5.3185,-5.3206,-5.4086,-5.4503,-5.4535,-5.5523,-5.6069,-5.6357,-5.7896,-5.8569,-5.8665,-6.0185,-6.08,-6.08,-6.08,-6.08,-6.08,-6.08,-6.08,-6.08,-6.08,-6.08,-6.08,-6.08,-6.08,-6.08,-6.08,-6.08,-6.08,-6.08,-6.08,-6.08,-6.08,-6.08,-6.08,-6.08,-6.08,-6.08,-6.08,-6.08,-6.08,-6.08,-6.08,-6.08,-6.08,-6.08,-6.08,-6.08,-6.08,-6.08,-6.08,-6.08,-6.08,-6.08,-6.08,-6.08,-6.08,-6.08,-6.08,-6.08,-6.08,-6.08,-6.08,-6.08,-6.08,-6.08,-6.08,-6.08,-6.08,-6.08,-6.08,-6.08,-6.08,-6.08,-4.1546,-4.4278,-4.7702,-5.1068,-5.4483,-5.7003,-5.7003,-5.7665,-5.855,-5.9415,-5.9242,-5.8934,-5.8934,-5.8588,-5.83,-5.83,-5.83,-5.8146,-5.7742,-5.7684,-5.7511,-5.7107,-5.6646,-5.6387,-5.6387,-5.5972,-5.5703,-5.5703,-5.4966,-5.4833,-5.5651,-5.4301,-5.3833,-5.4487,-5.3478,-5.3016,-5.3206,-5.2821,-5.2821,-5.3206,-5.4086,-5.4701,-5.5088,-5.5512,-5.5703,-5.5761,-5.7088,-5.7915,-5.8396,-5.9665,-6.0416,-6.08,-6.08,-6.08,-6.08,-6.08,-6.08,-6.08,-6.08,-6.08,-6.08,-6.08,-6.08,-6.08,-6.08,-6.08,-6.08,-6.08,-6.08,-6.08,-6.08,-6.08,-6.08,-6.08,-6.08,-6.08,-6.08,-6.08,-6.08,-6.08,-6.08,-6.08,-6.08,-6.08,-6.08,-6.08,-6.08,-6.08,-6.08,-6.08,-6.08,-6.08,-6.08,-6.08,-6.08,-6.08,-6.08,-6.08,-6.08,-6.08,-6.08,-6.08,-6.08,-6.08,-6.08,-6.08,-6.08,-6.08,-6.08,-6.08,-6.08,-6.08,-4.1412,-4.4509,-4.8086,-5.2183,-5.4991,-5.6791,-5.6791,-5.7319,-5.7857,-5.7857,-5.7973,-5.8088,-5.8088,-5.7953,-5.7857,-5.7857,-5.7857,-5.7607,-5.6887,-5.6791,-5.6522,-5.578,-5.5703,-5.5703,-5.5703,-5.5703,-5.5645,-5.5491,-5.4737,-5.4582,-5.5228,-5.3687,-5.3176,-5.4037,-5.2586,-5.2105,-5.2784,-5.2123,-5.2197,-5.3004,-5.4011,-5.4924,-5.5703,-5.5703,-5.5703,-5.5742,-5.6618,-5.7407,-5.8146,-5.9108,-5.9915,-6.0589,-6.0742,-6.08,-6.08,-6.08,-6.08,-6.08,-6.08,-6.08,-6.08,-6.08,-6.08,-6.08,-6.08,-6.08,-6.08,-6.08,-6.08,-6.08,-6.08,-6.08,-6.08,-6.08,-6.08,-6.08,-6.08,-6.08,-6.08,-6.08,-6.08,-6.08,-6.08,-6.08,-6.08,-6.08,-6.08,-6.08,-6.08,-6.08,-6.08,-6.08,-6.08,-6.08,-6.08,-6.08,-6.08,-6.08,-6.08,-6.08,-6.08,-6.08,-6.08,-6.08,-6.08,-6.08,-6.08,-6.08,-6.08,-6.08,-6.08,-6.08,-3.7462,0.0,-4.8798,-5.2318,-5.4549,-5.5857,-5.5857,-5.5953,-5.6049,-5.6049,-5.6646,-5.7176,-5.7176,-5.6549,-5.6049,-5.6049,-5.6049,-5.6011,-5.5876,-5.5857,-5.5818,-5.5703,-5.5703,-5.5703,-5.5703,-5.5703,-5.5415,-5.4703,-5.3862,-5.3423,-5.3537,-5.2001,-5.1472,-5.2318,-5.1436,-5.1004,-5.1132,-5.1022,-5.1353,-5.2181,-5.3748,-5.4924,-5.5703,-5.5703,-5.5703,-5.5742,-5.6618,-5.708,-5.7291,-5.8858,-5.9569,-5.9742,-6.0512,-6.08,-6.08,-6.08,-6.08,-6.08,-6.08,-6.08,-6.08,-6.08,-6.08,-6.08,-6.08,-6.08,-6.08,-6.08,-6.08,-6.08,-6.08,-6.08,-6.08,-6.08,-6.08,-6.08,-6.08,-6.08,-6.08,-6.08,-6.08,-6.08,-6.08,-6.08,-6.08,-6.08,-6.08,-6.08,-6.08,-6.08,-6.08,-6.08,-6.08,-6.08,-6.08,-6.08,-6.08,-6.08,-6.08,-6.08,-6.08,-6.08,-6.08,-6.08,-6.08,-6.08,-6.08,-6.08,-6.08,-6.08,-6.08,-6.08,-3.9373,-4.3412,-4.7625,-5.151,-5.3395,-5.4434,-5.4914,-5.5376,-5.5703,-5.5703,-5.5992,-5.6272,-5.6272,-5.5953,-5.5703,-5.5703,-5.5703,-5.5703,-5.5703,-5.5703,-5.5703,-5.5703,-5.5703,-5.5703,-5.5703,-5.528,-5.4792,-5.4211,-5.3143,-5.2637,-5.2855,-5.1548,-5.1176,-5.1979,-5.0786,-5.0343,-5.0802,-5.0343,-5.0988,-5.2692,-5.391,-5.4924,-5.5703,-5.5703,-5.5703,-5.5722,-5.6118,-5.656,-5.706,-5.78,-5.8646,-5.955,-5.9915,-6.0358,-6.08,-6.08,-6.08,-6.08,-6.08,-6.08,-6.08,-6.08,-6.08,-6.08,-6.08,-6.08,-6.08,-6.08,-6.08,-6.08,-6.08,-6.08,-6.08,-6.08,-6.08,-6.08,-6.08,-6.08,-6.08,-6.08,-6.08,-6.08,-6.08,-6.1204,-6.1543,-6.1543,-6.1916,-6.2204,-6.2204,-6.2204,-6.2204,-6.2204,-6.2204,-6.2012,-6.1581,-6.1543,-6.132,-6.0819,-6.08,-6.08,-6.08,-6.08,-6.08,-6.08,-6.08,-6.08,-6.08,-6.08,-6.08,-6.08,-6.08,-6.08,-3.9969,0.0,-4.5267,-4.9298,-5.1587,-5.3049,-5.3683,-5.4645,-5.5395,-5.5395,-5.5395,-5.5395,-5.5395,-5.5549,-5.5703,-5.5703,-5.5703,-5.5703,-5.5703,-5.5511,-5.5472,-5.5684,-5.5318,-5.5145,-5.5376,-5.4645,-5.3923,-5.329,-5.2281,-5.1726,-5.1807,-5.0777,-5.0491,-5.1184,-4.9935,-4.9554,-5.016,-4.9794,-5.0657,-5.2739,-5.3701,-5.4653,-5.5554,-5.5651,-5.5703,-5.5703,-5.5703,-5.6069,-5.6695,-5.6907,-5.7857,-5.9223,-5.9415,-6.0031,-6.08,-6.08,-6.08,-6.08,-6.08,-6.08,-6.08,-6.08,-6.08,-6.08,-6.08,-6.08,-6.08,-6.08,-6.08,-6.08,-6.08,-6.08,-6.08,-6.08,-6.08,-6.08,-6.08,-6.08,-6.08,-6.08,-6.0973,-6.1127,-6.1127,-6.1839,-6.2397,-6.2397,-6.2916,-6.3288,-6.3288,-6.3288,-6.3288,-6.3288,-6.3288,-6.307,-6.2454,-6.2216,-6.1831,-6.1166,-6.0916,-6.08,-6.08,-6.08,-6.08,-6.08,-6.08,-6.08,-6.08,-6.08,-6.08,-6.08,-6.08,-6.08,-3.5865,-3.8854,0.0,-4.5056,-4.8971,-5.1981,-5.2019,-5.3356,-5.4549,-5.4549,-5.4549,-5.4549,-5.4549,-5.5184,-5.5703,-5.5703,-5.5703,-5.5703,-5.5703,-5.503,-5.4857,-5.5607,-5.4299,-5.3645,-5.4472,-5.378,-5.276,-5.1521,-5.1087,-5.0514,-4.9702,-4.8875,-4.8624,-4.9061,-4.8624,-4.8398,-4.8434,-4.9225,-5.023,-5.15,-5.2688,-5.3935,-5.5128,-5.5543,-5.5703,-5.5703,-5.5703,-5.5722,-5.5818,-5.6656,-5.753,-5.8434,-5.9204,-6.0031,-6.08,-6.08,-6.08,-6.08,-6.08,-6.08,-6.08,-6.08,-6.08,-6.08,-6.08,-6.08,-6.08,-6.08,-6.08,-6.08,-6.08,-6.08,-6.08,-6.08,-6.08,-6.08,-6.08,-6.08,-6.08,-6.08,-6.1466,-6.2043,-6.2043,-6.2704,-6.3243,-6.3243,-6.3281,-6.3288,-6.3288,-6.3288,-6.3288,-6.3288,-6.3288,-6.3269,-6.3231,-6.2531,-6.2082,-6.2043,-6.1262,-6.08,-6.08,-6.08,-6.08,-6.08,-6.08,-6.08,-6.08,-6.08,-6.08,-6.08,-6.08,-6.08,-3.5365,0.0,-4.0419,-4.3278,-4.5932,-4.8144,-4.9221,-5.1221,-5.2837,-5.2837,-5.328,-5.3664,-5.3664,-5.3895,-5.4107,-5.4107,-5.4107,-5.4107,-5.4107,-5.3857,-5.378,-5.4068,-5.3568,-5.3318,-5.3645,-5.2876,-5.1973,-5.1039,-5.0345,-4.9721,-4.9142,-4.8604,-4.8477,-4.888,-4.8513,-4.8306,-4.8306,-4.915,-5.0212,-5.1409,-5.235,-5.3478,-5.4735,-5.5134,-5.5319,-5.5331,-5.5588,-5.5703,-5.5722,-5.603,-5.7011,-5.8338,-5.8627,-5.9588,-6.08,-6.08,-6.08,-6.08,-6.08,-6.08,-6.08,-6.08,-6.08,-6.08,-6.08,-6.08,-6.08,-6.08,-6.08,-6.08,-6.08,-6.08,-6.08,-6.08,-6.08,-6.08,-6.08,-6.08,-6.0973,-6.1543,-6.1889,-6.2274,-6.2781,-6.357,-6.4128,-6.4128,-6.4609,-6.4974,-6.4974,-6.4974,-6.4974,-6.4974,-6.4974,-6.4743,-6.4185,-6.3878,-6.3243,-6.2178,-6.1812,-6.1377,-6.0819,-6.08,-6.08,-6.08,-6.08,-6.08,-6.08,-6.08,-6.08,-6.08,-6.08,-6.08,-3.4058,-3.6084,-3.8642,-4.1181,-4.2863,-4.4511,-4.6945,-4.8805,-5.0263,-5.1107,-5.177,-5.2272,-5.2682,-5.2549,-5.2549,-5.3106,-5.3203,-5.3203,-5.3203,-5.2953,-5.2876,-5.3164,-5.2702,-5.2472,-5.2741,-5.201,-5.1181,-5.0425,-4.9824,-4.9265,-4.8728,-4.8439,-4.8421,-4.8692,-4.8439,-4.8306,-4.8306,-4.8875,-4.9711,-5.0768,-5.1451,-5.2518,-5.3875,-5.428,-5.4694,-5.5101,-5.5387,-5.5577,-5.5703,-5.5703,-5.6722,-5.83,-5.83,-5.9319,-6.08,-6.08,-6.08,-6.08,-6.08,-6.08,-6.08,-6.08,-6.08,-6.08,-6.08,-6.08,-6.08,-6.08,-6.08,-6.08,-6.08,-6.08,-6.08,-6.08,-6.08,-6.08,-6.08,-6.1031,-6.1408,-6.1985,-6.2563,-6.3108,-6.3647,-6.4455,-6.5032,-6.5032,-6.5532,-6.5897,-6.5897,-6.5897,-6.5897,-6.5897,-6.5897,-6.5667,-6.5089,-6.4762,-6.3993,-6.2589,-6.2255,-6.1716,-6.0839,-6.08,-6.08,-6.08,-6.08,-6.08,-6.08,-6.08,-6.08,-6.08,-6.08,-6.08,0.0,0.0,0.0,-3.8512,-3.9731,-4.1347,-4.5161,-4.608,-4.6835,-4.9384,-4.9949,-5.0337,-5.1556,-5.1144,-5.1164,-5.2818,-5.3106,-5.3126,-5.3126,-5.2404,-5.2173,-5.3029,-5.1683,-5.101,-5.1788,-5.1154,-5.0347,-4.9547,-4.9489,-4.9142,-4.8326,-4.8306,-4.8306,-4.8306,-4.8306,-4.8306,-4.8306,-4.8306,-4.871,-4.9519,-4.997,-5.1019,-5.2565,-5.2991,-5.3848,-5.5056,-5.5088,-5.5319,-5.5703,-5.5703,-5.6722,-5.83,-5.83,-5.9319,-6.08,-6.08,-6.08,-6.08,-6.08,-6.08,-6.08,-6.08,-6.08,-6.08,-6.08,-6.08,-6.08,-6.08,-6.08,-6.08,-6.08,-6.08,-6.08,-6.08,-6.08,-6.08,-6.08,-6.1493,-6.2139,-6.2139,-6.3474,-6.4609,-6.4628,-6.534,-6.5897,-6.5897,-6.5897,-6.5897,-6.5897,-6.5897,-6.5897,-6.5897,-6.5897,-6.5897,-6.5897,-6.5109,-6.4224,-6.3346,-6.2531,-6.1716,-6.0839,-6.08,-6.08,-6.08,-6.08,-6.08,-6.08,-6.08,-6.08,-6.08,-6.08,-6.08,-3.1455,0.0,0.0,0.0,0.0,0.0,-3.9238,-4.0812,-4.2544,-4.5095,-4.6126,-4.7099,-4.8837,-4.8971,-4.9183,-5.0279,-5.0971,-5.1395,-5.1395,-5.1183,-5.1125,-5.1356,-5.0981,-5.0789,-5.101,-5.0566,-5.0056,-4.9532,-4.9234,-4.8847,-4.8344,-4.8306,-4.8306,-4.8306,-4.8306,-4.8306,-4.8306,-4.8306,-4.8728,-4.9574,-4.9691,-5.0302,-5.1316,-5.2324,-5.3125,-5.3777,-5.4694,-5.5319,-5.5703,-5.5703,-5.6722,-5.83,-5.83,-5.9319,-6.08,-6.08,-6.08,-6.08,-6.08,-6.08,-6.08,-6.08,-6.08,-6.08,-6.08,-6.08,-6.08,-6.08,-6.08,-6.08,-6.08,-6.08,-6.08,-6.08,-6.08,-6.08,-6.08,-6.1935,-6.2974,-6.2974,-6.3858,-6.4801,-6.5436,-6.5743,-6.5897,-6.5897,-6.5897,-6.5897,-6.5897,-6.5897,-6.5897,-6.5897,-6.5897,-6.5897,-6.5897,-6.5109,-6.4224,-6.3346,-6.2531,-6.1716,-6.0839,-6.08,-6.08,-6.08,-6.08,-6.08,-6.08,-6.08,-6.08,-6.08,-6.08,-6.08,-3.2363,0.0,-3.4629,-3.4479,0.0,0.0,-3.7404,-3.8373,-3.9694,-4.3256,-4.4385,-4.5342,-4.7315,-4.7801,-4.8046,-4.8574,-4.9072,-4.9708,-5.0577,-5.0554,-5.0442,-5.0442,-5.0294,-5.026,-5.0432,-5.008,-4.976,-4.9504,-4.9123,-4.8709,-4.8325,-4.8306,-4.8306,-4.8306,-4.8306,-4.8306,-4.8306,-4.8306,-4.8545,-4.9058,-4.9058,-4.9481,-5.0326,-5.1376,-5.2338,-5.327,-5.4366,-5.5173,-5.5703,-5.5703,-5.6722,-5.83,-5.83,-5.9319,-6.08,-6.08,-6.08,-6.08,-6.08,-6.08,-6.08,-6.08,-6.08,-6.08,-6.08,-6.08,-6.08,-6.08,-6.08,-6.08,-6.08,-6.08,-6.08,-6.08,-6.08,-6.08,-6.08,-6.1858,-6.2897,-6.3243,-6.4301,-6.5301,-6.5801,-6.5897,-6.5897,-6.5897,-6.5897,-6.5897,-6.5897,-6.5897,-6.5763,-6.5397,-6.5359,-6.5205,-6.4859,-6.4359,-6.3705,-6.2858,-6.237,-6.1716,-6.0839,-6.08,-6.08,-6.08,-6.08,-6.08,-6.08,-6.08,-6.08,-6.08,-6.08,-6.08,-3.4054,0.0,0.0,-3.5647,-3.4237,0.0,-3.748,-3.7409,-3.7806,-4.2248,-4.3218,-4.389,-4.5919,-4.6586,-4.6858,-4.687,-4.7087,-4.799,-5.0056,-5.0015,-4.9758,-4.9758,-4.9449,-4.938,-4.9733,-4.9408,-4.9181,-4.9181,-4.8891,-4.8545,-4.8197,-4.8251,-4.8306,-4.8306,-4.8306,-4.8306,-4.8306,-4.8306,-4.8306,-4.8306,-4.8306,-4.871,-4.95,-5.038,-5.1603,-5.306,-5.4053,-5.4938,-5.564,-5.5673,-5.6722,-5.83,-5.83,-5.9319,-6.08,-6.08,-6.08,-6.08,-6.08,-6.08,-6.08,-6.08,-6.08,-6.08,-6.08,-6.08,-6.08,-6.08,-6.08,-6.08,-6.08,-6.08,-6.08,-6.08,-6.08,-6.08,-6.08,-6.1473,-6.2312,-6.3031,-6.457,-6.5763,-6.5763,-6.584,-6.5897,-6.5897,-6.582,-6.5763,-6.5763,-6.5667,-6.5301,-6.4551,-6.4455,-6.4147,-6.3365,-6.3224,-6.2858,-6.2159,-6.2005,-6.162,-6.0819,-6.08,-6.08,-6.08,-6.08,-6.08,-6.08,-6.08,-6.08,-6.08,-6.08,-6.08,-3.5989,-3.6302,-3.6648,-3.5462,-3.5465,0.0,-3.3352,-3.4346,-3.5957,-3.7044,-3.7766,-3.8833,-4.0778,-4.1722,-4.2223,-4.2284,-4.3917,-4.5897,-4.7922,-4.7908,-4.7691,-4.7691,-4.7605,-4.7591,-4.7672,-4.7304,-4.7081,-4.7081,-4.7306,-4.7426,-4.7333,-4.7957,-4.8306,-4.8306,-4.8306,-4.8306,-4.8306,-4.8306,-4.8306,-4.8306,-4.8306,-4.8398,-4.86,-5.0105,-5.1155,-5.1864,-5.3698,-5.476,-5.5237,-5.5577,-5.6722,-5.83,-5.83,-5.9319,-6.08,-6.08,-6.08,-6.08,-6.08,-6.08,-6.08,-6.08,-6.08,-6.08,-6.08,-6.08,-6.08,-6.08,-6.08,-6.08,-6.08,-6.08,-6.08,-6.08,-6.08,-6.08,-6.08,-6.1473,-6.2159,-6.2312,-6.3705,-6.4859,-6.4859,-6.5436,-6.5897,-6.5897,-6.5301,-6.4859,-6.4859,-6.4243,-6.3743,-6.357,-6.3551,-6.3481,-6.3308,-6.2704,-6.2274,-6.212,-6.1435,-6.0973,-6.08,-6.08,-6.08,-6.08,-6.08,-6.08,-6.08,-6.08,-6.08,-6.08,-6.08,-6.08,-3.7235,-3.7199,-3.7309,-3.6468,-3.5717,0.0,0.0,-3.3926,-3.4596,-3.6716,-3.6488,-3.6591,-3.879,-3.9339,-3.9607,-4.0033,-4.1781,-4.3324,-4.3932,-4.5617,-4.679,-4.679,-4.6629,-4.6582,-4.6776,-4.6443,-4.6198,-4.6198,-4.6396,-4.6507,-4.6507,-4.7259,-4.77,-4.77,-4.8104,-4.8306,-4.8306,-4.8306,-4.8306,-4.8306,-4.8306,-4.8306,-4.8361,-5.005,-5.1024,-5.1484,-5.3354,-5.4404,-5.4819,-5.5224,-5.6177,-5.7416,-5.8051,-5.9069,-6.0204,-6.0646,-6.08,-6.08,-6.08,-6.08,-6.08,-6.08,-6.08,-6.08,-6.08,-6.08,-6.08,-6.08,-6.08,-6.08,-6.08,-6.08,-6.08,-6.08,-6.08,-6.08,-6.08,-6.1127,-6.1447,-6.1447,-6.2474,-6.3474,-6.3878,-6.432,-6.4609,-6.4609,-6.4224,-6.3955,-6.3955,-6.357,-6.3147,-6.2743,-6.2704,-6.2531,-6.2089,-6.1685,-6.1447,-6.1447,-6.1031,-6.08,-6.08,-6.08,-6.08,-6.08,-6.08,-6.08,-6.08,-6.08,-6.08,-6.08,-6.08,-6.08,-3.8869,-3.8649,-3.8704,-3.7933,-3.656,-3.5459,0.0,0.0,0.0,-3.6931,-3.605,-3.5371,-3.7386,-3.7452,-3.7359,-3.7843,-3.9547,-4.0463,-3.9496,-4.2601,-4.5071,-4.522,-4.534,-4.5493,-4.5674,-4.5118,-4.4929,-4.5388,-4.5149,-4.5186,-4.5645,-4.6581,-4.7094,-4.7094,-4.7865,-4.8306,-4.8306,-4.8306,-4.8306,-4.8306,-4.8306,-4.8306,-4.8361,-5.005,-5.0984,-5.1378,-5.307,-5.4013,-5.4387,-5.4804,-5.5393,-5.6191,-5.7719,-5.88,-5.9608,-6.0473,-6.08,-6.08,-6.08,-6.08,-6.08,-6.08,-6.08,-6.08,-6.08,-6.08,-6.08,-6.08,-6.08,-6.08,-6.08,-6.08,-6.08,-6.08,-6.08,-6.08,-6.08,-6.08,-6.08,-6.08,-6.1358,-6.2108,-6.2935,-6.3205,-6.3288,-6.3288,-6.3166,-6.307,-6.307,-6.2916,-6.257,-6.1928,-6.1851,-6.1562,-6.0858,-6.08,-6.08,-6.08,-6.08,-6.08,-6.08,-6.08,-6.08,-6.08,-6.08,-6.08,-6.08,-6.08,-6.08,-6.08,-6.08,-6.08,-4.2194,-4.28,-4.3039,-3.946,-3.9955,-3.9882,-3.4289,0.0,-3.5385,-3.3647,0.0,-3.4027,-3.4302,0.0,0.0,-3.345,-3.5947,-3.7419,-3.5827,-3.7919,-3.9866,-4.0565,-4.2502,-4.3513,-4.2848,-4.1438,-4.146,-4.3625,-4.2451,-4.2581,-4.4727,-4.6269,-4.7094,-4.7094,-4.7865,-4.8306,-4.8306,-4.8306,-4.8306,-4.8306,-4.8306,-4.8306,-4.8361,-5.005,-5.0824,-5.0977,-5.2958,-5.3833,-5.3924,-5.4371,-5.4639,-5.4943,-5.7365,-5.88,-5.9608,-6.0473,-6.08,-6.08,-6.08,-6.08,-6.08,-6.08,-6.08,-6.08,-6.08,-6.08,-6.08,-6.08,-6.08,-6.08,-6.08,-6.08,-6.08,-6.08,-6.08,-6.08,-6.08,-6.08,-6.08,-6.08,-6.0877,-6.1223,-6.2101,-6.2839,-6.3288,-6.3288,-6.2685,-6.2235,-6.2235,-6.155,-6.105,-6.0954,-6.0954,-6.0916,-6.08,-6.08,-6.08,-6.08,-6.08,-6.08,-6.08,-6.08,-6.08,-6.08,-6.08,-6.08,-6.08,-6.08,-6.08,-6.08,-6.08,-6.08,-4.1902,-4.2451,-4.269,-4.0047,-3.9808,-3.9258,-3.5587,-3.4449,-3.4105,-3.4014,0.0,0.0,0.0,0.0,0.0,0.0,-3.4156,-3.478,-3.3146,-3.5004,-3.7206,-3.8982,-3.9696,-4.0448,-4.1515,-4.0561,-4.0907,-4.3331,-4.157,-4.146,-4.3864,-4.5094,-4.592,-4.6397,-4.7168,-4.7828,-4.8306,-4.8306,-4.8306,-4.8306,-4.8306,-4.8306,-4.8343,-4.9554,-5.0362,-5.0857,-5.2183,-5.3021,-5.3484,-5.3906,-5.4101,-5.4265,-5.608,-5.745,-5.8528,-5.9646,-6.0358,-6.08,-6.08,-6.08,-6.08,-6.08,-6.08,-6.08,-6.08,-6.08,-6.08,-6.08,-6.08,-6.08,-6.08,-6.08,-6.08,-6.08,-6.08,-6.08,-6.08,-6.08,-6.08,-6.08,-6.08,-6.0916,-6.1293,-6.1627,-6.1858,-6.1858,-6.155,-6.1351,-6.1351,-6.1031,-6.08,-6.08,-6.08,-6.08,-6.08,-6.08,-6.08,-6.08,-6.08,-6.08,-6.08,-6.08,-6.08,-6.08,-6.08,-6.08,-6.08,-6.08,-6.08,-6.08,-6.08,-6.08,-4.2103,-4.2506,-4.269,-4.0194,-3.9294,-3.8432,-3.6138,-3.4743,-3.4211,-3.5151,-3.4486,0.0,0.0,0.0,-3.3049,-3.2931,0.0,-3.3421,-3.1347,-3.2583,-3.4509,-3.6762,-3.7312,-3.8282,-4.0251,-3.9093,-3.9515,-4.2598,-4.0396,-4.0249,-4.3349,-4.4268,-4.5076,-4.5865,-4.6672,-4.748,-4.8306,-4.8306,-4.8306,-4.8306,-4.8306,-4.8306,-4.8343,-4.9187,-5.0051,-5.0839,-5.1646,-5.2454,-5.3227,-5.3505,-5.3624,-5.3738,-5.479,-5.6026,-5.7411,-5.8808,-5.988,-6.0622,-6.0757,-6.08,-6.08,-6.08,-6.08,-6.08,-6.08,-6.08,-6.08,-6.08,-6.08,-6.08,-6.08,-6.08,-6.08,-6.08,-6.08,-6.08,-6.08,-6.08,-6.08,-6.08,-6.08,-6.08,-6.08,-6.08,-6.08,-6.08,-6.08,-6.08,-6.08,-6.08,-6.08,-6.08,-6.08,-6.08,-6.08,-6.08,-6.08,-6.08,-6.08,-6.08,-6.08,-6.08,-6.08,-6.08,-6.08,-6.08,-6.08,-6.08,-6.08,-6.08,-6.08,-6.08,-4.4048,-4.458,-4.4654,-3.9918,-3.9294,-3.8799,-3.4798,-3.5693,-3.7144,-3.6413,-3.8046,-3.9405,-3.8689,-3.7845,0.0,0.0,0.0,0.0,0.0,-3.032,-3.0962,-3.2601,-3.5569,-3.7841,-3.8689,-3.5881,-3.5991,-4.0802,-3.823,-3.8487,-4.3258,-4.4268,-4.5076,-4.5865,-4.6672,-4.748,-4.8306,-4.8306,-4.8306,-4.8306,-4.8306,-4.8306,-4.8343,-4.9187,-5.0051,-5.0839,-5.1646,-5.2454,-5.3185,-5.3206,-5.3227,-5.3251,-5.3682,-5.4876,-5.6538,-5.8266,-5.944,-6.0194,-6.0634,-6.08,-6.08,-6.08,-6.08,-6.08,-6.08,-6.08,-6.08,-6.08,-6.08,-6.08,-6.08,-6.08,-6.08,-6.08,-6.08,-6.08,-6.08,-6.08,-6.08,-6.08,-6.08,-6.08,-6.08,-6.08,-6.08,-6.08,-6.08,-6.08,-6.08,-6.08,-6.08,-6.08,-6.08,-6.08,-6.08,-6.08,-6.08,-6.08,-6.08,-6.08,-6.08,-6.08,-6.08,-6.08,-6.08,-6.08,-6.08,-6.08,-6.08,-6.08,-6.08,-6.08,-4.5314,-4.5883,-4.5792,-4.2029,-4.0891,-3.9772,-3.6266,-3.6519,-3.7272,-3.6468,-3.8212,-3.9643,-3.8854,-3.8028,0.0,0.0,0.0,0.0,0.0,-2.8154,-2.8227,-2.9292,-3.2742,-3.5147,-3.544,-3.4931,-3.6178,-4.0029,-3.8319,-3.898,-4.3276,-4.3754,-4.4268,-4.5094,-4.5902,-4.6691,-4.7498,-4.8031,-4.8306,-4.8306,-4.8306,-4.8306,-4.8324,-4.8618,-4.9499,-5.082,-5.1096,-5.1958,-5.3185,-5.3185,-5.3185,-5.3206,-5.3339,-5.44,-5.5986,-5.7154,-5.8451,-5.9661,-5.9823,-6.0089,-6.0338,-6.0338,-6.0553,-6.08,-6.08,-6.08,-6.08,-6.08,-6.08,-6.08,-6.08,-6.08,-6.08,-6.08,-6.08,-6.08,-6.08,-6.08,-6.08,-6.08,-6.08,-6.08,-6.08,-6.08,-6.08,-6.08,-6.08,-6.08,-6.08,-6.08,-6.08,-6.08,-6.08,-6.08,-6.08,-6.08,-6.08,-6.08,-6.08,-6.08,-6.08,-6.08,-6.08,-6.08,-6.08,-6.08,-6.08,-6.08,-6.08,-6.08,-6.08,-6.08,-4.6067,-4.6489,-4.6397,-4.3461,-4.2341,-4.1185,-3.8248,-3.8649,-3.942,-3.8597,-4.012,-4.146,-4.0928,-3.9717,0.0,0.0,0.0,0.0,0.0,-2.6924,-2.6796,-2.731,-3.0411,-3.2852,-3.3715,-3.3225,-3.4692,-3.9129,-3.7698,-3.8487,-4.2837,-4.3332,-4.3864,-4.4654,-4.548,-4.6287,-4.7094,-4.7901,-4.8306,-4.8306,-4.8306,-4.8306,-4.8306,-4.8306,-4.9224,-5.0802,-5.0802,-5.172,-5.3185,-5.3185,-5.3185,-5.3185,-5.3185,-5.4179,-5.5687,-5.6426,-5.7837,-5.9389,-5.9389,-5.9611,-5.9855,-5.9855,-6.0055,-6.0311,-6.0311,-6.0311,-6.0311,-6.0311,-6.0311,-6.0338,-6.0508,-6.0553,-6.0578,-6.0757,-6.08,-6.08,-6.08,-6.08,-6.0757,-6.0578,-6.0553,-6.0495,-6.0338,-6.0311,-6.0411,-6.0746,-6.08,-6.08,-6.08,-6.08,-6.08,-6.08,-6.08,-6.08,-6.08,-6.08,-6.08,-6.08,-6.08,-6.08,-6.08,-6.08,-6.08,-6.08,-6.08,-6.08,-6.08,-6.08,-6.08,-6.08,-6.08,-6.08]},{"header":{"parameterUnit":"m.s-1","parameterCategory":1,"la1":30.6,"la2":29.2853,"lo1":-89.7004,"lo2":-87.6739,"dy":0.0162,"dx":0.0183,"nx":112,"ny":82,"refTime":"2025-03-21T18:00:00:Z","depth":0,"parameterNumber":3,"parameterNumberName":"V-component_of_WINDS"},"data":[0.0,0.0,0.0,0.0,0.0,0.0,0.0,0.0,0.0,0.0,0.0,0.0,0.0,0.0,0.0,0.0,0.0,0.0,0.0,0.0,0.0,0.0,0.0,0.0,0.0,0.0,0.0,0.0,0.0,0.0,0.0,0.0,0.0,0.0,0.0,0.0,0.0,0.0,0.0,0.0,0.0,0.0,0.0,0.0,0.0,0.0,0.0,0.0,0.0,0.0,0.0,0.0,0.0,0.0,0.0,0.0,0.0,0.0,0.0,0.0,0.0,0.0,0.0,0.0,0.0,0.0,0.0,0.0,0.0,0.0,0.0,0.0,0.0,0.0,0.0,0.0,0.0,0.0,0.0,0.0,0.0,0.0,0.0,0.0,0.0,0.0,0.0,0.0,0.0,0.0,0.7075,0.7712,0.9513,1.0602,1.0304,0.8805,0.7584,0.675,0.0,0.0,0.0,0.0,0.0,0.0,0.0,0.0,0.0,0.0,0.0,0.0,0.0,0.0,0.0,0.0,0.0,0.0,0.0,0.0,0.0,0.0,0.0,0.0,0.0,0.0,0.0,0.0,0.0,0.0,0.0,0.0,0.0,0.0,0.0,0.0,0.0,0.0,0.0,0.0,0.0,0.0,0.0,0.0,0.0,0.0,0.0,0.0,0.0,0.0,0.0,0.0,0.0,0.0,0.0,0.0,0.0,0.0,0.0,0.0,0.0,0.0,0.0,0.0,0.0,0.0,0.0,0.0,0.0,0.0,0.0,0.0,0.0,0.0,0.0,0.0,0.0,0.0,0.0,0.0,0.0,0.0,0.0,0.0,0.0,0.0,0.0,0.0,0.0,0.0,0.0,0.0,0.0,0.0,0.0,0.0,0.0,0.0,0.0,0.0,0.0,0.0,0.0,0.0,0.8009,0.9449,1.0266,1.0602,1.0304,0.9681,0.853,0.6801,0.0,0.0,0.0,0.0,0.0,0.0,0.0,0.0,0.0,0.0,0.0,0.0,0.0,0.0,0.0,0.0,0.0,0.0,0.0,0.0,0.0,0.0,0.0,0.0,0.0,0.0,0.0,0.0,0.0,0.0,0.0,0.0,0.0,0.0,0.0,0.0,0.0,0.0,0.0,0.0,0.0,0.0,0.0,0.0,0.0,0.0,0.0,0.0,0.0,0.0,0.0,0.0,0.0,0.0,0.0,0.0,0.0,0.0,0.0,0.0,0.0,0.0,0.0,0.0,0.0,0.0,0.0,0.0,0.0,0.0,0.0,0.0,0.0,0.0,0.0,0.0,0.0,0.0,0.0,0.0,0.0,0.0,0.0,0.0,0.0,0.0,0.0,0.0,0.0,0.0,0.0,0.0,0.0,0.0,0.0,0.0,0.0,0.0,0.0,0.0,0.0,0.0,0.0,0.7848,0.8801,1.0042,1.0429,1.051,1.0297,0.9866,0.9056,0.7784,0.5479,0.0,0.0,0.0,0.0,0.0,0.0,0.0,0.0,0.0,0.0,0.0,0.0,0.0,0.0,0.0,0.0,0.0,0.0,0.0,0.0,0.0,0.0,0.0,0.0,0.0,0.0,0.0,0.0,0.0,0.0,0.0,0.0,0.0,0.0,0.0,0.0,0.0,0.0,0.0,0.0,0.0,0.0,0.0,0.0,0.0,0.0,0.0,0.0,0.0,0.0,0.0,0.0,0.0,0.0,0.0,0.0,0.0,0.0,0.0,0.0,0.0,0.0,0.0,0.0,0.0,0.0,0.0,0.0,0.0,0.0,0.0,0.0,0.0,0.0,0.0,0.0,0.0,0.0,0.0,0.0,0.0,0.0,0.0,0.0,0.0,0.0,0.0,0.0,0.0,0.0,0.0,0.0,0.0,0.0,0.0,0.0,0.0,0.0,0.0,0.0,0.0,0.0,0.8899,0.9439,1.0198,1.0409,1.0432,1.0293,0.9771,0.9161,0.8476,0.6907,0.0,0.0,0.0,0.0,0.0,0.0,0.0,0.0,0.0,0.0,0.0,0.0,0.0,0.0,0.0,0.0,0.0,0.0,0.0,0.0,0.0,0.0,0.0,0.0,0.0,0.0,0.0,0.0,0.0,0.0,0.0,0.0,0.0,0.0,0.0,0.0,0.0,0.0,0.0,0.0,0.0,0.0,0.0,0.0,0.0,0.0,0.0,0.0,0.0,0.0,0.0,0.0,0.0,0.0,0.0,0.0,0.0,0.0,0.0,0.0,0.0,0.0,0.0,0.0,0.0,0.0,0.0,0.0,0.0,0.0,0.0,0.0,0.0,0.0,0.0,0.0,0.0,0.0,0.0,0.0,0.0,0.0,0.0,0.0,0.0,0.0,0.0,0.0,0.0,0.0,0.0,0.0,0.0,0.0,0.0,0.0,0.0,0.0,0.0,0.0,0.0,0.0,0.901,0.9893,1.0243,1.0409,1.0432,1.0293,0.9483,0.8784,0.8368,0.7129,0.0,0.0,0.0,0.0,0.0,0.0,0.0,0.0,0.0,0.0,0.0,0.0,0.0,0.0,0.0,0.0,0.0,0.0,0.0,0.0,0.0,0.0,0.0,0.0,0.0,0.0,0.0,0.0,0.0,0.0,0.0,0.0,0.0,0.0,0.0,0.0,0.0,0.0,0.0,0.0,0.0,0.0,0.0,0.0,0.0,0.0,0.0,0.0,0.0,0.0,0.0,0.0,0.0,0.0,0.0,0.0,0.0,0.0,0.0,0.0,0.0,0.0,0.0,0.0,0.0,0.0,0.0,0.0,0.0,0.0,0.0,0.0,0.0,0.0,0.0,0.0,0.0,0.0,0.0,0.0,0.0,0.0,0.0,0.0,0.0,0.0,0.0,0.0,0.0,0.0,0.0,0.0,0.0,0.0,0.0,0.0,0.0,0.0,0.0,0.0,0.0,0.0,0.8706,0.9434,1.0073,1.0185,1.0154,1.0005,0.9425,0.8801,0.8167,0.0,0.0,0.0,0.0,0.0,0.0,0.0,0.0,0.0,0.0,0.0,0.0,0.0,0.0,0.0,0.0,0.0,0.0,0.0,0.0,0.0,0.0,0.0,0.0,0.0,0.0,0.0,0.0,0.0,0.0,0.0,0.0,0.0,0.0,0.0,0.0,0.0,0.0,0.0,0.0,0.0,0.0,0.0,0.0,0.0,0.0,0.0,0.0,0.0,0.0,0.0,0.0,0.0,0.0,0.0,0.0,0.0,0.0,0.0,0.0,0.0,0.0,0.0,0.0,0.0,0.0,0.0,0.0,0.0,0.0,0.0,0.0,0.0,0.0,0.0,0.0,0.0,0.0,0.0,0.0,0.0,0.0,0.0,0.0,0.0,0.0,0.0,0.0,0.0,0.0,0.0,0.0,0.0,0.0,0.0,0.0,0.0,0.0,0.0,0.0,0.0,0.0,0.7853,0.8635,0.9323,0.9923,0.9987,0.9926,0.9832,0.9279,0.8642,0.7943,0.0,0.0,0.0,0.0,0.0,0.0,0.0,0.0,0.0,0.0,0.0,0.0,0.0,0.0,0.0,0.0,0.0,0.0,0.0,0.0,0.0,0.0,0.0,0.0,0.0,0.0,0.0,0.0,0.0,0.0,0.0,0.0,0.0,0.0,0.0,0.0,0.0,0.0,0.0,0.0,0.0,0.0,0.0,0.0,0.0,0.0,0.0,0.0,0.0,0.0,0.0,0.0,0.0,0.0,0.0,0.0,0.0,0.0,0.0,0.0,0.0,0.0,0.0,0.0,0.0,0.0,0.0,0.0,0.0,0.0,0.0,0.0,0.0,0.0,0.0,0.0,0.0,0.0,0.0,0.0,0.0,0.0,0.0,0.0,0.0,0.0,0.0,0.0,0.0,0.0,0.0,0.0,0.0,0.0,0.0,0.0,0.0,0.0,0.0,0.0,0.0,0.0,0.7894,0.8954,0.972,0.9953,0.9984,0.992,0.9829,0.8998,0.8231,0.0,0.0,0.0,0.0,0.0,0.0,0.0,0.0,0.0,0.0,0.0,0.0,0.0,0.0,0.0,0.0,0.0,0.0,0.0,0.0,0.0,0.0,0.0,0.0,0.0,0.0,0.0,0.0,0.0,0.0,0.0,0.0,0.0,0.0,0.0,0.0,0.0,0.0,0.0,0.0,0.0,0.0,0.0,0.0,0.0,0.0,0.0,0.0,0.0,0.0,0.0,0.0,0.0,0.0,0.0,0.0,0.0,0.0,0.0,0.0,0.0,0.0,0.0,0.0,0.0,0.0,0.0,0.0,0.0,0.0,0.0,0.0,0.0,0.0,0.0,0.0,0.0,0.0,0.0,0.0,0.0,0.0,0.0,0.0,0.0,0.0,0.0,0.0,0.0,0.0,0.0,0.0,0.0,0.0,0.0,0.0,0.0,0.0,0.0,0.0,0.0,0.0,0.0,0.7867,0.8771,0.9442,0.9846,0.9798,0.9676,0.9523,0.8977,0.8299,0.7489,0.0,0.0,0.0,0.0,0.0,0.0,0.0,0.0,0.0,0.0,0.0,0.0,0.0,0.0,0.0,0.0,0.0,0.0,0.0,0.0,0.0,0.0,0.0,0.0,0.0,0.0,0.0,0.0,0.0,0.0,0.0,0.0,0.0,0.0,0.0,0.0,0.0,0.0,0.0,0.0,0.0,0.0,0.0,0.0,0.0,0.0,0.0,0.0,0.0,0.0,0.0,0.0,0.0,0.0,0.0,0.0,0.0,0.0,0.0,0.0,0.0,0.0,0.0,0.0,0.0,0.0,0.0,0.0,0.0,0.0,0.0,0.0,0.0,0.0,0.0,0.0,0.0,0.0,0.0,0.0,0.0,0.0,0.0,0.0,0.0,0.0,0.0,0.0,0.0,0.0,0.0,0.0,0.0,0.0,0.0,0.0,0.0,0.0,0.0,0.0,0.0,0.0,0.7853,0.8693,0.9381,0.9774,0.9693,0.9547,0.9395,0.8967,0.8326,0.7473,0.0,0.0,0.0,0.0,0.0,0.0,0.0,0.0,0.0,0.0,0.0,0.0,0.0,0.0,0.0,0.0,0.0,0.0,0.0,0.0,0.0,0.0,0.0,0.0,0.0,0.0,0.0,0.0,0.0,0.0,0.0,0.0,0.0,0.0,0.0,0.0,0.0,0.0,0.0,0.0,0.0,0.0,0.0,0.0,0.0,0.0,0.0,0.0,0.0,0.0,0.0,0.0,0.0,0.0,0.0,0.0,0.0,0.0,0.0,0.0,0.0,0.0,0.0,0.0,0.0,0.0,0.0,0.0,0.0,0.0,0.0,0.0,0.0,0.0,0.0,0.0,0.0,0.0,0.0,0.0,0.0,0.0,0.0,0.0,0.0,0.0,0.0,0.0,0.0,0.0,0.0,0.0,0.0,0.0,0.0,0.0,0.0,0.0,0.0,0.0,0.0,0.0,0.7833,0.8659,0.9283,0.9734,0.9652,0.951,0.9371,0.8947,0.8316,0.7494,0.0,0.0,0.0,0.0,0.0,0.0,0.0,0.0,0.0,0.0,0.0,0.0,0.0,0.0,0.0,0.0,0.0,0.0,0.0,0.0,0.0,0.0,0.0,0.0,0.0,0.0,0.0,0.0,0.0,0.0,0.0,0.0,0.0,0.0,0.0,0.0,0.0,0.0,0.0,0.0,0.0,0.0,0.0,0.0,0.0,0.0,0.0,0.0,0.0,0.0,0.0,0.0,0.0,0.0,0.0,0.0,0.0,0.0,0.0,0.0,0.746,0.7279,0.0,0.0,0.0,0.0,0.0,0.0,0.0,0.0,0.0,0.0,0.0,0.0,0.0,0.0,0.0,0.0,0.0,0.0,0.0,0.0,0.0,0.0,0.0,0.0,0.0,0.0,0.0,0.0,0.0,0.0,0.0,0.0,0.0,0.0,0.0,0.0,0.0,0.0,0.0,0.0,0.7726,0.8411,0.8977,0.9425,0.934,0.9296,0.9262,0.8788,0.8252,0.7594,0.6844,0.0,0.0,0.0,0.0,0.0,0.0,0.0,0.0,0.0,0.0,0.0,0.0,0.0,0.0,0.0,0.0,0.0,0.0,0.0,0.0,0.0,0.0,0.0,0.0,0.0,0.0,0.0,0.0,0.0,0.0,0.0,0.0,0.0,0.0,0.0,0.0,0.0,0.0,0.0,0.0,0.0,0.0,0.0,0.0,0.0,0.0,0.0,0.0,0.0,0.0,0.0,0.0,0.0,0.0,0.0,0.0,0.0,0.0,0.0,0.8014,0.7773,0.0,0.0,0.0,0.0,0.0,0.0,0.0,0.0,0.0,0.0,0.0,0.0,0.0,0.0,0.0,0.0,0.0,0.0,0.0,0.0,0.0,0.0,0.0,0.0,0.0,0.0,0.0,0.0,0.0,0.0,0.0,0.0,0.0,0.0,0.0,0.0,0.0,0.0,0.0,0.0,0.7678,0.8336,0.8882,0.9334,0.9303,0.921,0.921,0.8794,0.8289,0.7838,0.7105,0.0,0.0,0.0,0.0,0.0,0.0,0.0,0.0,0.0,0.0,0.0,0.0,0.0,0.0,0.0,0.0,0.0,0.0,0.0,0.0,0.0,0.0,0.0,0.0,0.0,0.0,0.0,0.0,0.0,0.0,0.0,0.0,0.0,0.0,0.0,0.0,0.0,0.0,0.0,0.0,0.0,0.0,0.0,0.0,0.0,0.0,0.0,0.0,0.0,0.0,0.0,0.0,0.0,1.0907,1.0398,1.0324,1.0062,0.9786,0.9456,0.8713,0.8469,0.8554,0.7987,0.0,0.0,0.0,0.0,0.0,0.0,0.0,0.0,0.0,0.0,0.0,0.0,0.0,0.0,0.0,0.0,0.0,0.0,0.0,0.0,0.0,0.0,0.7579,0.7607,0.7753,0.7685,0.6846,0.0,0.0,0.0,0.0,0.0,0.0,0.0,0.0,0.0,0.0,0.0,0.7682,0.8313,0.8835,0.9259,0.9191,0.9173,0.9173,0.8726,0.8367,0.8046,0.7404,0.6827,0.0,0.0,0.0,0.0,0.0,0.0,0.0,0.0,0.0,0.0,0.0,0.0,0.0,0.0,0.0,0.0,0.0,0.0,0.0,0.0,0.0,0.0,0.0,0.0,0.0,0.0,0.0,0.0,0.0,0.0,0.0,0.0,1.66,1.6985,0.0,0.0,0.0,0.0,0.0,0.0,0.0,0.0,0.0,0.0,0.0,0.0,0.0,1.5493,1.6166,1.6188,1.6235,1.6154,1.651,1.5724,1.3872,1.2729,1.1352,0.9893,0.9775,0.0,0.9084,0.856,0.0,0.0,0.0,0.0,0.0,0.0,0.0,0.0,0.0,0.0,0.0,0.0,0.0,0.0,0.0,0.0,0.0,0.0,0.0,0.0,0.0,0.0,0.8234,0.8306,0.8367,0.8323,0.8112,0.7302,0.6566,0.6248,0.5965,0.5684,0.0,0.0,0.0,0.0,0.0,0.0,0.7692,0.8221,0.8635,0.8905,0.8925,0.8967,0.8967,0.8669,0.8414,0.8252,0.7658,0.7227,0.6991,0.6289,0.0,0.0,0.0,0.0,0.0,0.0,0.0,0.0,0.0,0.0,0.0,0.0,0.0,0.0,0.0,0.0,0.0,0.0,0.0,0.0,0.0,0.0,0.0,0.0,0.0,0.0,0.0,0.0,0.0,1.6319,1.7058,1.7186,1.7181,1.6887,0.0,0.0,0.0,0.0,0.0,0.0,0.0,0.0,0.0,1.8317,1.6104,1.5142,1.5541,1.4142,1.3396,1.3357,1.3613,1.3269,1.2408,1.1788,1.1123,1.0361,1.0361,1.0229,0.9856,0.9242,0.8862,0.8604,0.0,0.0,0.0,0.0,0.7868,0.8031,0.8337,0.8275,0.8056,0.7834,0.0,0.0,0.0,0.0,0.0,0.0,0.0,0.7468,0.7767,0.818,0.8533,0.8598,0.8737,0.8852,0.8567,0.8157,0.7641,0.705,0.6705,0.6373,0.5806,0.5739,0.0,0.0,0.0,0.721,0.7855,0.833,0.8696,0.8861,0.8885,0.8848,0.8818,0.8608,0.8421,0.833,0.7862,0.7553,0.7404,0.6876,0.6468,0.0,0.0,0.0,0.0,0.0,0.0,0.0,0.0,0.0,0.0,0.0,0.0,0.0,0.0,0.0,0.0,0.0,0.0,0.0,0.0,0.0,0.0,0.0,0.0,0.0,0.0,0.0,0.0,1.6774,1.746,1.7534,1.7869,1.7635,0.0,0.0,0.0,0.0,0.0,0.0,1.833,1.8657,1.8991,1.9359,1.7167,1.6167,1.6407,1.422,1.3106,1.3242,1.3242,1.28,1.2022,1.2022,1.1567,1.0721,1.0721,1.0656,1.0497,0.9829,0.9462,0.9259,0.8584,0.8394,0.8545,0.8455,0.853,0.8753,0.9091,0.9083,0.8927,0.8516,0.8201,0.7865,0.7234,0.0,0.0,0.0,0.0,0.7896,0.8143,0.8543,0.8835,0.8872,0.9018,0.9149,0.8872,0.8764,0.8489,0.7794,0.7444,0.7045,0.6383,0.6356,0.0,0.638,0.6976,0.759,0.8041,0.8455,0.8767,0.8868,0.8848,0.8832,0.872,0.8537,0.8384,0.833,0.8018,0.7821,0.7716,0.7421,0.7014,0.6495,0.0,0.0,0.0,0.0,0.0,0.0,0.0,0.0,0.0,0.0,0.0,0.0,0.0,0.0,0.0,0.0,0.0,0.0,0.0,0.0,0.0,0.0,0.0,0.0,0.0,0.0,0.0,0.0,0.0,1.839,1.8931,0.0,0.0,0.0,0.0,1.8377,1.8664,1.8971,1.9285,1.9579,2.0,2.0568,2.0471,2.0493,2.0783,2.06,2.0556,2.0569,2.0569,1.882,1.5654,1.5654,1.3844,1.0721,1.0721,1.0717,1.0673,1.0142,0.9866,0.9741,0.9276,0.9159,0.9149,0.8954,0.8998,0.918,0.9204,0.9204,0.9217,0.9276,0.892,0.8387,0.8019,0.7826,0.0,0.0,0.8208,0.8509,0.876,0.9011,0.9224,0.9313,0.9306,0.9207,0.919,0.891,0.8615,0.8289,0.7984,0.7719,0.7539,0.0,0.6987,0.7261,0.7465,0.775,0.8201,0.8523,0.8767,0.8868,0.8808,0.872,0.871,0.8445,0.833,0.8323,0.8116,0.7975,0.7968,0.7733,0.7424,0.7058,0.634,0.0,0.0,0.0,0.0,0.0,0.0,0.0,0.0,0.0,0.0,0.0,0.0,0.0,0.0,0.0,0.0,0.0,0.0,0.0,0.0,0.0,0.0,0.0,0.0,0.0,0.0,0.0,0.0,1.9553,1.9967,0.0,1.9132,1.9052,1.9132,1.9319,1.9599,2.006,2.0797,2.0688,2.0828,2.1293,1.8912,1.7641,1.7731,1.5524,1.4423,1.4423,1.4423,1.3779,1.2545,1.2545,1.1894,1.0721,1.0721,1.0721,1.0707,1.0548,1.0392,1.0219,0.9866,0.973,0.9724,0.9613,0.9626,0.973,0.973,0.9666,0.9544,0.9367,0.9025,0.8757,0.8595,0.8528,0.8567,0.8713,0.8832,0.9016,0.9171,0.9334,0.9435,0.9391,0.934,0.933,0.9231,0.8998,0.8825,0.872,0.8452,0.8133,0.7794,0.7841,0.7865,0.7682,0.8031,0.837,0.8533,0.873,0.8842,0.8798,0.8743,0.8632,0.8442,0.833,0.8228,0.813,0.8019,0.7988,0.7988,0.7845,0.7594,0.7295,0.6746,0.6071,0.0,0.0,0.0,0.0,0.0,0.0,0.0,0.0,0.0,0.0,0.0,0.0,0.0,0.0,0.0,0.0,0.0,0.0,0.0,0.0,0.0,0.0,0.0,0.0,0.0,1.8844,1.9806,2.0187,2.0755,2.0808,2.0034,2.0134,2.0327,2.0521,2.0715,2.1082,2.167,2.151,2.145,2.1614,1.9124,1.7751,1.7667,1.5329,1.4232,1.4232,1.3582,1.2997,1.2413,1.1828,1.124,1.0721,1.0721,1.0721,1.0721,1.0721,1.066,1.0544,1.0293,1.0198,1.0129,1.0144,1.0127,1.012,1.0004,0.992,0.9832,0.9435,0.9242,0.9157,0.9103,0.9086,0.9106,0.9205,0.9323,0.933,0.9432,0.9568,0.9656,0.9554,0.9493,0.9415,0.932,0.9113,0.8994,0.8892,0.8733,0.8465,0.8167,0.8319,0.8381,0.8082,0.8421,0.8693,0.8638,0.8767,0.8804,0.8648,0.8591,0.8482,0.8337,0.8221,0.8147,0.7995,0.7941,0.7891,0.7843,0.7743,0.7522,0.7227,0.6729,0.6132,0.547,0.0,0.0,0.0,0.0,0.0,0.0,0.0,0.0,0.0,0.0,0.0,0.0,0.0,0.0,0.0,0.0,0.0,0.0,0.0,0.0,0.0,0.0,0.0,1.8015,1.9294,2.0267,2.0301,2.1303,2.1777,2.1203,2.1657,2.1991,2.1997,2.1991,2.1991,2.2011,2.1997,2.1857,2.1641,2.1557,2.1345,2.1046,2.0976,2.0912,2.0912,1.9221,1.7538,1.5784,1.4101,1.2347,1.0721,1.0721,1.0721,1.0721,1.0721,1.0721,1.0707,1.0558,1.05,1.0483,1.0344,1.029,1.0263,1.011,0.999,0.994,0.971,0.9615,0.9588,0.9439,0.9395,0.9395,0.9395,0.9503,0.9615,0.9615,0.972,0.9822,0.9822,0.9713,0.9568,0.9415,0.932,0.9166,0.8912,0.8818,0.8716,0.8716,0.8594,0.8496,0.8496,0.8621,0.0,0.8509,0.8618,0.8652,0.8492,0.8353,0.832,0.8313,0.8126,0.7988,0.7982,0.7892,0.775,0.7611,0.7455,0.7231,0.6893,0.6306,0.5901,0.561,0.0,0.0,0.0,0.0,0.0,0.0,0.0,0.0,0.0,0.0,0.0,0.0,0.0,0.0,0.0,0.0,0.0,0.0,0.0,0.0,0.0,1.8243,1.9292,1.9586,2.0347,2.1102,2.1744,2.2104,2.2238,2.2071,2.2011,2.2071,2.2285,2.2104,2.2171,2.2599,2.2218,2.1951,2.1871,2.0459,1.956,1.9228,1.7988,1.7339,1.7339,1.6824,1.5719,1.397,1.3517,1.2347,1.0721,1.0721,1.0721,1.0721,1.0721,1.0721,1.0717,1.0673,1.0656,1.0653,1.0612,1.0527,1.0412,1.0266,1.0144,0.9957,0.9825,0.9764,0.9754,0.9713,0.97,0.97,0.97,0.973,0.9764,0.9764,0.9791,0.9822,0.9822,0.9713,0.9568,0.9415,0.932,0.9166,0.8912,0.8851,0.8821,0.8821,0.8842,0.8815,0.8815,0.8794,0.8821,0.8665,0.8682,0.8611,0.8357,0.8344,0.8225,0.8113,0.8015,0.7941,0.7882,0.7834,0.7794,0.7753,0.7506,0.7231,0.6893,0.6549,0.6261,0.0,0.0,0.0,0.0,0.0,0.0,0.0,0.0,0.0,0.0,0.0,0.0,0.0,0.0,0.0,0.0,0.0,0.0,0.0,0.0,0.0,0.0,1.9332,2.0354,2.0889,2.137,2.1844,2.2358,2.2532,2.2605,2.2605,2.2452,2.2425,2.2592,2.2452,2.2498,2.2914,2.2418,2.2111,2.1991,2.0765,1.9955,1.961,1.857,1.7731,1.7017,1.7017,1.5724,1.3325,1.3325,1.2347,1.0721,1.0721,1.0721,1.0721,1.0721,1.0721,1.0721,0.0,0.0,0.0,0.0,1.0663,1.0558,1.0351,1.0222,1.011,0.989,0.9822,0.9822,0.9822,0.9822,0.9822,0.9822,0.9822,0.9822,0.9822,0.9822,0.9822,0.9822,0.9758,0.9639,0.9429,0.931,0.9188,0.8925,0.8885,0.0,0.8885,0.8885,0.8885,0.8885,0.8885,0.8828,0.873,0.8655,0.8526,0.8347,0.8211,0.8136,0.7995,0.7988,0.0,0.0,0.0,0.7726,0.7536,0.7309,0.0,0.0,0.0,0.0,0.0,0.0,0.0,0.0,0.5993,0.5905,0.0,0.0,0.0,0.0,0.0,0.0,0.0,0.0,0.0,0.0,0.0,0.0,0.0,0.0,0.0,0.0,2.0368,2.1069,2.1917,2.2285,2.2472,2.2472,2.2706,2.2928,2.2928,2.2928,2.2928,2.2928,2.2928,2.2928,2.2928,2.2579,0.0,0.0,0.0,2.1146,2.0786,2.0589,1.9744,1.8186,1.8186,1.6496,1.3325,1.3325,1.2347,1.0721,1.0721,1.0721,1.0721,1.0721,1.0721,1.0721,1.0721,1.0721,1.0721,1.0721,1.0721,1.0677,1.0382,0.0,0.0,0.992,0.9822,0.9822,0.9822,0.9822,0.9822,0.9822,0.9822,0.9822,0.9822,0.9822,0.9822,0.9822,0.9822,0.9744,0.9466,0.9395,0.93,0.9018,0.8895,0.8885,0.8885,0.8885,0.8885,0.8885,0.8885,0.8828,0.873,0.8591,0.8455,0.8361,0.8157,0.0,0.8015,0.8002,0.7982,0.7965,0.7885,0.7624,0.7166,0.7041,0.6967,0.6937,0.6953,0.7126,0.7415,0.7436,0.745,0.74,0.6569,0.6396,0.0,0.0,0.0,0.0,0.0,0.0,0.0,0.0,0.0,0.0,0.0,0.0,0.0,0.0,0.0,1.9667,2.0842,2.1668,2.2245,2.2592,2.2779,2.2779,2.2826,2.2928,2.2928,2.2928,2.2928,2.2928,2.2928,2.2928,2.2928,2.2579,2.2285,2.1997,2.0366,1.936,1.903,1.7602,1.6754,1.6431,1.6431,0.0,1.3325,1.3325,1.2347,1.0721,1.0721,1.0721,1.0721,1.0721,1.0721,1.0721,1.0721,1.0721,1.0721,1.0721,1.0721,1.0677,1.0382,1.028,1.0229,0.992,0.9822,0.9822,0.9822,0.9822,0.0,0.9822,0.9822,0.9822,0.9822,0.9822,0.9822,0.9822,0.9822,0.9774,0.9602,0.9469,0.9327,0.9204,0.9018,0.8885,0.8885,0.8885,0.8885,0.8885,0.8885,0.8828,0.873,0.8682,0.8608,0.8459,0.8313,0.8225,0.8225,0.8109,0.7938,0.7865,0.7828,0.7723,0.7519,0.7594,0.7529,0.7288,0.7407,0.7438,0.7415,0.7495,0.7614,0.7716,0.7305,0.7156,0.0,0.0,0.0,0.0,0.0,0.0,0.0,0.0,0.0,0.0,0.0,1.0911,1.4303,0.0,1.6805,1.9212,2.0974,2.2084,2.2378,2.2672,2.2928,2.2928,2.2928,2.2928,2.2928,2.2928,2.2928,2.2928,2.2928,2.2928,2.2928,2.2445,2.1726,2.0702,1.9434,1.8248,1.7211,1.6366,1.5464,1.4619,1.5459,1.4553,1.2022,1.2869,1.2347,1.0721,1.0721,1.0721,1.0721,1.0721,1.0721,1.0721,1.0721,1.0721,1.0721,1.0721,1.0721,1.0677,1.0382,1.028,1.0229,0.992,0.9822,0.9822,0.9822,0.9822,0.9822,0.9822,0.9822,0.9822,0.9822,0.9822,0.9822,0.9822,0.9822,0.9781,0.9639,0.9551,0.9429,0.9255,0.9096,0.9022,0.8895,0.8885,0.8885,0.8885,0.8885,0.8854,0.8835,0.8757,0.8679,0.8604,0.8465,0.8377,0.8377,0.8241,0.8089,0.7887,0.7877,0.7858,0.7712,0.7773,0.7743,0.7594,0.7668,0.7706,0.7706,0.7784,0.7855,0.7874,0.7773,0.7706,0.0,0.0,0.0,0.0,0.0,0.0,0.0,0.8686,0.9248,1.0546,1.0153,1.0595,1.3737,1.5147,1.653,1.8728,2.0917,2.2438,2.2498,2.2712,2.2908,2.2786,2.2894,2.2928,2.2928,2.2928,2.2928,2.2928,2.2928,2.2928,2.2928,2.2305,2.1172,1.9482,1.8841,1.7468,1.5399,1.5399,1.4488,1.2804,1.4232,1.3386,1.0721,1.2153,1.2022,1.0721,1.0721,1.0721,1.0721,1.0721,1.0721,1.0721,1.0721,1.0721,1.0721,1.0721,1.0721,1.0677,1.0382,1.028,1.0229,0.992,0.9822,0.9822,0.9822,0.9822,0.9822,0.9822,0.9822,0.9822,0.9822,0.9822,0.9822,0.9822,0.9822,0.9788,0.9676,0.9629,0.9537,0.9347,0.9251,0.9173,0.8998,0.8902,0.8885,0.8885,0.8885,0.8885,0.8885,0.8832,0.8754,0.8754,0.8618,0.8513,0.8482,0.8377,0.8258,0.8083,0.8076,0.8058,0.7906,0.7902,0.7885,0.7858,0.7855,0.7916,0.7988,0.7988,0.7988,0.7988,0.7988,0.7988,0.8669,0.8343,0.8103,0.852,0.8635,0.8866,0.0,0.9697,0.9778,1.0253,1.0383,1.0952,1.2906,1.4947,1.7018,1.9049,2.1044,2.2512,2.2779,2.2908,2.2766,2.2498,2.2706,2.2928,2.2928,2.2928,2.2928,2.2928,2.2928,2.2928,2.2928,2.2305,2.1172,1.9482,1.8841,1.6888,1.3648,1.3582,1.2738,1.0979,1.1178,1.1111,1.0721,1.0916,1.085,1.0721,1.0721,1.0721,1.0721,1.0721,1.0721,1.0721,1.0721,1.0721,1.0721,1.0721,1.0721,1.0677,1.0382,1.028,1.0229,0.992,0.9822,0.9822,0.9822,0.9822,0.9822,0.9822,0.9822,0.9822,0.9822,0.9822,0.9822,0.9822,0.9822,0.9819,0.9802,0.9696,0.9598,0.9564,0.934,0.9204,0.9187,0.9022,0.8885,0.8885,0.8885,0.8885,0.8885,0.8868,0.8858,0.8858,0.8774,0.8628,0.8492,0.8469,0.8452,0.8435,0.8431,0.837,0.8225,0.8218,0.8157,0.7968,0.7965,0.7971,0.7988,0.7988,0.7988,0.7988,0.7988,0.7988,0.9144,0.8896,0.8733,0.892,0.9164,0.9456,0.9832,1.0005,1.0148,1.0358,1.0521,1.0819,1.1595,1.3511,1.5668,1.7575,1.8727,2.0209,2.2565,2.1806,2.1312,2.2297,2.2378,2.2418,2.2585,2.2605,2.2679,2.2914,2.2928,2.2928,2.2928,2.2305,2.1172,1.9482,1.8841,1.6824,1.332,1.3325,1.2413,1.0721,1.0721,1.0721,1.0721,1.0721,1.0721,1.0721,1.0721,1.0721,1.0721,1.0721,1.0721,1.0721,1.0721,1.0721,1.0721,1.0721,1.0721,1.0677,1.0382,1.028,1.0229,0.992,0.9822,0.9822,0.9822,0.9822,0.9822,0.9822,0.9822,0.9822,0.9822,0.9822,0.9822,0.9822,0.9822,0.9822,0.9822,0.9774,0.9707,0.9625,0.9507,0.9391,0.9357,0.9164,0.9062,0.9062,0.8991,0.8885,0.8885,0.8885,0.8885,0.8885,0.8824,0.8781,0.8628,0.8615,0.8577,0.8486,0.8482,0.8455,0.8394,0.8368,0.8241,0.8174,0.8035,0.7988,0.7988,0.7988,0.7988,0.7992,0.8133,0.8174,0.93,0.9208,0.9241,0.9364,0.9646,0.9958,0.9998,1.0212,1.0429,1.0534,1.0643,1.0721,1.0721,1.2459,1.4562,1.6498,1.6973,1.8272,2.1545,2.0612,2.0091,2.1305,2.172,2.1951,2.2158,2.2251,2.2418,2.2719,2.2739,2.2779,2.2928,2.2305,2.1172,1.9482,1.9301,1.7538,1.4036,1.4036,1.3128,1.1439,1.0916,1.0721,1.0721,1.0721,1.0721,1.0721,1.0721,1.0721,1.0721,1.0721,1.0721,1.0721,1.0721,1.0721,1.0721,1.0721,1.0721,1.0683,1.0429,1.0314,1.0236,0.9971,0.9856,0.9822,0.9822,0.9849,0.9876,0.9832,0.9849,0.9873,0.9832,0.9822,0.9822,0.9822,0.9822,0.9822,0.9822,0.9822,0.9791,0.9686,0.9635,0.9574,0.9462,0.934,0.921,0.921,0.9032,0.8885,0.8885,0.8885,0.8885,0.8885,0.8885,0.8838,0.8781,0.8774,0.8726,0.8615,0.8608,0.8587,0.8547,0.8445,0.8374,0.833,0.8218,0.816,0.816,0.816,0.816,0.8163,0.8275,0.8381,0.8991,0.9052,0.9313,0.9693,1.0036,1.0304,1.0439,1.0595,1.0707,1.0714,1.0717,1.0721,1.0721,1.2429,1.4468,1.6473,1.6909,1.7681,1.9601,1.9737,1.9481,1.9113,2.0572,2.1635,2.1641,2.1837,2.2118,2.2412,2.2432,2.2559,2.2846,2.2305,2.1172,1.9482,2.0425,1.9349,1.5848,1.5848,1.4944,1.3193,1.1501,1.0721,1.0721,1.0721,1.0721,1.0721,1.0721,1.0721,1.0721,1.0721,1.0721,1.0721,1.0721,1.0721,1.0721,1.0721,1.0721,1.0697,1.0538,1.0395,1.0253,1.0031,0.9879,0.9822,0.9822,0.9862,0.995,0.9863,0.9866,0.9947,0.9859,0.9822,0.9822,0.9822,0.9822,0.9822,0.9822,0.9822,0.9819,0.9815,0.9703,0.9608,0.9605,0.9354,0.921,0.921,0.9032,0.8885,0.8885,0.8885,0.8885,0.8885,0.8885,0.8881,0.8875,0.8875,0.8875,0.8868,0.8868,0.8804,0.871,0.8699,0.8628,0.8479,0.8472,0.8469,0.8469,0.8469,0.8469,0.8469,0.8472,0.8476,0.9218,0.9412,0.968,1.0036,1.0273,1.046,1.0609,1.0683,1.0721,1.0721,1.0639,1.0599,1.07,1.1286,1.2425,1.4459,1.3954,1.4362,1.7528,1.7802,1.8094,1.8994,2.0602,2.1541,2.1276,2.1523,2.1817,2.2111,2.2311,2.2378,2.2285,2.2091,2.1628,2.0895,2.1047,1.9998,1.7667,1.6496,1.5009,1.3259,1.1501,1.0721,1.0721,1.0721,1.0721,1.0721,1.0721,1.0721,1.0721,1.0721,1.0721,1.0721,1.0721,1.0721,1.0721,1.0721,1.0721,1.07,1.0544,1.046,1.0395,1.0249,1.0097,0.993,1.0093,1.009,0.9997,1.011,1.0164,1.0168,0.995,0.9909,0.9886,0.9846,0.9822,0.9822,0.9822,0.9822,0.9822,0.9822,0.9781,0.9751,0.9751,0.9588,0.9422,0.932,0.9096,0.8885,0.8885,0.8885,0.8885,0.8885,0.8885,0.8885,0.8885,0.8885,0.8885,0.8885,0.8885,0.8861,0.8807,0.8764,0.8686,0.8635,0.8533,0.8482,0.8482,0.8482,0.8482,0.8482,0.8584,0.8632,0.9534,0.9758,0.9988,1.0348,1.0507,1.0599,1.0697,1.0721,1.0704,1.0649,1.0521,1.0429,1.0473,1.0436,1.112,1.3288,1.2263,1.228,1.5476,1.5834,1.6298,1.79,1.9518,2.0657,2.1066,2.0752,2.0851,2.1804,2.2004,2.2071,2.1991,2.1891,2.1809,2.1628,2.1263,2.0583,1.9419,1.7082,1.4684,1.2347,1.1244,1.0721,1.0721,1.0721,1.0721,1.0721,1.0721,1.0721,1.0721,1.0721,1.0721,1.0721,1.0721,1.0721,1.0721,1.0721,1.0721,1.0707,1.0609,1.0538,1.0477,1.0385,1.0256,1.0151,1.0249,1.0246,1.0219,1.0266,1.0317,1.0307,1.0041,0.9987,0.995,0.9859,0.9822,0.9822,0.9822,0.9822,0.9822,0.9822,0.9822,0.9822,0.9822,0.9703,0.9557,0.9405,0.9218,0.9076,0.9022,0.8971,0.8885,0.8885,0.8885,0.8885,0.8885,0.8885,0.8885,0.8885,0.8885,0.8885,0.8885,0.8845,0.8791,0.8791,0.8696,0.8645,0.8645,0.8645,0.8645,0.8648,0.8747,0.8791,0.99,1.0011,1.0122,1.0616,1.0721,1.0721,1.0721,1.0714,1.0666,1.0514,1.0354,1.0202,0.999,0.9852,1.0512,1.2745,1.1792,1.1435,1.3564,1.3827,1.4371,1.598,1.7538,1.9206,2.0939,1.9629,1.9408,2.131,2.1479,2.1599,2.1924,2.1762,2.1608,2.1594,2.1256,2.1109,2.1109,1.7661,1.4166,1.0721,1.0721,1.0721,1.0721,1.0721,1.0721,1.0721,1.0721,1.0721,1.0721,1.0721,1.0721,1.0721,1.0721,1.0721,1.0721,1.0721,1.0721,1.0721,1.0721,1.0626,1.0504,1.0504,1.0409,1.0293,1.03,1.0392,1.0466,1.0337,1.0399,1.0436,1.0075,1.0,0.996,0.9859,0.9822,0.9822,0.9822,0.9822,0.9822,0.9822,0.9822,0.9822,0.9822,0.971,0.9571,0.9425,0.9398,0.9337,0.9241,0.9045,0.8905,0.8905,0.8898,0.8895,0.8895,0.8888,0.8885,0.8885,0.8885,0.8885,0.8885,0.8885,0.8885,0.8885,0.8885,0.8885,0.8885,0.8885,0.8885,0.8885,0.8885,0.8885,1.0117,1.0382,1.0578,1.069,1.0721,1.0721,1.0721,1.0633,1.051,1.0365,1.0039,0.9768,0.973,0.9778,1.0016,1.0742,1.0989,1.1279,1.1833,1.3288,1.4841,1.6421,1.8255,1.9893,2.1348,2.1044,2.0387,1.9401,1.9508,2.0165,2.1272,2.1476,2.1521,2.1229,2.1149,2.1109,2.1109,1.7661,1.4166,1.0721,1.0721,1.0721,1.0721,1.0721,1.0721,1.0721,1.0721,1.0721,1.0721,1.0721,1.0721,1.0721,1.0721,1.0721,1.0721,1.0721,1.0721,1.0721,1.0721,1.0694,1.0663,1.0663,1.0561,1.046,1.0575,1.0555,1.0507,1.0585,1.0633,1.0592,1.0297,1.0222,1.0154,0.9883,0.9822,0.9822,0.9822,0.9822,0.9822,0.9822,0.9822,0.9822,0.9822,0.9791,0.9754,0.9717,0.9618,0.9496,0.9344,0.9289,0.9269,0.9269,0.9167,0.9096,0.9096,0.8998,0.8885,0.8885,0.8885,0.8885,0.8885,0.8885,0.8885,0.8885,0.8885,0.8885,0.8885,0.8885,0.8885,0.8885,0.8885,0.8885,1.0392,1.0595,1.0721,1.0721,1.0721,1.067,1.047,1.0412,1.0283,0.9869,0.9585,0.9367,0.9239,0.9334,0.9527,0.9748,1.0375,1.0934,1.1193,1.2271,1.3624,1.5395,1.7171,1.8911,2.037,2.0493,1.9958,1.8818,1.9493,1.9906,1.9947,2.0873,2.1283,2.1116,2.1109,2.0716,1.9941,1.7275,1.4553,1.1828,1.1045,1.0721,1.0721,1.0721,1.0721,1.0721,1.0721,1.0721,1.0721,1.0721,1.0721,1.0721,1.0721,1.0721,1.0721,1.0721,1.0721,1.0721,1.0721,1.0721,1.0721,1.0721,1.0663,1.0609,1.0694,1.066,1.0609,1.0697,1.0721,1.0666,1.0432,1.0327,1.0219,0.9978,0.9869,0.9822,0.9822,0.9822,0.9822,0.9822,0.9822,0.9822,0.9822,0.9822,0.9822,0.9822,0.9754,0.9673,0.9585,0.9462,0.9381,0.9381,0.9361,0.9309,0.9309,0.9181,0.9133,0.9133,0.9133,0.9133,0.9133,0.9133,0.9133,0.9133,0.9066,0.9032,0.9032,0.8967,0.8885,0.8885,0.8885,0.8974,1.0643,1.0721,1.0721,1.0721,1.0704,1.0582,1.0112,1.0137,0.9995,0.9354,0.9163,0.9036,0.8703,0.8808,0.9023,0.951,0.9988,1.0504,1.1056,1.1168,1.1927,1.3792,1.5403,1.7,1.8731,1.8996,1.8833,1.8305,1.9867,2.017,1.857,1.9935,2.0849,2.1109,2.1109,2.0132,1.8186,1.663,1.4879,1.2935,1.1439,1.0721,1.0721,1.0721,1.0721,1.0721,1.0721,1.0721,1.0721,1.0721,1.0721,1.0721,1.0721,1.0721,1.0721,1.0721,1.0721,1.0721,1.0721,1.0721,1.0721,1.0721,1.0721,1.0721,1.0721,1.0721,1.0721,1.0721,1.0721,1.0683,1.0531,1.0399,1.027,1.0117,0.9978,0.9883,0.9883,0.9866,0.9849,0.9849,0.9836,0.9822,0.9822,0.9822,0.9822,0.9822,0.9822,0.9822,0.9822,0.9598,0.9439,0.9439,0.9422,0.9412,0.9412,0.9395,0.9381,0.9381,0.9381,0.9381,0.9381,0.9381,0.9381,0.9381,0.9309,0.9241,0.9241,0.9059,0.8942,0.8942,0.8942,0.9066,1.0673,1.0721,1.0721,1.0721,1.0626,1.048,1.0287,0.9975,0.0,0.9289,0.891,0.8547,0.8377,0.8672,0.9045,0.9367,1.0002,1.0578,1.0934,1.1196,1.2053,1.394,1.4539,1.5388,1.707,1.8597,1.807,1.4691,1.7467,1.913,1.8518,1.8768,1.961,2.1046,2.1109,1.9546,1.6366,1.6043,1.4297,1.1178,1.085,1.0721,1.0721,1.0721,1.0721,1.0721,1.0721,1.0721,1.0721,1.0721,1.0721,1.0721,1.0721,1.0721,1.0721,1.0721,1.0721,1.0721,1.0721,1.0721,1.0721,1.0721,1.0721,1.0721,1.0721,1.0721,1.0721,1.0721,1.0721,1.0683,1.0531,1.0473,1.0419,1.0273,1.0219,1.0202,1.0202,1.01,0.9947,0.9947,0.9845,0.9822,0.9822,0.9822,0.9822,0.9822,0.9822,0.9822,0.9822,0.9778,0.9744,0.9744,0.9639,0.9568,0.9568,0.9452,0.9381,0.9381,0.9381,0.9381,0.9381,0.9381,0.9381,0.9381,0.9354,0.934,0.934,0.9317,0.9306,0.9306,0.9306,0.9317,1.0799,1.0782,1.0741,1.0819,1.0663,1.0371,0.9917,0.0,0.0,0.8699,0.8465,0.8326,0.8177,0.8452,0.8801,0.9103,0.9513,1.0008,1.0626,1.0833,1.1374,1.2594,1.3687,1.4677,1.5486,1.708,1.686,1.3967,1.5153,1.5964,1.5794,1.7538,1.9285,2.1039,2.1109,1.9871,1.7275,1.6366,1.4619,1.2022,1.1111,1.0721,1.0721,1.0721,1.0721,1.0721,1.0721,1.0721,1.0721,1.0721,1.0721,1.0721,1.0721,1.0721,1.0721,1.0721,1.0721,1.0721,1.0721,1.0721,1.0721,1.0721,1.0721,1.0721,1.0721,1.0721,1.0721,1.0721,1.0721,1.0704,1.0629,1.0551,1.0473,1.0409,1.0334,1.028,1.028,1.0222,1.0171,1.0171,1.011,1.0059,1.0059,1.0059,1.0059,1.0059,0.9992,0.9879,0.9879,0.9869,0.9822,0.9822,0.9758,0.972,0.972,0.9652,0.9608,0.9608,0.9608,0.9608,0.9608,0.9608,0.9608,0.9608,0.9537,0.95,0.95,0.9418,0.9381,0.9381,0.9381,0.9422,1.0799,1.0812,1.0748,1.0803,1.067,1.0266,0.9585,0.9357,0.0,0.8255,0.816,0.8184,0.8012,0.8258,0.8537,0.8842,0.9066,0.9541,1.0283,1.048,1.0727,1.1236,1.2748,1.3683,1.3683,1.5147,1.5285,1.3491,1.2986,1.2935,1.3259,1.663,1.9158,2.0519,2.0912,2.0068,1.7988,1.6565,1.4814,1.2738,1.1372,1.0721,1.0721,1.0721,1.0721,1.0721,1.0721,1.0721,1.0721,1.0721,1.0721,1.0721,1.0721,1.0721,1.0721,1.0721,1.0721,1.0721,1.0721,1.0721,1.0721,1.0721,1.0721,1.0721,1.0721,1.0721,1.0721,1.0721,1.0721,1.0721,1.0721,1.0629,1.0541,1.0541,1.0456,1.0375,1.0375,1.0348,1.0327,1.0327,1.03,1.028,1.028,1.028,1.028,1.028,1.0178,1.0038,1.0038,0.9995,0.9907,0.9873,0.9839,0.9822,0.9822,0.9822,0.9822,0.9822,0.9822,0.9822,0.9822,0.9822,0.9822,0.9822,0.971,0.9656,0.9656,0.9534,0.9476,0.9476,0.9476,0.954,1.0738,1.0731,1.0724,1.0738,1.0517,1.0175,0.9696,0.0,0.8842,0.835,0.8147,0.8008,0.7992,0.8177,0.8387,0.8682,0.0,0.953,0.996,1.0443,1.0772,1.0897,1.1252,1.1476,1.1476,1.3154,1.3411,1.1314,1.1009,1.1633,1.3193,1.663,1.857,1.8704,2.0259,1.9483,1.6172,1.5978,1.4232,1.0916,1.0787,1.0721,1.0721,1.0721,1.0721,1.0721,1.0721,1.0721,1.0721,1.0721,1.0721,1.0721,1.0721,1.0721,1.0721,1.0721,1.0721,1.0721,1.0721,1.0721,1.0721,1.0721,1.0721,1.0721,1.0721,1.0721,1.0721,1.0721,1.0721,1.0721,1.0721,1.0711,1.07,1.07,1.0687,1.068,1.068,1.0571,1.0473,1.0473,1.0368,1.028,1.028,1.028,1.028,1.028,1.0266,1.0259,1.0259,1.0246,1.0185,0.998,0.9903,0.9822,0.9822,0.9822,0.9822,0.9822,0.9822,0.9822,0.9822,0.9822,0.9822,0.9822,0.9808,0.9802,0.9802,0.9788,0.9781,0.9781,0.9781,0.9788,1.0718,1.0792,1.0744,1.0766,1.0568,1.0141,0.9595,0.9195,0.873,0.8241,0.8032,0.7988,0.7988,0.8089,0.8201,0.8411,0.852,0.8764,0.9249,0.9608,0.9968,1.0483,1.0755,1.0965,1.1214,1.1761,1.1778,1.0822,1.0755,1.0979,1.1699,1.5009,1.7404,1.8442,2.0195,1.9419,1.5913,1.5913,1.4166,1.0721,1.0721,1.0721,1.0721,1.0721,1.0721,1.0721,1.0721,1.0721,1.0721,1.0721,1.0721,1.0721,1.0721,1.0721,1.0721,1.0721,1.0721,1.0721,1.0721,1.0721,1.0721,1.0721,1.0721,1.0721,1.0721,1.0721,1.0721,1.0721,1.0721,1.0721,1.0721,1.0721,1.0721,1.0721,1.0721,1.0721,1.0721,1.0673,1.0629,1.0629,1.0582,1.0544,1.0544,1.0544,1.0544,1.0544,1.0466,1.0409,1.0409,1.0334,1.0256,1.0195,1.0134,1.0022,0.9836,0.9992,1.0019,0.9832,0.9845,0.9856,0.9825,0.9822,0.9822,0.9822,0.9822,0.9822,0.9822,0.9822,0.9822,0.9822,0.9822,0.9822,1.0704,1.0768,1.0748,1.0786,1.0544,1.0066,0.9507,0.9117,0.8659,0.8103,0.7988,0.7988,0.7988,0.7988,0.8025,0.0,0.8184,0.8298,0.8811,0.91,0.9507,1.007,1.0368,1.0622,1.0877,1.089,1.0769,1.0727,1.0721,1.0721,1.0721,1.4036,1.6431,1.7667,1.9413,1.8896,1.5913,1.5913,1.4166,1.0721,1.0721,1.0721,1.0721,1.0721,1.0721,1.0721,1.0721,1.0721,1.0721,1.0721,1.0721,1.0721,1.0721,1.0721,1.0721,1.0721,1.0721,1.0721,1.0721,1.0721,1.0721,1.0721,1.0721,1.0721,1.0721,1.0721,1.0721,1.0721,1.0721,1.0721,1.0721,1.0721,1.0721,1.0721,1.0721,1.0721,1.0721,1.0721,1.0721,1.0721,1.0721,1.0721,1.0721,1.0721,1.0721,1.0721,1.0629,1.0558,1.0558,1.0473,1.0392,1.0348,1.0385,1.0287,0.9985,1.0154,1.0188,0.9971,1.0059,1.007,0.9961,0.9914,0.9886,0.9886,0.9842,0.9822,0.9822,0.9822,0.9822,0.9822,0.9822,0.9822,1.0415,1.0605,1.0721,1.0721,1.0321,0.9872,0.9483,0.9035,0.8584,0.8083,0.7988,0.7988,0.7988,0.7988,0.7988,0.7992,0.8286,0.8584,0.8841,0.9195,0.949,0.9788,0.9899,1.0117,1.0276,1.0551,1.0721,1.0721,1.0721,1.0721,1.0721,1.4036,1.5913,1.5913,1.7602,1.7667,1.5918,1.5913,1.4166,1.0721,1.0721,1.0721,1.0721,1.0721,1.0721,1.0721,1.0721,1.0721,1.0721,1.0721,1.0721,1.0721,1.0721,1.0721,1.0721,1.0721,1.0721,1.0721,1.0721,1.0721,1.0721,1.0721,1.0721,1.0721,1.0721,1.0721,1.0721,1.0721,1.0721,1.0721,1.0721,1.0721,1.0721,1.0721,1.0721,1.0721,1.0721,1.0721,1.0721,1.0721,1.0721,1.0721,1.0721,1.0721,1.0721,1.0721,1.0717,1.0717,1.0717,1.0717,1.0656,1.0507,1.0626,1.0599,1.03,1.028,1.028,1.0276,1.0276,1.0276,1.0276,1.0127,0.9984,0.9984,0.9897,0.9822,0.9822,0.9822,0.9822,0.9822,0.9822,0.9822,0.968,0.9846,0.9937,0.9829,0.9618,0.9347,0.9001,0.8733,0.8455,0.8059,0.7988,0.7988,0.7988,0.7988,0.8056,0.8309,0.0,0.0,0.8754,0.913,0.9456,0.9652,1.0168,1.0527,1.0575,1.0666,1.0721,1.0721,1.0721,1.0721,1.0721,1.1762,1.2869,1.4101,1.8116,1.8896,1.5913,1.7082,1.5913,1.2479,1.2479,1.1828,1.0721,1.0721,1.0721,1.0721,1.0721,1.0721,1.0721,1.0721,1.0721,1.0721,1.0721,1.0721,1.0721,1.0721,1.0721,1.0721,1.0721,1.0721,1.0721,1.0721,1.0721,1.0721,1.0721,1.0721,1.0721,1.0721,1.0721,1.0721,1.0721,1.0721,1.0721,1.0721,1.0721,1.0721,1.0721,1.0721,1.0721,1.0721,1.0721,1.0721,1.0721,1.0721,1.0721,1.0721,1.0721,1.0721,1.0721,1.0721,1.07,1.0653,1.069,1.0602,1.0304,1.0466,1.0493,1.0293,1.0371,1.0382,1.0283,1.0236,1.0209,1.0209,1.0161,1.0134,1.0134,1.0134,1.0134,1.0134,1.0134,1.0134,0.0,0.9408,0.95,0.9405,0.9225,0.9008,0.8764,0.855,0.8333,0.8039,0.7988,0.7971,0.7914,0.7904,0.8014,0.8201,0.8228,0.8343,0.8665,0.9001,0.9354,0.973,1.0236,1.0575,1.0629,1.0687,1.0721,1.0721,1.0721,1.0721,1.0721,1.1306,1.2153,1.3259,1.7082,1.8442,1.6888,1.7988,1.6759,1.3325,1.3325,1.2413,1.0721,1.0721,1.0721,1.0721,1.0721,1.0721,0.0,1.0721,1.0721,1.0721,1.0721,1.0721,1.0721,1.0721,1.0721,1.0721,1.0721,1.0721,1.0721,1.0721,1.0721,1.0721,1.0721,1.0721,1.0721,1.0721,1.0721,1.0721,1.0721,1.0721,1.0721,1.0721,1.0721,1.0721,1.0721,1.0721,1.0721,1.0721,1.0721,1.0721,1.0721,1.0721,1.0721,1.0721,1.0721,1.0721,1.0721,1.0721,1.0721,1.0721,1.0721,1.0646,1.0463,1.0616,1.0639,1.046,1.0527,1.0538,1.0449,1.0392,1.0361,1.0361,1.0307,1.028,1.028,1.028,1.028,1.028,1.028,1.028,0.0,0.9228,0.93,0.9286,0.9079,0.8784,0.8693,0.8442,0.0,0.8002,0.7965,0.7921,0.7848,0.7818,0.7824,0.7868,0.7875,0.8075,0.8645,0.8886,0.9215,0.995,1.0226,1.0365,1.0493,1.0636,1.0721,1.0721,1.0721,1.0721,1.0721,1.2219,1.3259,1.3451,1.5074,1.6754,1.8506,1.8506,1.6818,1.3451,1.3386,1.2413,1.0721,1.0721,1.0721,1.0721,1.0721,1.0721,1.0721,1.0721,1.0721,1.0721,1.0721,1.0721,1.0721,1.0721,1.0721,1.0721,1.0721,1.0721,1.0721,1.0721,1.0721,1.0721,1.0721,1.0721,1.0721,1.0721,1.0721,1.0721,1.0721,1.0721,1.0721,1.0721,1.0721,1.0721,1.0721,1.0721,1.0721,1.0721,1.0721,1.0721,1.0721,1.0721,1.0721,1.0721,1.0721,1.0721,1.0721,1.0721,1.0721,1.0721,1.0721,1.0721,1.0721,1.0721,1.0721,1.0721,1.0721,1.0721,1.0721,1.0582,1.0507,1.0507,1.0378,1.0314,1.0314,1.0314,1.0314,1.0314,1.0314,1.0314,0.7957,0.0,0.8503,0.8384,0.8251,0.819,0.0,0.8052,0.7909,0.7872,0.778,0.776,0.7901,0.7889,0.7963,0.8425,0.8499,0.8587,0.8794,0.9306,0.9849,1.0487,1.0595,1.0629,1.0663,1.07,1.0721,1.0721,1.0721,1.0721,1.0721,1.1111,1.2545,1.5204,1.5724,1.6754,1.8506,1.8506,1.7404,1.5269,1.397,1.2413,1.0721,1.0721,1.0721,1.0721,1.0721,1.0721,1.0721,1.0721,1.0721,1.0721,1.0721,1.0721,1.0721,1.0721,1.0721,1.0721,1.0721,1.0721,1.0721,1.0721,1.0721,1.0721,1.0721,1.0721,1.0721,1.0721,1.0721,1.0721,1.0721,1.0721,1.0721,1.0721,1.0721,1.0721,1.0721,1.0721,1.0721,1.0721,1.0721,1.0721,1.0721,1.0721,1.0721,1.0721,1.0721,1.0721,1.0721,1.0721,1.0721,1.0721,1.0721,1.0721,1.0721,1.0721,1.0721,1.0721,1.0721,1.0721,1.0721,1.0683,1.0666,1.0666,1.0633,1.0616,1.0616,1.0616,1.0616,1.0616,1.0616,1.0616,0.7638,0.7875,0.8126,0.7974,0.7938,0.7971,0.7901,0.0,0.0,0.0,0.7651,0.7648,0.7807,0.777,0.7865,0.8326,0.8404,0.8601,0.9167,0.97,1.0202,1.0666,1.0721,1.0721,1.0721,1.0721,1.0721,1.0721,1.0721,1.0721,1.0721,1.0721,1.196,1.4619,1.5459,1.7146,1.968,1.8896,1.7602,1.5854,1.4101,1.2413,1.0721,1.0721,1.0721,1.0721,1.0721,1.0721,1.0721,1.0721,1.0721,1.0721,1.0721,1.0721,1.0721,1.0721,1.0721,1.0721,1.0721,1.0721,1.0721,1.0721,1.0721,1.0721,1.0721,1.0721,1.0721,1.0721,1.0721,1.0721,1.0721,1.0721,1.0721,1.0721,1.0721,1.0721,1.0721,1.0721,1.0721,1.0721,1.0721,1.0721,1.0721,1.0721,1.0721,1.0721,1.0721,1.0721,1.0721,1.0721,1.0721,1.0721,1.0721,1.0721,1.0721,1.0721,1.0721,1.0721,1.0721,1.0721,1.0721,1.0721,1.0721,1.0721,1.0721,1.0721,1.0721,1.0721,1.0721,1.0721,1.0721,1.0721,0.7628,0.7814,0.7955,0.7848,0.7877,0.7958,0.7875,0.0,0.0,0.0,0.0,0.7614,0.7658,0.7685,0.7797,0.8046,0.815,0.8587,0.9574,1.0039,1.0388,1.0683,1.0721,1.0721,1.0721,1.0721,1.0721,1.0721,1.0721,1.0721,1.0721,1.0721,1.1501,1.3255,1.5009,1.7468,2.0652,1.9221,1.7602,1.5854,1.4101,1.2413,1.0721,1.0721,1.0721,1.0721,1.0721,1.0721,1.0721,1.0721,1.0721,1.0721,1.0721,1.0721,1.0721,1.0721,1.0721,1.0721,1.0721,1.0721,1.0721,1.0721,1.0721,1.0721,1.0721,1.0721,1.0721,1.0721,1.0721,1.0721,1.0721,1.0721,1.0721,1.0721,1.0721,1.0721,1.0721,1.0721,1.0721,1.0721,1.0721,1.0721,1.0721,1.0721,1.0721,1.0721,1.0721,1.0721,1.0721,1.0721,1.0721,1.0721,1.0721,1.0721,1.0721,1.0721,1.0721,1.0721,1.0721,1.0721,1.0721,1.0721,1.0721,1.0721,1.0721,1.0721,1.0721,1.0721,1.0721,1.0721,1.0721,1.0721,0.757,0.7814,0.7955,0.7848,0.7877,0.7982,0.7961,0.0,0.0,0.0,0.0,0.0,0.7877,0.8079,0.8265,0.8557,0.8927,0.9408,1.0083,1.0236,1.0388,1.0683,1.0721,1.0721,1.0721,1.0721,1.0721,1.0721,1.0721,1.0721,1.0721,1.0721,1.1501,1.3255,1.5009,1.6888,1.8896,1.8634,1.7602,1.5854,1.4101,1.2413,1.0721,1.0721,1.0721,1.0721,1.0721,1.0721,1.0721,1.0721,1.0721,1.0721,1.0721,1.0721,1.0721,1.0721,1.0721,1.0721,1.0721,1.0721,1.0721,1.0721,1.0721,1.0721,1.0721,1.0721,1.0721,1.0721,1.0721,1.0721,1.0721,1.0721,1.0721,1.0721,1.0721,1.0721,1.0721,1.0721,1.0721,1.0721,1.0721,1.0721,1.0721,1.0721,1.0721,1.0721,1.0721,1.0721,1.0721,1.0721,1.0721,1.0721,1.0721,1.0721,1.0721,1.0721,1.0721,1.0721,1.0721,1.0721,1.0721,1.0721,1.0721,1.0721,1.0721,1.0721,1.0721,1.0721,1.0721,1.0721,1.0721,1.0721,0.7377,0.7573,0.7804,0.7811,0.8048,0.8235,0.8025,0.7874,0.0,0.0,0.0,0.0,0.7934,0.8167,0.8448,0.8984,0.9449,0.9869,1.0229,1.0344,1.0477,1.0694,1.0721,1.0721,1.0721,1.0721,1.0721,1.0721,1.0721,1.0721,1.0721,1.0721,1.1501,1.3255,1.5009,1.6754,1.8506,1.9419,1.857,1.5854,1.4101,1.2413,1.0721,1.0721,1.0721,1.0721,1.0721,1.0721,1.0721,1.0721,1.0721,1.0721,1.0721,1.0721,1.0721,1.0721,1.0721,1.0721,1.0721,1.0721,1.0721,1.0721,1.0721,1.0721,1.0721,1.0721,1.0721,1.0721,1.0721,1.0721,1.0721,1.0721,1.0721,1.0721,1.0721,1.0721,1.0721,1.0721,1.0721,1.0721,1.0721,1.0721,1.0721,1.0721,1.0721,1.0721,1.0721,1.0721,1.0721,1.0721,1.0721,1.0721,1.0721,1.0721,1.0721,1.0721,1.0721,1.0721,1.0721,1.0721,1.0721,1.0721,1.0721,1.0721,1.0721,1.0721,1.0721,1.0721,1.0721,1.0721,1.0721,1.0721,0.7297,0.7468,0.7685,0.7828,0.8123,0.8347,0.8174,0.8079,0.7991,0.8058,0.7991,0.797,0.811,0.8381,0.8764,0.9476,0.9907,1.0205,1.0361,1.0477,1.0588,1.0707,1.0721,1.0721,1.0721,1.0721,1.0721,1.0721,1.0721,1.0721,1.0721,1.0721,1.1501,1.3255,1.5009,1.6733,1.8418,2.0163,1.9288,1.5848,1.4553,1.2804,1.0721,1.0721,1.0721,1.0721,1.0721,1.0721,1.0721,1.0721,1.0721,1.0721,1.0721,1.0721,1.0721,1.0721,1.0721,1.0721,1.0721,1.0721,1.0721,1.0721,1.0721,1.0721,1.0721,1.0721,1.0721,1.0721,1.0721,1.0721,1.0721,1.0721,1.0721,1.0721,1.0721,1.0721,1.0721,1.0721,1.0721,1.0721,1.0721,1.0721,1.0721,1.0721,1.0721,1.0721,1.0721,1.0721,1.0721,1.0721,1.0721,1.0721,1.0721,1.0721,1.0721,1.0721,1.0721,1.0721,1.0721,1.0721,1.0721,1.0721,1.0721,1.0721,1.0721,1.0721,1.0721,1.0721,1.0721,1.0721,1.0721,1.0721,0.7695,0.778,0.7831,0.7934,0.7995,0.8123,0.857,0.8543,0.8516,0.8747,0.8794,0.875,0.8682,0.9011,0.95,1.0117,1.0351,1.0514,1.0666,1.0697,1.0707,1.0717,1.0721,1.0721,1.0721,1.0721,1.0721,1.0721,1.0721,1.0721,1.0721,1.0721,1.1501,1.3255,1.5009,1.6589,1.8091,1.9874,1.9104,1.5913,1.5784,1.397,1.0721,1.0721,1.0721,1.0721,1.0721,1.0721,1.0721,1.0721,1.0721,1.0721,1.0721,1.0721,1.0721,1.0721,1.0721,1.0721,1.0721,1.0721,1.0721,1.0721,1.0721,1.0721,1.0721,1.0721,1.0721,1.0721,1.0721,1.0721,1.0721,1.0721,1.0721,1.0721,1.0721,1.0721,1.0721,1.0721,1.0721,1.0721,1.0721,1.0721,1.0721,1.0721,1.0721,1.0721,1.0721,1.0721,1.0721,1.0721,1.0721,1.0721,1.0721,1.0721,1.0721,1.0721,1.0721,1.0721,1.0721,1.0721,1.0721,1.0721,1.0721,1.0721,1.0721,1.0721,1.0721,1.0721,1.0721,1.0721,1.0721,1.0721,0.7506,0.7607,0.7712,0.7862,0.8106,0.0,0.0,0.8808,0.8879,0.9273,0.9279,0.9195,0.9137,0.9415,0.9761,1.0083,1.0337,1.0544,1.07,1.0721,1.0721,1.0721,1.0721,1.0721,1.0721,1.0721,1.068,1.0585,1.0578,1.0538,1.0453,1.0446,1.1717,1.4492,1.5188,1.6781,1.9394,2.0082,1.8754,1.5504,1.5582,1.392,1.0721,1.0721,1.0721,1.0721,1.0721,1.0721,1.0721,1.0721,1.0721,1.0721,1.0721,1.0721,1.0721,1.0721,1.0721,1.0721,1.0721,1.0721,1.0721,1.0721,1.0721,1.0721,1.0721,1.0721,1.0721,1.0721,1.0721,1.0721,1.0721,1.0721,1.0721,1.0721,1.0721,1.0721,1.0721,1.0721,1.0721,1.0721,1.0721,1.0721,1.0721,1.0721,1.0721,1.0721,1.0721,1.0721,1.0721,1.0721,1.0721,1.0721,1.0721,1.0721,1.0721,1.0721,1.0721,1.0721,1.0721,1.0721,1.0721,1.0721,1.0721,1.0721,1.0721,1.0721,1.0721,1.0721,1.0721,1.0721,1.0721,1.0721,0.7443,0.7516,0.7702,0.7845,0.0,0.0,0.9049,0.9113,0.9205,0.9656,0.9591,0.9483,0.9574,0.9717,0.9886,1.009,1.0371,1.0602,1.0707,1.0721,1.0721,1.0721,1.0721,1.0721,1.0721,1.0677,1.0605,1.05,1.0449,1.0382,1.0287,1.028,1.1838,1.5189,1.5313,1.6831,2.0033,2.0094,1.8665,1.5889,1.5494,1.3633,1.0649,1.0649,1.0673,1.0721,1.0721,1.0721,1.0721,1.0721,1.0721,1.0721,1.0721,1.0721,1.0721,1.0721,1.0721,1.0721,1.0721,1.0721,1.0721,1.0721,1.0721,1.0721,1.0721,1.0721,1.0721,1.0721,1.0721,1.0721,1.0721,1.0721,1.0721,1.0721,1.0721,1.0721,1.0721,1.0721,1.0721,1.0721,1.0721,1.0721,1.0721,1.0721,1.0721,1.0721,1.0721,1.0721,1.0721,1.0721,1.0721,1.0721,1.0721,1.0721,1.0721,1.0721,1.0721,1.0721,1.0721,1.0721,1.0721,1.0721,1.0721,1.0721,1.0721,1.0721,1.0721,1.0721,1.0721,1.0721,1.0721,1.0721,0.7448,0.7584,0.7845,0.7951,0.0,0.8682,0.9439,0.9493,0.9513,0.9903,0.9822,0.9707,0.9936,0.9866,0.9924,1.0232,1.0527,1.0717,1.0721,1.0721,1.0721,1.0721,1.0717,1.0717,1.0717,1.0578,1.049,1.0487,1.0422,1.034,1.0276,1.034,1.1834,1.5184,1.5308,1.6742,1.98,1.98,1.8941,1.7175,1.5584,1.3296,1.049,1.049,1.0571,1.0717,1.0717,1.0717,1.0717,1.0721,1.0721,1.0721,1.0721,1.0721,1.0721,1.0721,1.0721,1.0721,1.0721,1.0721,1.0721,1.0721,1.0721,1.0721,1.0721,1.0721,1.0721,1.0721,1.0721,1.0721,1.0721,1.0721,1.0721,1.0721,1.0721,1.0721,1.0721,1.0721,1.0721,1.0721,1.0721,1.0721,1.0721,1.0721,1.0721,1.0721,1.0721,1.0721,1.0721,1.0721,1.0721,1.0721,1.0721,1.0721,1.0721,1.0721,1.0721,1.0721,1.0721,1.0721,1.0721,1.0721,1.0721,1.0721,1.0721,1.0721,1.0721,1.0721,1.0721,1.0721,1.0721,1.0721,0.7261,0.7431,0.7723,0.7928,0.8373,0.8944,0.9486,0.9652,0.9849,1.0405,1.0365,1.0226,1.0215,1.0175,1.0175,1.0266,1.0436,1.0599,1.0704,1.0721,1.0721,1.0721,1.0626,1.0561,1.0561,1.0429,1.0297,1.0188,1.1132,1.124,1.0023,1.1049,1.2625,1.4736,1.4796,1.6328,1.9499,1.9499,1.8712,1.702,1.5412,1.3709,1.2032,1.0909,1.0368,1.0412,1.0412,1.0466,1.0568,1.0677,1.0721,1.0721,1.0721,1.0721,1.0721,1.0721,1.0721,1.0721,1.0721,1.0721,1.0721,1.0721,1.0721,1.0721,1.0721,1.0721,1.0721,1.0721,1.0721,1.0721,1.0721,1.0721,1.0721,1.0721,1.0721,1.0721,1.0721,1.0721,1.0721,1.0721,1.0721,1.0721,1.0721,1.0721,1.0721,1.0721,1.0721,1.0721,1.0721,1.0721,1.0721,1.0721,1.0721,1.0721,1.0721,1.0721,1.0721,1.0721,1.0721,1.0721,1.0721,1.0721,1.0721,1.0721,1.0721,1.0721,1.0721,1.0721,1.0721,1.0721,1.0721,1.0721,0.735,0.759,0.7936,0.8231,0.8669,0.9174,0.9744,0.9985,1.0209,1.0633,1.0555,1.0399,1.0371,1.0321,1.0297,1.0354,1.0487,1.0595,1.0626,1.0629,1.0609,1.0551,1.0463,1.0409,1.0409,1.0273,1.0151,0.9994,1.1456,1.1549,0.9886,1.1916,1.3586,1.4545,1.5192,1.6797,1.9366,1.9424,1.8887,1.7923,1.5671,1.42,1.3409,1.115,1.0222,1.0283,1.0341,1.0412,1.0504,1.0656,1.0721,1.0721,1.0721,1.0721,1.0721,1.0721,1.0721,1.0721,1.0721,1.0721,1.0721,1.0721,1.0721,1.0721,1.0721,1.0721,1.0721,1.0721,1.0721,1.0721,1.0721,1.0721,1.0721,1.0721,1.0721,1.0721,1.0721,1.0721,1.0721,1.0721,1.0721,1.0721,1.0721,1.0721,1.0721,1.0721,1.0721,1.0721,1.0721,1.0721,1.0721,1.0721,1.0721,1.0721,1.0721,1.0721,1.0721,1.0721,1.0721,1.0721,1.0721,1.0721,1.0721,1.0721,1.0721,1.0721,1.0721,1.0721,1.0721,1.0721,1.0721,1.0721,0.756,0.7906,0.8343,0.8655,0.8984,0.9473,1.0103,1.0371,1.0521,1.0687,1.0497,1.0337,1.047,1.0375,1.0324,1.0453,1.0588,1.0633,1.049,1.0473,1.0426,1.0297,1.0266,1.0259,1.0259,1.012,0.9967,0.9967,1.1529,1.1679,0.9879,1.2988,1.4723,1.4604,1.6138,1.7747,1.9366,1.9424,1.9424,1.9366,1.6149,1.4604,1.449,1.136,1.0103,1.0246,1.0405,1.0473,1.0483,1.0653,1.0721,1.0721,1.0721,1.0721,1.0721,1.0721,1.0721,1.0721,1.0721,1.0721,1.0721,1.0721,1.0721,1.0721,1.0721,1.0721,1.0721,1.0721,1.0721,1.0721,1.0721,1.0721,1.0721,1.0721,1.0721,1.0721,1.0721,1.0721,1.0721,1.0721,1.0721,1.0721,1.0721,1.0721,1.0721,1.0721,1.0721,1.0721,1.0721,1.0721,1.0721,1.0721,1.0721,1.0721,1.0721,1.0721,1.0721,1.0721,1.0721,1.0721,1.0721,1.0721,1.0721,1.0721,1.0721,1.0721,1.0721,1.0721,1.0721,1.0721,1.0721,1.0721,0.7227,0.7743,0.837,0.8784,0.932,0.9897,1.0,1.0215,1.0399,1.0666,1.0575,1.0456,1.0487,1.0375,1.029,1.0321,1.0354,1.0365,1.0331,1.0327,1.0314,1.0283,1.0175,1.0038,1.0038,0.9961,0.9869,0.9869,1.2479,1.2813,0.994,1.4054,1.5902,1.4663,1.6138,1.7747,1.9366,1.9424,1.9424,1.9366,1.6149,1.4604,1.4485,1.1296,0.9886,0.9937,1.0209,1.0327,1.0344,1.0612,1.0721,1.0721,1.0721,1.0721,1.0721,1.0721,1.0721,1.0721,1.0721,1.0721,1.0721,1.0721,1.0721,1.0721,1.0721,1.0721,1.0721,1.0721,1.0721,1.0721,1.0721,1.0721,1.0721,1.0721,1.0721,1.0721,1.0721,1.0721,1.0721,1.0721,1.0721,1.0721,1.0721,1.0721,1.0721,1.0721,1.0721,1.0721,1.0721,1.0721,1.0721,1.0721,1.0721,1.0721,1.0721,1.0721,1.0721,1.0721,1.0721,1.0721,1.0721,1.0721,1.0721,1.0721,1.0721,1.0721,1.0721,1.0721,1.0721,1.0721,1.0721,1.0721,0.7326,0.7807,0.8411,0.9005,0.9545,0.9987,0.9987,1.0168,1.0324,1.0477,1.0446,1.0392,1.0392,1.0331,1.028,1.028,1.028,1.0253,1.0181,1.0171,1.0141,1.007,0.9988,0.9879,0.9879,0.9869,0.9822,0.9822,1.2753,1.3228,1.0001,1.5123,1.7038,1.4663,1.6733,1.8384,1.9366,1.9225,1.9225,1.9366,1.6149,1.3765,1.2213,1.0539,0.9822,0.9832,1.0066,1.0212,1.0297,1.0521,1.0653,1.0721,1.0721,1.0721,1.0721,1.0721,1.0721,1.0721,1.0721,1.0721,1.0721,1.0721,1.0721,1.0721,1.0721,1.0721,1.0721,1.0721,1.0721,1.0721,1.0721,1.0721,1.0721,1.0721,1.0721,1.0721,1.0721,1.0721,1.0721,1.0721,1.0721,1.0721,1.0721,1.0721,1.0721,1.0721,1.0721,1.0721,1.0721,1.0721,1.0721,1.0721,1.0721,1.0721,1.0721,1.0721,1.0721,1.0721,1.0721,1.0721,1.0721,1.0721,1.0721,1.0721,1.0721,1.0721,1.0721,1.0721,1.0721,1.0721,1.0721,1.0721,0.7302,0.7848,0.8479,0.9201,0.9696,0.995,0.995,1.0107,1.0202,1.0202,1.0222,1.0243,1.0243,1.0219,1.0202,1.0202,1.0202,1.0158,0.9967,0.995,0.9903,0.9836,0.9822,0.9822,0.9822,0.9822,0.9812,0.9785,1.27,1.3104,0.9925,1.5776,1.7793,1.4606,1.734,1.8965,1.9212,1.8971,1.8998,1.9292,1.6127,1.2933,0.9822,0.9822,0.9822,0.9829,0.992,1.0058,1.0253,1.0422,1.0565,1.0683,1.0711,1.0721,1.0721,1.0721,1.0721,1.0721,1.0721,1.0721,1.0721,1.0721,1.0721,1.0721,1.0721,1.0721,1.0721,1.0721,1.0721,1.0721,1.0721,1.0721,1.0721,1.0721,1.0721,1.0721,1.0721,1.0721,1.0721,1.0721,1.0721,1.0721,1.0721,1.0721,1.0721,1.0721,1.0721,1.0721,1.0721,1.0721,1.0721,1.0721,1.0721,1.0721,1.0721,1.0721,1.0721,1.0721,1.0721,1.0721,1.0721,1.0721,1.0721,1.0721,1.0721,1.0721,1.0721,1.0721,1.0721,1.0721,1.0721,1.0721,0.6648,0.0,0.8604,0.9225,0.9618,0.9849,0.9849,0.9866,0.9883,0.9883,0.9988,1.0017,1.0017,0.9971,0.9883,0.9883,0.9883,0.9876,0.9852,0.9849,0.9842,0.9822,0.9822,0.9822,0.9822,0.9822,0.9771,0.9646,1.2497,1.2826,0.9621,1.528,1.7222,1.408,1.6961,1.8564,1.8611,1.8571,1.8691,1.8928,1.5985,1.2933,0.9822,0.9822,0.9822,0.9829,0.992,1.0,1.0038,1.0378,1.0504,1.0534,1.067,1.0721,1.0721,1.0721,1.0721,1.0721,1.0721,1.0721,1.0721,1.0721,1.0721,1.0721,1.0721,1.0721,1.0721,1.0721,1.0721,1.0721,1.0721,1.0721,1.0721,1.0721,1.0721,1.0721,1.0721,1.0721,1.0721,1.0721,1.0721,1.0721,1.0721,1.0721,1.0721,1.0721,1.0721,1.0721,1.0721,1.0721,1.0721,1.0721,1.0721,1.0721,1.0721,1.0721,1.0721,1.0721,1.0721,1.0721,1.0721,1.0721,1.0721,1.0721,1.0721,1.0721,1.0721,1.0721,1.0721,1.0721,1.0721,1.0721,0.6943,0.7655,0.8397,0.9083,0.9415,0.9598,0.9683,0.9764,0.9822,0.9822,0.9873,0.9859,0.9859,0.9866,0.9822,0.9822,0.9822,0.9822,0.9822,0.9822,0.9822,0.9822,0.9822,0.9822,0.9822,0.9747,1.0032,1.0783,1.282,1.3002,1.0693,1.5637,1.7061,1.3988,1.6685,1.8323,1.849,1.8323,1.7556,1.6235,1.5141,1.2933,0.9822,0.9822,0.9822,0.9825,0.9832,0.9909,0.9997,1.0192,1.0341,1.05,1.0565,1.0643,1.0721,1.0721,1.0721,1.0721,1.0721,1.0721,1.0721,1.0721,1.0721,1.0721,1.0721,1.0721,1.0721,1.0721,1.0721,1.0721,1.0721,1.0721,1.0721,1.0721,1.0721,1.0721,1.0721,1.0721,1.0721,1.0721,1.0721,1.0721,1.0721,1.0792,1.0782,1.0782,1.0917,1.0968,1.0968,1.0968,1.0968,1.0968,1.0968,1.0934,1.0789,1.0782,1.0812,1.0724,1.0721,1.0721,1.0721,1.0721,1.0721,1.0721,1.0721,1.0721,1.0721,1.0721,1.0721,1.0721,1.0721,1.0721,0.7048,0.0,0.7931,0.8693,0.9096,0.9354,0.9466,0.9635,0.9768,0.9768,0.9768,0.9768,0.9768,0.9795,0.9822,0.9822,0.9822,0.9822,0.9822,0.9788,0.9781,0.9819,0.9754,0.9724,0.9764,0.9635,1.0116,1.157,1.2975,1.3257,1.202,1.5949,1.7078,1.4375,1.6647,1.8036,1.8257,1.8062,1.6888,1.4688,1.4578,1.3058,1.0422,1.0001,0.9822,0.9822,0.9822,0.9886,0.9933,0.997,1.0202,1.0443,1.0477,1.0585,1.0721,1.0721,1.0721,1.0721,1.0721,1.0721,1.0721,1.0721,1.0721,1.0721,1.0721,1.0721,1.0721,1.0721,1.0721,1.0721,1.0721,1.0721,1.0721,1.0721,1.0721,1.0721,1.0721,1.0721,1.0721,1.0721,1.0751,1.0778,1.0778,1.0904,1.1002,1.1002,1.1094,1.1231,1.1231,1.1231,1.1231,1.1231,1.1231,1.1121,1.1012,1.09,1.0833,1.0785,1.0741,1.0721,1.0721,1.0721,1.0721,1.0721,1.0721,1.0721,1.0721,1.0721,1.0721,1.0721,1.0721,1.0721,0.6364,0.6851,0.0,0.7894,0.8635,0.9224,0.9231,0.9408,0.9618,0.9618,0.9618,0.9618,0.9618,0.973,0.9822,0.9822,0.9822,0.9822,0.9822,0.9703,0.9673,0.9805,0.9574,0.9459,0.9605,0.9483,0.9957,1.1245,1.2678,1.3417,1.3202,1.6057,1.6921,1.5351,1.6802,1.7615,1.7629,1.7856,1.7357,1.5991,1.4798,1.3447,1.2032,1.0482,0.9822,0.9822,0.9822,0.9825,0.9842,0.9926,1.0144,1.0304,1.0439,1.0585,1.0721,1.0721,1.0721,1.0721,1.0721,1.0721,1.0721,1.0721,1.0721,1.0721,1.0721,1.0721,1.0721,1.0721,1.0721,1.0721,1.0721,1.0721,1.0721,1.0721,1.0721,1.0721,1.0721,1.0721,1.0721,1.0721,1.0769,1.087,1.087,1.1056,1.1151,1.1151,1.1158,1.1231,1.1231,1.1231,1.1231,1.1231,1.1231,1.1227,1.122,1.1026,1.0877,1.087,1.0802,1.0721,1.0721,1.0721,1.0721,1.0721,1.0721,1.0721,1.0721,1.0721,1.0721,1.0721,1.0721,1.0721,0.6276,0.0,0.7082,0.7631,0.8099,0.8489,0.8679,0.9032,0.9317,0.9317,0.9395,0.9462,0.9462,0.9503,0.954,0.954,0.954,0.954,0.954,0.9496,0.9483,0.9534,0.9445,0.9401,0.9459,0.9323,1.022,1.2548,1.3137,1.373,1.4615,1.6499,1.6929,1.547,1.6823,1.7582,1.7582,1.7889,1.7351,1.6086,1.5818,1.5019,1.371,1.2097,1.1318,1.1257,1.024,0.9822,0.9825,0.988,1.0053,1.0287,1.0337,1.0507,1.0721,1.0721,1.0721,1.0721,1.0721,1.0721,1.0721,1.0721,1.0721,1.0721,1.0721,1.0721,1.0721,1.0721,1.0721,1.0721,1.0721,1.0721,1.0721,1.0721,1.0721,1.0721,1.0721,1.0721,1.0751,1.0782,1.0843,1.0911,1.107,1.1209,1.1307,1.1307,1.1392,1.1457,1.1457,1.1457,1.1457,1.1457,1.1457,1.1416,1.1318,1.1263,1.1151,1.0894,1.083,1.0822,1.0724,1.0721,1.0721,1.0721,1.0721,1.0721,1.0721,1.0721,1.0721,1.0721,1.0721,1.0721,0.6044,0.6363,0.6814,0.7261,0.751,0.7949,0.886,0.9321,0.96,0.9761,0.9829,0.9806,0.9408,0.9266,0.9266,0.9364,0.9381,0.9381,0.9381,0.9337,0.9323,0.9374,0.9293,0.9252,0.93,0.9171,1.0297,1.3217,1.335,1.4126,1.6068,1.7094,1.7147,1.6174,1.7094,1.7582,1.7582,1.7789,1.7482,1.6741,1.6408,1.5869,1.5194,1.3596,1.2627,1.2153,1.108,1.0301,0.9822,0.9822,1.0002,1.028,1.028,1.046,1.0721,1.0721,1.0721,1.0721,1.0721,1.0721,1.0721,1.0721,1.0721,1.0721,1.0721,1.0721,1.0721,1.0721,1.0721,1.0721,1.0721,1.0721,1.0721,1.0721,1.0721,1.0721,1.0721,1.0761,1.0759,1.086,1.0961,1.1128,1.1223,1.1365,1.1467,1.1467,1.1555,1.1619,1.1619,1.1619,1.1619,1.1619,1.1619,1.1579,1.1477,1.1419,1.1284,1.1036,1.0907,1.0813,1.0727,1.0721,1.0721,1.0721,1.0721,1.0721,1.0721,1.0721,1.0721,1.0721,1.0721,1.0721,0.0,0.0,0.0,0.6877,0.705,0.7663,0.9702,1.0163,1.0276,1.0779,1.0845,1.0527,0.9381,0.9018,0.9022,0.9313,0.9364,0.9367,0.9367,0.9299,0.9258,0.9351,0.9113,0.8994,0.919,0.9077,1.0186,1.3102,1.3318,1.4615,1.747,1.7582,1.7582,1.7582,1.7582,1.7582,1.7582,1.7582,1.7729,1.7962,1.6478,1.6025,1.6511,1.4945,1.3551,1.2269,1.2213,1.1318,0.9822,0.9822,1.0002,1.028,1.028,1.046,1.0721,1.0721,1.0721,1.0721,1.0721,1.0721,1.0721,1.0721,1.0721,1.0721,1.0721,1.0721,1.0721,1.0721,1.0721,1.0721,1.0721,1.0721,1.0721,1.0721,1.0721,1.0721,1.0721,1.0843,1.0887,1.0887,1.1192,1.1392,1.1396,1.1521,1.1619,1.1619,1.1619,1.1619,1.1619,1.1619,1.1619,1.1619,1.1619,1.1619,1.1619,1.148,1.1324,1.1241,1.1026,1.0813,1.0727,1.0721,1.0721,1.0721,1.0721,1.0721,1.0721,1.0721,1.0721,1.0721,1.0721,1.0721,0.7697,0.0,0.0,0.0,0.0,0.0,0.933,0.9375,0.9237,0.9637,0.9857,0.969,0.8831,0.8635,0.8672,0.8866,0.8988,0.9062,0.9062,0.9025,0.9015,0.9055,0.8932,0.8898,0.8994,0.9886,1.1269,1.3156,1.4234,1.5636,1.7477,1.7582,1.7582,1.7582,1.7582,1.7582,1.7582,1.7582,1.7736,1.7982,1.7597,1.7566,1.792,1.6498,1.5045,1.3595,1.2627,1.1318,0.9822,0.9822,1.0002,1.028,1.028,1.046,1.0721,1.0721,1.0721,1.0721,1.0721,1.0721,1.0721,1.0721,1.0721,1.0721,1.0721,1.0721,1.0721,1.0721,1.0721,1.0721,1.0721,1.0721,1.0721,1.0721,1.0721,1.0721,1.0721,1.0921,1.1104,1.1104,1.126,1.1426,1.1538,1.1592,1.1619,1.1619,1.1619,1.1619,1.1619,1.1619,1.1619,1.1619,1.1619,1.1619,1.1619,1.148,1.1324,1.1241,1.1026,1.0813,1.0727,1.0721,1.0721,1.0721,1.0721,1.0721,1.0721,1.0721,1.0721,1.0721,1.0721,1.0721,0.8861,0.0,0.9238,0.9118,0.0,0.0,1.0198,1.0282,1.0173,1.0986,1.1221,1.1095,1.0273,0.9671,0.9339,0.9387,0.9483,0.9381,0.8975,0.9427,0.9805,0.9805,1.0347,1.0511,0.986,1.116,1.2349,1.3264,1.4609,1.6062,1.7529,1.7582,1.7582,1.7582,1.7582,1.7582,1.7582,1.7582,1.7669,1.7856,1.7856,1.8009,1.8255,1.7628,1.6189,1.4149,1.3492,1.1916,0.9822,0.9822,1.0002,1.028,1.028,1.046,1.0721,1.0721,1.0721,1.0721,1.0721,1.0721,1.0721,1.0721,1.0721,1.0721,1.0721,1.0721,1.0721,1.0721,1.0721,1.0721,1.0721,1.0721,1.0721,1.0721,1.0721,1.0721,1.0721,1.0907,1.109,1.1151,1.1338,1.1514,1.1603,1.1619,1.1619,1.1619,1.1619,1.1619,1.1619,1.1619,1.1596,1.1531,1.1525,1.1497,1.1436,1.1348,1.1233,1.1084,1.0927,1.0813,1.0727,1.0721,1.0721,1.0721,1.0721,1.0721,1.0721,1.0721,1.0721,1.0721,1.0721,1.0721,0.9845,0.0,0.0,0.9886,0.9414,0.0,1.1548,1.184,1.2011,1.3118,1.342,1.3157,1.2304,1.1184,1.0442,1.0391,1.0493,1.0201,0.9221,1.0346,1.1259,1.1259,1.2386,1.2656,1.1368,1.2548,1.3408,1.3408,1.4773,1.6184,1.7483,1.7562,1.7582,1.7582,1.7582,1.7582,1.7582,1.7582,1.7582,1.7582,1.7582,1.7729,1.7955,1.8337,1.7016,1.4404,1.4547,1.2873,1.0061,0.9879,1.0002,1.028,1.028,1.046,1.0721,1.0721,1.0721,1.0721,1.0721,1.0721,1.0721,1.0721,1.0721,1.0721,1.0721,1.0721,1.0721,1.0721,1.0721,1.0721,1.0721,1.0721,1.0721,1.0721,1.0721,1.0721,1.0721,1.0839,1.0917,1.1114,1.1385,1.1596,1.1596,1.1609,1.1619,1.1619,1.1606,1.1596,1.1596,1.1579,1.1514,1.1382,1.1365,1.1311,1.1244,1.1148,1.1084,1.089,1.0863,1.0796,1.0724,1.0721,1.0721,1.0721,1.0721,1.0721,1.0721,1.0721,1.0721,1.0721,1.0721,1.0721,1.2524,1.2633,1.2708,1.2254,1.1695,0.0,1.1484,1.1534,1.151,1.137,1.1546,1.1457,1.0736,1.0596,1.0527,1.0445,1.1001,1.1125,1.0241,1.1281,1.2167,1.2167,1.2422,1.2474,1.2163,1.3453,1.4282,1.4282,1.5886,1.6969,1.7286,1.7455,1.7582,1.7582,1.7582,1.7582,1.7582,1.7582,1.7582,1.7582,1.7582,1.7615,1.7689,1.8237,1.7489,1.5671,1.4955,1.3526,1.1615,1.0301,1.0002,1.028,1.028,1.046,1.0721,1.0721,1.0721,1.0721,1.0721,1.0721,1.0721,1.0721,1.0721,1.0721,1.0721,1.0721,1.0721,1.0721,1.0721,1.0721,1.0721,1.0721,1.0721,1.0721,1.0721,1.0721,1.0721,1.0839,1.089,1.0917,1.1233,1.1436,1.1436,1.1538,1.1619,1.1619,1.1514,1.1436,1.1436,1.1328,1.124,1.1209,1.1206,1.1265,1.1234,1.1056,1.0911,1.0884,1.0833,1.0751,1.0721,1.0721,1.0721,1.0721,1.0721,1.0721,1.0721,1.0721,1.0721,1.0721,1.0721,1.0721,1.3507,1.3493,1.3533,1.3273,1.2648,0.0,0.0,1.1972,1.1828,1.2329,1.2209,1.2022,1.2137,1.1606,1.117,1.1243,1.1882,1.2168,1.1566,1.2597,1.3472,1.3472,1.4089,1.4242,1.3523,1.4755,1.5626,1.5626,1.643,1.6927,1.6927,1.7259,1.742,1.742,1.7508,1.7582,1.7582,1.7582,1.7582,1.7582,1.7582,1.7582,1.7602,1.8217,1.7631,1.6109,1.5868,1.4896,1.3287,1.1675,1.1111,1.1291,1.0563,1.0415,1.0616,1.0694,1.0721,1.0721,1.0721,1.0721,1.0721,1.0721,1.0721,1.0721,1.0721,1.0721,1.0721,1.0721,1.0721,1.0721,1.0721,1.0721,1.0721,1.0721,1.0721,1.0721,1.0721,1.0778,1.0766,1.0766,1.1016,1.1192,1.1263,1.1341,1.1392,1.1392,1.1324,1.1277,1.1277,1.1209,1.1134,1.1063,1.1056,1.1026,1.0948,1.0877,1.0766,1.0766,1.0761,1.0721,1.0721,1.0721,1.0721,1.0721,1.0721,1.0721,1.0721,1.0721,1.0721,1.0721,1.0721,1.0721,1.4099,1.4019,1.4039,1.376,1.3307,1.2906,0.0,0.0,0.0,1.3487,1.3166,1.2918,1.3607,1.2713,1.1869,1.2023,1.2659,1.3001,1.269,1.3688,1.4427,1.4475,1.5722,1.6054,1.4785,1.5646,1.6353,1.652,1.6433,1.6446,1.6613,1.7012,1.7199,1.7199,1.7481,1.7582,1.7582,1.7582,1.7582,1.7582,1.7582,1.7582,1.7602,1.8217,1.7805,1.657,1.686,1.6256,1.4955,1.3347,1.2725,1.265,1.0958,1.0368,1.051,1.0663,1.0721,1.0721,1.0721,1.0721,1.0721,1.0721,1.0721,1.0721,1.0721,1.0721,1.0721,1.0721,1.0721,1.0721,1.0721,1.0721,1.0721,1.0721,1.0721,1.0721,1.0721,1.0721,1.0721,1.0721,1.0819,1.0951,1.1097,1.1145,1.1231,1.1231,1.1138,1.1121,1.1121,1.1094,1.1033,1.085,1.0836,1.0786,1.0731,1.0721,1.0721,1.0721,1.0721,1.0721,1.0721,1.0721,1.0721,1.0721,1.0721,1.0721,1.0721,1.0721,1.0721,1.0721,1.0721,1.0721,1.5357,1.5578,1.5665,1.4362,1.4543,1.4516,1.2522,0.0,1.2879,1.2288,0.0,1.2385,1.2485,0.0,0.0,1.1969,1.2818,1.3343,1.2863,1.3568,1.4215,1.4464,1.5312,1.573,1.5331,1.498,1.509,1.5824,1.5451,1.5551,1.6279,1.6898,1.7199,1.7199,1.7481,1.7582,1.7582,1.7582,1.7582,1.7582,1.7582,1.7582,1.7602,1.8217,1.8373,1.8177,1.7335,1.6909,1.6615,1.5015,1.4321,1.4081,1.1346,1.0368,1.051,1.0663,1.0721,1.0721,1.0721,1.0721,1.0721,1.0721,1.0721,1.0721,1.0721,1.0721,1.0721,1.0721,1.0721,1.0721,1.0721,1.0721,1.0721,1.0721,1.0721,1.0721,1.0721,1.0721,1.0721,1.0721,1.0734,1.0795,1.088,1.108,1.1231,1.1231,1.1053,1.0904,1.0904,1.0853,1.0765,1.0748,1.0748,1.0741,1.0721,1.0721,1.0721,1.0721,1.0721,1.0721,1.0721,1.0721,1.0721,1.0721,1.0721,1.0721,1.0721,1.0721,1.0721,1.0721,1.0721,1.0721,1.5303,1.5451,1.5538,1.4576,1.4489,1.4289,1.2953,1.2538,1.2455,1.2422,0.0,0.0,0.0,0.0,0.0,0.0,1.2432,1.2659,1.2064,1.2784,1.3588,1.4188,1.4399,1.4672,1.511,1.4763,1.4839,1.5718,1.513,1.509,1.5965,1.6413,1.677,1.6887,1.7226,1.7467,1.7582,1.7582,1.7582,1.7582,1.7582,1.7582,1.7595,1.8036,1.833,1.851,1.8223,1.8192,1.8286,1.6674,1.5961,1.5817,1.3723,1.2474,1.1708,1.0853,1.0643,1.0721,1.0721,1.0721,1.0721,1.0721,1.0721,1.0721,1.0721,1.0721,1.0721,1.0721,1.0721,1.0721,1.0721,1.0721,1.0721,1.0721,1.0721,1.0721,1.0721,1.0721,1.0721,1.0721,1.0721,1.0741,1.0739,1.0867,1.0907,1.0907,1.0853,1.0749,1.0749,1.0761,1.0721,1.0721,1.0721,1.0721,1.0721,1.0721,1.0721,1.0721,1.0721,1.0721,1.0721,1.0721,1.0721,1.0721,1.0721,1.0721,1.0721,1.0721,1.0721,1.0721,1.0721,1.0721,1.5324,1.5471,1.5538,1.4629,1.4302,1.3988,1.3153,1.2645,1.2452,1.2837,1.2552,0.0,0.0,0.0,1.1988,1.2027,0.0,1.2164,1.141,1.1899,1.2603,1.338,1.3581,1.3886,1.47,1.4229,1.4382,1.5504,1.4703,1.4649,1.5724,1.6112,1.6406,1.6693,1.7045,1.734,1.7582,1.7582,1.7582,1.7582,1.7582,1.7582,1.7595,1.7903,1.8155,1.8504,1.8798,1.9092,1.9307,1.8163,1.7683,1.7525,1.597,1.4881,1.3783,1.1898,1.1301,1.1372,1.085,1.0721,1.0721,1.0721,1.0721,1.0721,1.0721,1.0721,1.0721,1.0721,1.0721,1.0721,1.0721,1.0721,1.0721,1.0721,1.0721,1.0721,1.0721,1.0721,1.0721,1.0721,1.0721,1.0721,1.0721,1.0721,1.0721,1.0721,1.0721,1.0721,1.0721,1.0721,1.0721,1.0721,1.0721,1.0721,1.0721,1.0721,1.0721,1.0721,1.0721,1.0721,1.0721,1.0721,1.0721,1.0721,1.0721,1.0721,1.0721,1.0721,1.0721,1.0721,1.0721,1.0721,1.6032,1.6226,1.6253,1.4529,1.4302,1.4122,1.2665,1.2947,1.3473,1.3253,1.3848,1.4342,1.4082,1.3774,0.0,0.0,0.0,0.0,0.0,1.1035,1.1269,1.1906,1.2946,1.3726,1.4082,1.306,1.31,1.4901,1.3915,1.4008,1.5691,1.6112,1.6406,1.6693,1.7045,1.734,1.7582,1.7582,1.7582,1.7582,1.7582,1.7582,1.7595,1.7903,1.8155,1.8504,1.8798,1.9092,1.9424,1.9366,1.9307,1.9185,1.7572,1.7171,1.7083,1.3988,1.2974,1.3001,1.1306,1.0721,1.0721,1.0721,1.0721,1.0721,1.0721,1.0721,1.0721,1.0721,1.0721,1.0721,1.0721,1.0721,1.0721,1.0721,1.0721,1.0721,1.0721,1.0721,1.0721,1.0721,1.0721,1.0721,1.0721,1.0721,1.0721,1.0721,1.0721,1.0721,1.0721,1.0721,1.0721,1.0721,1.0721,1.0721,1.0721,1.0721,1.0721,1.0721,1.0721,1.0721,1.0721,1.0721,1.0721,1.0721,1.0721,1.0721,1.0721,1.0721,1.0721,1.0721,1.0721,1.0721,1.6493,1.67,1.6723,1.5297,1.4883,1.4476,1.32,1.3247,1.352,1.3273,1.3908,1.4429,1.4142,1.3841,0.0,0.0,0.0,0.0,0.0,1.0247,1.0274,1.0661,1.1917,1.2792,1.2899,1.2757,1.3213,1.4569,1.39,1.4139,1.5698,1.5925,1.6112,1.6413,1.6707,1.6994,1.7347,1.7482,1.7582,1.7582,1.7582,1.7582,1.7589,1.7695,1.8016,1.8497,1.8597,1.8911,1.9424,1.9424,1.9424,1.9366,1.8823,1.8864,1.8936,1.5649,1.4709,1.4944,1.4362,1.339,1.2413,1.2413,1.1633,1.0721,1.0721,1.0721,1.0721,1.0721,1.0721,1.0721,1.0721,1.0721,1.0721,1.0721,1.0721,1.0721,1.0721,1.0721,1.0721,1.0721,1.0721,1.0721,1.0721,1.0721,1.0721,1.0721,1.0721,1.0721,1.0721,1.0721,1.0721,1.0721,1.0721,1.0721,1.0721,1.0721,1.0721,1.0721,1.0721,1.0721,1.0721,1.0721,1.0721,1.0721,1.0721,1.0721,1.0721,1.0721,1.0721,1.0721,1.0721,1.0721,1.6767,1.6921,1.6945,1.5818,1.5411,1.499,1.3921,1.4019,1.4299,1.4048,1.4603,1.509,1.4897,1.4456,0.0,0.0,0.0,0.0,0.0,0.98,0.9753,0.994,1.1069,1.1957,1.2271,1.2134,1.267,1.4242,1.3721,1.4008,1.5591,1.5772,1.5965,1.6308,1.6553,1.6847,1.7199,1.7494,1.7582,1.7582,1.7582,1.7582,1.7582,1.7582,1.7916,1.849,1.849,1.8824,1.9424,1.9424,1.9424,1.9424,1.9424,1.972,1.9857,1.7117,1.6039,1.5913,1.5913,1.5139,1.4232,1.4232,1.3451,1.2545,1.2545,1.2545,1.2545,1.2545,1.2545,1.2413,1.1762,1.1633,1.1501,1.085,1.0721,1.0721,1.0721,1.0721,1.085,1.1501,1.1633,1.1828,1.2413,1.2545,1.2153,1.0916,1.0721,1.0721,1.0721,1.0721,1.0721,1.0721,1.0721,1.0721,1.0721,1.0721,1.0721,1.0721,1.0721,1.0721,1.0721,1.0721,1.0721,1.0721,1.0721,1.0721,1.0721,1.0721,1.0721,1.0721,1.0721,1.0721]}]]